<?xml version="1.0" encoding="UTF-8" standalone="no" ?>
<gpx xmlns="http://www.topografix.com/GPX/1/1" xmlns:xsi="http://www.w3.org/2001/XMLSchema-instance" xsi:schemaLocation="http://www.topografix.com/GPX/1/1 http://www.topografix.com/GPX/1/1/gpx.xsd" version="1.1" creator="VisuGPX - https://www.visugpx.com">
  <metadata>
    <name>Pic de la Lavoire - Vallorin</name>
    <desc><![CDATA[Ski de rando 4.2 Sud & Nord]]></desc>
  </metadata>
  <trk>
    <name><![CDATA[ACTIVE LOG- 09 JAN 2013 08-50]]></name>
    <trkseg>
      <trkpt lat="45.31686" lon="6.24776">
        <ele>1035.48</ele>
        <time>2013-01-09T07:50:27Z</time>
      </trkpt>
      <trkpt lat="45.31716" lon="6.24776">
        <ele>1038.84</ele>
        <time>2013-01-09T07:50:42Z</time>
      </trkpt>
      <trkpt lat="45.31718" lon="6.24764">
        <ele>1041.73</ele>
        <time>2013-01-09T07:50:58Z</time>
      </trkpt>
      <trkpt lat="45.31719" lon="6.24761">
        <ele>1042.21</ele>
        <time>2013-01-09T07:51:02Z</time>
      </trkpt>
      <trkpt lat="45.31723" lon="6.24749">
        <ele>1043.65</ele>
        <time>2013-01-09T07:51:16Z</time>
      </trkpt>
      <trkpt lat="45.31724" lon="6.24747">
        <ele>1044.13</ele>
        <time>2013-01-09T07:51:18Z</time>
      </trkpt>
      <trkpt lat="45.31728" lon="6.2474">
        <ele>1047.49</ele>
        <time>2013-01-09T07:51:32Z</time>
      </trkpt>
      <trkpt lat="45.31731" lon="6.24724">
        <ele>1050.38</ele>
        <time>2013-01-09T07:51:46Z</time>
      </trkpt>
      <trkpt lat="45.31737" lon="6.24711">
        <ele>1053.74</ele>
        <time>2013-01-09T07:52:01Z</time>
      </trkpt>
      <trkpt lat="45.3174" lon="6.24702">
        <ele>1056.15</ele>
        <time>2013-01-09T07:52:19Z</time>
      </trkpt>
      <trkpt lat="45.3174" lon="6.24692">
        <ele>1056.63</ele>
        <time>2013-01-09T07:52:37Z</time>
      </trkpt>
      <trkpt lat="45.3174" lon="6.24688">
        <ele>1056.63</ele>
        <time>2013-01-09T07:52:55Z</time>
      </trkpt>
      <trkpt lat="45.31738" lon="6.24693">
        <ele>1058.07</ele>
        <time>2013-01-09T07:53:17Z</time>
      </trkpt>
      <trkpt lat="45.31745" lon="6.24682">
        <ele>1060.95</ele>
        <time>2013-01-09T07:53:36Z</time>
      </trkpt>
      <trkpt lat="45.31753" lon="6.24669">
        <ele>1063.84</ele>
        <time>2013-01-09T07:53:49Z</time>
      </trkpt>
      <trkpt lat="45.31758" lon="6.24657">
        <ele>1066.24</ele>
        <time>2013-01-09T07:54:01Z</time>
      </trkpt>
      <trkpt lat="45.31765" lon="6.24647">
        <ele>1069.6</ele>
        <time>2013-01-09T07:54:13Z</time>
      </trkpt>
      <trkpt lat="45.31768" lon="6.24644">
        <ele>1070.57</ele>
        <time>2013-01-09T07:54:19Z</time>
      </trkpt>
      <trkpt lat="45.31778" lon="6.24634">
        <ele>1073.93</ele>
        <time>2013-01-09T07:54:36Z</time>
      </trkpt>
      <trkpt lat="45.31785" lon="6.24622">
        <ele>1076.81</ele>
        <time>2013-01-09T07:54:52Z</time>
      </trkpt>
      <trkpt lat="45.31789" lon="6.24614">
        <ele>1080.18</ele>
        <time>2013-01-09T07:55:05Z</time>
      </trkpt>
      <trkpt lat="45.31791" lon="6.24603">
        <ele>1083.06</ele>
        <time>2013-01-09T07:55:18Z</time>
      </trkpt>
      <trkpt lat="45.31795" lon="6.24591">
        <ele>1086.43</ele>
        <time>2013-01-09T07:55:31Z</time>
      </trkpt>
      <trkpt lat="45.31798" lon="6.2458">
        <ele>1088.83</ele>
        <time>2013-01-09T07:55:42Z</time>
      </trkpt>
      <trkpt lat="45.31804" lon="6.24565">
        <ele>1091.71</ele>
        <time>2013-01-09T07:55:57Z</time>
      </trkpt>
      <trkpt lat="45.31806" lon="6.24561">
        <ele>1093.16</ele>
        <time>2013-01-09T07:56:02Z</time>
      </trkpt>
      <trkpt lat="45.3181" lon="6.24547">
        <ele>1095.08</ele>
        <time>2013-01-09T07:56:15Z</time>
      </trkpt>
      <trkpt lat="45.31813" lon="6.24529">
        <ele>1098.44</ele>
        <time>2013-01-09T07:56:33Z</time>
      </trkpt>
      <trkpt lat="45.3182" lon="6.24516">
        <ele>1101.33</ele>
        <time>2013-01-09T07:56:48Z</time>
      </trkpt>
      <trkpt lat="45.31825" lon="6.24504">
        <ele>1104.69</ele>
        <time>2013-01-09T07:57:01Z</time>
      </trkpt>
      <trkpt lat="45.31832" lon="6.24488">
        <ele>1108.06</ele>
        <time>2013-01-09T07:57:16Z</time>
      </trkpt>
      <trkpt lat="45.31835" lon="6.24484">
        <ele>1110.94</ele>
        <time>2013-01-09T07:57:31Z</time>
      </trkpt>
      <trkpt lat="45.31843" lon="6.24467">
        <ele>1113.82</ele>
        <time>2013-01-09T07:57:45Z</time>
      </trkpt>
      <trkpt lat="45.31849" lon="6.24453">
        <ele>1117.19</ele>
        <time>2013-01-09T07:58:02Z</time>
      </trkpt>
      <trkpt lat="45.31854" lon="6.24447">
        <ele>1120.07</ele>
        <time>2013-01-09T07:58:16Z</time>
      </trkpt>
      <trkpt lat="45.31861" lon="6.24441">
        <ele>1123.44</ele>
        <time>2013-01-09T07:58:30Z</time>
      </trkpt>
      <trkpt lat="45.31867" lon="6.24431">
        <ele>1126.32</ele>
        <time>2013-01-09T07:58:45Z</time>
      </trkpt>
      <trkpt lat="45.31875" lon="6.24421">
        <ele>1129.21</ele>
        <time>2013-01-09T07:58:59Z</time>
      </trkpt>
      <trkpt lat="45.31881" lon="6.24412">
        <ele>1132.57</ele>
        <time>2013-01-09T07:59:15Z</time>
      </trkpt>
      <trkpt lat="45.31887" lon="6.24407">
        <ele>1135.45</ele>
        <time>2013-01-09T07:59:28Z</time>
      </trkpt>
      <trkpt lat="45.31894" lon="6.24397">
        <ele>1138.82</ele>
        <time>2013-01-09T07:59:42Z</time>
      </trkpt>
      <trkpt lat="45.31899" lon="6.24391">
        <ele>1141.22</ele>
        <time>2013-01-09T07:59:54Z</time>
      </trkpt>
      <trkpt lat="45.31904" lon="6.24384">
        <ele>1144.11</ele>
        <time>2013-01-09T08:00:09Z</time>
      </trkpt>
      <trkpt lat="45.31911" lon="6.24376">
        <ele>1147.47</ele>
        <time>2013-01-09T08:00:24Z</time>
      </trkpt>
      <trkpt lat="45.31917" lon="6.24364">
        <ele>1149.87</ele>
        <time>2013-01-09T08:00:37Z</time>
      </trkpt>
      <trkpt lat="45.31922" lon="6.24355">
        <ele>1152.76</ele>
        <time>2013-01-09T08:00:49Z</time>
      </trkpt>
      <trkpt lat="45.31924" lon="6.24346">
        <ele>1154.68</ele>
        <time>2013-01-09T08:01:00Z</time>
      </trkpt>
      <trkpt lat="45.31928" lon="6.24327">
        <ele>1157.56</ele>
        <time>2013-01-09T08:01:17Z</time>
      </trkpt>
      <trkpt lat="45.31937" lon="6.24311">
        <ele>1160.45</ele>
        <time>2013-01-09T08:01:34Z</time>
      </trkpt>
      <trkpt lat="45.31942" lon="6.243">
        <ele>1163.81</ele>
        <time>2013-01-09T08:01:46Z</time>
      </trkpt>
      <trkpt lat="45.31947" lon="6.24288">
        <ele>1166.7</ele>
        <time>2013-01-09T08:02:00Z</time>
      </trkpt>
      <trkpt lat="45.31952" lon="6.24279">
        <ele>1169.58</ele>
        <time>2013-01-09T08:02:14Z</time>
      </trkpt>
      <trkpt lat="45.31963" lon="6.24272">
        <ele>1172.47</ele>
        <time>2013-01-09T08:02:29Z</time>
      </trkpt>
      <trkpt lat="45.31968" lon="6.24262">
        <ele>1174.87</ele>
        <time>2013-01-09T08:02:45Z</time>
      </trkpt>
      <trkpt lat="45.31976" lon="6.24261">
        <ele>1175.83</ele>
        <time>2013-01-09T08:02:54Z</time>
      </trkpt>
      <trkpt lat="45.31981" lon="6.24253">
        <ele>1176.79</ele>
        <time>2013-01-09T08:03:02Z</time>
      </trkpt>
      <trkpt lat="45.31997" lon="6.24236">
        <ele>1179.19</ele>
        <time>2013-01-09T08:03:21Z</time>
      </trkpt>
      <trkpt lat="45.31998" lon="6.24235">
        <ele>1179.19</ele>
        <time>2013-01-09T08:03:22Z</time>
      </trkpt>
      <trkpt lat="45.32" lon="6.24234">
        <ele>1179.67</ele>
        <time>2013-01-09T08:03:25Z</time>
      </trkpt>
      <trkpt lat="45.32003" lon="6.24227">
        <ele>1180.64</ele>
        <time>2013-01-09T08:03:31Z</time>
      </trkpt>
      <trkpt lat="45.32009" lon="6.24214">
        <ele>1183.04</ele>
        <time>2013-01-09T08:03:44Z</time>
      </trkpt>
      <trkpt lat="45.32014" lon="6.24206">
        <ele>1184.96</ele>
        <time>2013-01-09T08:03:53Z</time>
      </trkpt>
      <trkpt lat="45.32017" lon="6.24199">
        <ele>1187.37</ele>
        <time>2013-01-09T08:04:04Z</time>
      </trkpt>
      <trkpt lat="45.32022" lon="6.24193">
        <ele>1189.29</ele>
        <time>2013-01-09T08:04:15Z</time>
      </trkpt>
      <trkpt lat="45.32026" lon="6.24185">
        <ele>1191.69</ele>
        <time>2013-01-09T08:04:27Z</time>
      </trkpt>
      <trkpt lat="45.32031" lon="6.24177">
        <ele>1195.06</ele>
        <time>2013-01-09T08:04:42Z</time>
      </trkpt>
      <trkpt lat="45.32036" lon="6.24168">
        <ele>1197.46</ele>
        <time>2013-01-09T08:04:57Z</time>
      </trkpt>
      <trkpt lat="45.32041" lon="6.24159">
        <ele>1200.34</ele>
        <time>2013-01-09T08:05:11Z</time>
      </trkpt>
      <trkpt lat="45.32046" lon="6.24151">
        <ele>1203.23</ele>
        <time>2013-01-09T08:05:24Z</time>
      </trkpt>
      <trkpt lat="45.32051" lon="6.24142">
        <ele>1205.63</ele>
        <time>2013-01-09T08:05:38Z</time>
      </trkpt>
      <trkpt lat="45.32055" lon="6.24135">
        <ele>1208.03</ele>
        <time>2013-01-09T08:05:49Z</time>
      </trkpt>
      <trkpt lat="45.32061" lon="6.24129">
        <ele>1209.96</ele>
        <time>2013-01-09T08:06:00Z</time>
      </trkpt>
      <trkpt lat="45.32071" lon="6.24117">
        <ele>1212.84</ele>
        <time>2013-01-09T08:06:17Z</time>
      </trkpt>
      <trkpt lat="45.32077" lon="6.24109">
        <ele>1215.72</ele>
        <time>2013-01-09T08:06:31Z</time>
      </trkpt>
      <trkpt lat="45.32085" lon="6.24094">
        <ele>1218.13</ele>
        <time>2013-01-09T08:06:45Z</time>
      </trkpt>
      <trkpt lat="45.32092" lon="6.24082">
        <ele>1220.05</ele>
        <time>2013-01-09T08:06:57Z</time>
      </trkpt>
      <trkpt lat="45.321" lon="6.24069">
        <ele>1222.93</ele>
        <time>2013-01-09T08:07:12Z</time>
      </trkpt>
      <trkpt lat="45.32106" lon="6.24059">
        <ele>1224.86</ele>
        <time>2013-01-09T08:07:25Z</time>
      </trkpt>
      <trkpt lat="45.32111" lon="6.24051">
        <ele>1227.26</ele>
        <time>2013-01-09T08:07:37Z</time>
      </trkpt>
      <trkpt lat="45.32115" lon="6.24042">
        <ele>1229.66</ele>
        <time>2013-01-09T08:07:49Z</time>
      </trkpt>
      <trkpt lat="45.32116" lon="6.24041">
        <ele>1230.14</ele>
        <time>2013-01-09T08:07:52Z</time>
      </trkpt>
      <trkpt lat="45.3212" lon="6.24035">
        <ele>1231.59</ele>
        <time>2013-01-09T08:08:01Z</time>
      </trkpt>
      <trkpt lat="45.32125" lon="6.24027">
        <ele>1234.47</ele>
        <time>2013-01-09T08:08:14Z</time>
      </trkpt>
      <trkpt lat="45.32129" lon="6.24019">
        <ele>1236.87</ele>
        <time>2013-01-09T08:08:26Z</time>
      </trkpt>
      <trkpt lat="45.32132" lon="6.24016">
        <ele>1237.83</ele>
        <time>2013-01-09T08:08:32Z</time>
      </trkpt>
      <trkpt lat="45.32138" lon="6.24005">
        <ele>1240.24</ele>
        <time>2013-01-09T08:08:43Z</time>
      </trkpt>
      <trkpt lat="45.32141" lon="6.23998">
        <ele>1241.68</ele>
        <time>2013-01-09T08:08:53Z</time>
      </trkpt>
      <trkpt lat="45.32147" lon="6.2399">
        <ele>1244.08</ele>
        <time>2013-01-09T08:09:06Z</time>
      </trkpt>
      <trkpt lat="45.32153" lon="6.23985">
        <ele>1246.01</ele>
        <time>2013-01-09T08:09:17Z</time>
      </trkpt>
      <trkpt lat="45.32158" lon="6.2398">
        <ele>1247.45</ele>
        <time>2013-01-09T08:09:28Z</time>
      </trkpt>
      <trkpt lat="45.32165" lon="6.23975">
        <ele>1249.85</ele>
        <time>2013-01-09T08:09:39Z</time>
      </trkpt>
      <trkpt lat="45.32171" lon="6.23969">
        <ele>1253.22</ele>
        <time>2013-01-09T08:09:53Z</time>
      </trkpt>
      <trkpt lat="45.32176" lon="6.23966">
        <ele>1255.62</ele>
        <time>2013-01-09T08:10:08Z</time>
      </trkpt>
      <trkpt lat="45.32183" lon="6.23959">
        <ele>1258.5</ele>
        <time>2013-01-09T08:10:26Z</time>
      </trkpt>
      <trkpt lat="45.32188" lon="6.23952">
        <ele>1260.43</ele>
        <time>2013-01-09T08:10:37Z</time>
      </trkpt>
      <trkpt lat="45.32189" lon="6.2395">
        <ele>1261.39</ele>
        <time>2013-01-09T08:10:41Z</time>
      </trkpt>
      <trkpt lat="45.32191" lon="6.23951">
        <ele>1262.35</ele>
        <time>2013-01-09T08:10:49Z</time>
      </trkpt>
      <trkpt lat="45.32194" lon="6.23945">
        <ele>1264.75</ele>
        <time>2013-01-09T08:11:00Z</time>
      </trkpt>
      <trkpt lat="45.32198" lon="6.2394">
        <ele>1266.67</ele>
        <time>2013-01-09T08:11:15Z</time>
      </trkpt>
      <trkpt lat="45.32201" lon="6.23935">
        <ele>1268.6</ele>
        <time>2013-01-09T08:11:27Z</time>
      </trkpt>
      <trkpt lat="45.32206" lon="6.23928">
        <ele>1271.48</ele>
        <time>2013-01-09T08:11:41Z</time>
      </trkpt>
      <trkpt lat="45.32209" lon="6.23926">
        <ele>1272.44</ele>
        <time>2013-01-09T08:11:48Z</time>
      </trkpt>
      <trkpt lat="45.32216" lon="6.23921">
        <ele>1275.33</ele>
        <time>2013-01-09T08:12:04Z</time>
      </trkpt>
      <trkpt lat="45.32224" lon="6.23914">
        <ele>1277.73</ele>
        <time>2013-01-09T08:12:16Z</time>
      </trkpt>
      <trkpt lat="45.32228" lon="6.23909">
        <ele>1280.13</ele>
        <time>2013-01-09T08:12:27Z</time>
      </trkpt>
      <trkpt lat="45.32231" lon="6.23904">
        <ele>1282.06</ele>
        <time>2013-01-09T08:12:37Z</time>
      </trkpt>
      <trkpt lat="45.32235" lon="6.23901">
        <ele>1283.98</ele>
        <time>2013-01-09T08:12:50Z</time>
      </trkpt>
      <trkpt lat="45.3224" lon="6.23893">
        <ele>1286.38</ele>
        <time>2013-01-09T08:13:01Z</time>
      </trkpt>
      <trkpt lat="45.32246" lon="6.23889">
        <ele>1289.27</ele>
        <time>2013-01-09T08:13:15Z</time>
      </trkpt>
      <trkpt lat="45.3225" lon="6.23887">
        <ele>1290.71</ele>
        <time>2013-01-09T08:13:23Z</time>
      </trkpt>
      <trkpt lat="45.32251" lon="6.23883">
        <ele>1292.15</ele>
        <time>2013-01-09T08:13:31Z</time>
      </trkpt>
      <trkpt lat="45.32256" lon="6.23882">
        <ele>1293.59</ele>
        <time>2013-01-09T08:13:41Z</time>
      </trkpt>
      <trkpt lat="45.32258" lon="6.2388">
        <ele>1294.07</ele>
        <time>2013-01-09T08:13:44Z</time>
      </trkpt>
      <trkpt lat="45.32264" lon="6.23875">
        <ele>1295.51</ele>
        <time>2013-01-09T08:13:53Z</time>
      </trkpt>
      <trkpt lat="45.32268" lon="6.23875">
        <ele>1297.44</ele>
        <time>2013-01-09T08:14:01Z</time>
      </trkpt>
      <trkpt lat="45.32274" lon="6.23871">
        <ele>1299.36</ele>
        <time>2013-01-09T08:14:10Z</time>
      </trkpt>
      <trkpt lat="45.32278" lon="6.23868">
        <ele>1300.32</ele>
        <time>2013-01-09T08:14:18Z</time>
      </trkpt>
      <trkpt lat="45.32282" lon="6.23866">
        <ele>1300.32</ele>
        <time>2013-01-09T08:14:23Z</time>
      </trkpt>
      <trkpt lat="45.32285" lon="6.23863">
        <ele>1301.76</ele>
        <time>2013-01-09T08:14:28Z</time>
      </trkpt>
      <trkpt lat="45.32291" lon="6.2386">
        <ele>1302.72</ele>
        <time>2013-01-09T08:14:34Z</time>
      </trkpt>
      <trkpt lat="45.32297" lon="6.23855">
        <ele>1304.65</ele>
        <time>2013-01-09T08:14:43Z</time>
      </trkpt>
      <trkpt lat="45.32307" lon="6.23851">
        <ele>1307.53</ele>
        <time>2013-01-09T08:14:57Z</time>
      </trkpt>
      <trkpt lat="45.3231" lon="6.2385">
        <ele>1307.53</ele>
        <time>2013-01-09T08:15:00Z</time>
      </trkpt>
      <trkpt lat="45.32319" lon="6.23838">
        <ele>1308.97</ele>
        <time>2013-01-09T08:15:14Z</time>
      </trkpt>
      <trkpt lat="45.32325" lon="6.2383">
        <ele>1310.9</ele>
        <time>2013-01-09T08:15:23Z</time>
      </trkpt>
      <trkpt lat="45.32326" lon="6.23828">
        <ele>1311.38</ele>
        <time>2013-01-09T08:15:26Z</time>
      </trkpt>
      <trkpt lat="45.32332" lon="6.23819">
        <ele>1313.3</ele>
        <time>2013-01-09T08:15:37Z</time>
      </trkpt>
      <trkpt lat="45.32338" lon="6.2381">
        <ele>1315.7</ele>
        <time>2013-01-09T08:15:51Z</time>
      </trkpt>
      <trkpt lat="45.32344" lon="6.23801">
        <ele>1317.62</ele>
        <time>2013-01-09T08:16:04Z</time>
      </trkpt>
      <trkpt lat="45.32347" lon="6.23793">
        <ele>1320.03</ele>
        <time>2013-01-09T08:16:16Z</time>
      </trkpt>
      <trkpt lat="45.32352" lon="6.23785">
        <ele>1321.95</ele>
        <time>2013-01-09T08:16:29Z</time>
      </trkpt>
      <trkpt lat="45.32355" lon="6.23778">
        <ele>1323.87</ele>
        <time>2013-01-09T08:16:38Z</time>
      </trkpt>
      <trkpt lat="45.3236" lon="6.2377">
        <ele>1326.76</ele>
        <time>2013-01-09T08:16:50Z</time>
      </trkpt>
      <trkpt lat="45.32363" lon="6.23766">
        <ele>1328.68</ele>
        <time>2013-01-09T08:17:01Z</time>
      </trkpt>
      <trkpt lat="45.32366" lon="6.23762">
        <ele>1330.12</ele>
        <time>2013-01-09T08:17:11Z</time>
      </trkpt>
      <trkpt lat="45.32368" lon="6.23758">
        <ele>1330.6</ele>
        <time>2013-01-09T08:17:16Z</time>
      </trkpt>
      <trkpt lat="45.32373" lon="6.23747">
        <ele>1333.97</ele>
        <time>2013-01-09T08:17:30Z</time>
      </trkpt>
      <trkpt lat="45.3238" lon="6.23751">
        <ele>1333.97</ele>
        <time>2013-01-09T08:17:37Z</time>
      </trkpt>
      <trkpt lat="45.32382" lon="6.23751">
        <ele>1333.97</ele>
        <time>2013-01-09T08:17:39Z</time>
      </trkpt>
      <trkpt lat="45.32387" lon="6.23749">
        <ele>1335.89</ele>
        <time>2013-01-09T08:17:51Z</time>
      </trkpt>
      <trkpt lat="45.32391" lon="6.23738">
        <ele>1338.29</ele>
        <time>2013-01-09T08:18:06Z</time>
      </trkpt>
      <trkpt lat="45.32394" lon="6.23725">
        <ele>1341.66</ele>
        <time>2013-01-09T08:18:21Z</time>
      </trkpt>
      <trkpt lat="45.32395" lon="6.23724">
        <ele>1341.66</ele>
        <time>2013-01-09T08:18:22Z</time>
      </trkpt>
      <trkpt lat="45.32396" lon="6.23721">
        <ele>1342.14</ele>
        <time>2013-01-09T08:18:25Z</time>
      </trkpt>
      <trkpt lat="45.32405" lon="6.23715">
        <ele>1344.54</ele>
        <time>2013-01-09T08:18:37Z</time>
      </trkpt>
      <trkpt lat="45.3241" lon="6.23716">
        <ele>1345.98</ele>
        <time>2013-01-09T08:18:48Z</time>
      </trkpt>
      <trkpt lat="45.32411" lon="6.23712">
        <ele>1347.43</ele>
        <time>2013-01-09T08:19:00Z</time>
      </trkpt>
      <trkpt lat="45.32415" lon="6.23707">
        <ele>1349.35</ele>
        <time>2013-01-09T08:19:10Z</time>
      </trkpt>
      <trkpt lat="45.32415" lon="6.23702">
        <ele>1350.31</ele>
        <time>2013-01-09T08:19:16Z</time>
      </trkpt>
      <trkpt lat="45.32422" lon="6.23695">
        <ele>1352.71</ele>
        <time>2013-01-09T08:19:29Z</time>
      </trkpt>
      <trkpt lat="45.32426" lon="6.23685">
        <ele>1355.12</ele>
        <time>2013-01-09T08:19:42Z</time>
      </trkpt>
      <trkpt lat="45.3243" lon="6.23677">
        <ele>1358</ele>
        <time>2013-01-09T08:19:55Z</time>
      </trkpt>
      <trkpt lat="45.32435" lon="6.23671">
        <ele>1359.92</ele>
        <time>2013-01-09T08:20:06Z</time>
      </trkpt>
      <trkpt lat="45.32439" lon="6.23663">
        <ele>1362.81</ele>
        <time>2013-01-09T08:20:19Z</time>
      </trkpt>
      <trkpt lat="45.32441" lon="6.23652">
        <ele>1365.21</ele>
        <time>2013-01-09T08:20:32Z</time>
      </trkpt>
      <trkpt lat="45.32441" lon="6.23649">
        <ele>1365.69</ele>
        <time>2013-01-09T08:20:35Z</time>
      </trkpt>
      <trkpt lat="45.32444" lon="6.23645">
        <ele>1366.65</ele>
        <time>2013-01-09T08:20:40Z</time>
      </trkpt>
      <trkpt lat="45.32445" lon="6.23641">
        <ele>1367.61</ele>
        <time>2013-01-09T08:20:45Z</time>
      </trkpt>
      <trkpt lat="45.32449" lon="6.23637">
        <ele>1369.05</ele>
        <time>2013-01-09T08:20:51Z</time>
      </trkpt>
      <trkpt lat="45.32455" lon="6.23644">
        <ele>1370.5</ele>
        <time>2013-01-09T08:21:03Z</time>
      </trkpt>
      <trkpt lat="45.32458" lon="6.23649">
        <ele>1371.46</ele>
        <time>2013-01-09T08:21:11Z</time>
      </trkpt>
      <trkpt lat="45.32461" lon="6.23651">
        <ele>1371.94</ele>
        <time>2013-01-09T08:21:15Z</time>
      </trkpt>
      <trkpt lat="45.32464" lon="6.23665">
        <ele>1373.86</ele>
        <time>2013-01-09T08:21:28Z</time>
      </trkpt>
      <trkpt lat="45.32467" lon="6.23675">
        <ele>1375.78</ele>
        <time>2013-01-09T08:21:42Z</time>
      </trkpt>
      <trkpt lat="45.32469" lon="6.2368">
        <ele>1378.19</ele>
        <time>2013-01-09T08:21:56Z</time>
      </trkpt>
      <trkpt lat="45.32471" lon="6.23679">
        <ele>1380.11</ele>
        <time>2013-01-09T08:22:08Z</time>
      </trkpt>
      <trkpt lat="45.32476" lon="6.23674">
        <ele>1382.51</ele>
        <time>2013-01-09T08:22:18Z</time>
      </trkpt>
      <trkpt lat="45.3248" lon="6.23668">
        <ele>1383.96</ele>
        <time>2013-01-09T08:22:27Z</time>
      </trkpt>
      <trkpt lat="45.32483" lon="6.23662">
        <ele>1386.36</ele>
        <time>2013-01-09T08:22:38Z</time>
      </trkpt>
      <trkpt lat="45.32485" lon="6.23657">
        <ele>1387.8</ele>
        <time>2013-01-09T08:22:48Z</time>
      </trkpt>
      <trkpt lat="45.32488" lon="6.23653">
        <ele>1389.72</ele>
        <time>2013-01-09T08:22:58Z</time>
      </trkpt>
      <trkpt lat="45.32489" lon="6.23645">
        <ele>1391.17</ele>
        <time>2013-01-09T08:23:08Z</time>
      </trkpt>
      <trkpt lat="45.32492" lon="6.23638">
        <ele>1392.13</ele>
        <time>2013-01-09T08:23:15Z</time>
      </trkpt>
      <trkpt lat="45.32495" lon="6.23628">
        <ele>1394.53</ele>
        <time>2013-01-09T08:23:30Z</time>
      </trkpt>
      <trkpt lat="45.32501" lon="6.23608">
        <ele>1395.49</ele>
        <time>2013-01-09T08:23:44Z</time>
      </trkpt>
      <trkpt lat="45.32504" lon="6.23599">
        <ele>1396.93</ele>
        <time>2013-01-09T08:23:53Z</time>
      </trkpt>
      <trkpt lat="45.32504" lon="6.23591">
        <ele>1398.86</ele>
        <time>2013-01-09T08:24:03Z</time>
      </trkpt>
      <trkpt lat="45.32509" lon="6.23581">
        <ele>1401.74</ele>
        <time>2013-01-09T08:24:17Z</time>
      </trkpt>
      <trkpt lat="45.32512" lon="6.23574">
        <ele>1403.18</ele>
        <time>2013-01-09T08:24:27Z</time>
      </trkpt>
      <trkpt lat="45.32515" lon="6.2357">
        <ele>1405.1</ele>
        <time>2013-01-09T08:24:36Z</time>
      </trkpt>
      <trkpt lat="45.32515" lon="6.23563">
        <ele>1406.55</ele>
        <time>2013-01-09T08:24:46Z</time>
      </trkpt>
      <trkpt lat="45.3252" lon="6.23554">
        <ele>1409.43</ele>
        <time>2013-01-09T08:24:59Z</time>
      </trkpt>
      <trkpt lat="45.32522" lon="6.2355">
        <ele>1410.87</ele>
        <time>2013-01-09T08:25:07Z</time>
      </trkpt>
      <trkpt lat="45.32524" lon="6.23545">
        <ele>1412.79</ele>
        <time>2013-01-09T08:25:17Z</time>
      </trkpt>
      <trkpt lat="45.32523" lon="6.23542">
        <ele>1413.28</ele>
        <time>2013-01-09T08:25:22Z</time>
      </trkpt>
      <trkpt lat="45.32524" lon="6.23539">
        <ele>1414.24</ele>
        <time>2013-01-09T08:25:25Z</time>
      </trkpt>
      <trkpt lat="45.32525" lon="6.23532">
        <ele>1416.16</ele>
        <time>2013-01-09T08:25:34Z</time>
      </trkpt>
      <trkpt lat="45.32528" lon="6.23523">
        <ele>1419.04</ele>
        <time>2013-01-09T08:25:49Z</time>
      </trkpt>
      <trkpt lat="45.32528" lon="6.23517">
        <ele>1420</ele>
        <time>2013-01-09T08:25:57Z</time>
      </trkpt>
      <trkpt lat="45.32529" lon="6.23503">
        <ele>1422.89</ele>
        <time>2013-01-09T08:26:10Z</time>
      </trkpt>
      <trkpt lat="45.3253" lon="6.23494">
        <ele>1424.33</ele>
        <time>2013-01-09T08:26:20Z</time>
      </trkpt>
      <trkpt lat="45.3253" lon="6.23492">
        <ele>1424.81</ele>
        <time>2013-01-09T08:26:22Z</time>
      </trkpt>
      <trkpt lat="45.32531" lon="6.23481">
        <ele>1427.21</ele>
        <time>2013-01-09T08:26:37Z</time>
      </trkpt>
      <trkpt lat="45.32531" lon="6.23477">
        <ele>1428.18</ele>
        <time>2013-01-09T08:26:41Z</time>
      </trkpt>
      <trkpt lat="45.32532" lon="6.23472">
        <ele>1428.66</ele>
        <time>2013-01-09T08:26:45Z</time>
      </trkpt>
      <trkpt lat="45.32532" lon="6.23469">
        <ele>1430.1</ele>
        <time>2013-01-09T08:26:52Z</time>
      </trkpt>
      <trkpt lat="45.32536" lon="6.23464">
        <ele>1432.02</ele>
        <time>2013-01-09T08:27:03Z</time>
      </trkpt>
      <trkpt lat="45.32538" lon="6.23464">
        <ele>1432.98</ele>
        <time>2013-01-09T08:27:06Z</time>
      </trkpt>
      <trkpt lat="45.32541" lon="6.23464">
        <ele>1433.46</ele>
        <time>2013-01-09T08:27:11Z</time>
      </trkpt>
      <trkpt lat="45.32548" lon="6.23472">
        <ele>1435.87</ele>
        <time>2013-01-09T08:27:25Z</time>
      </trkpt>
      <trkpt lat="45.32552" lon="6.23473">
        <ele>1437.31</ele>
        <time>2013-01-09T08:27:36Z</time>
      </trkpt>
      <trkpt lat="45.32553" lon="6.23466">
        <ele>1439.23</ele>
        <time>2013-01-09T08:27:48Z</time>
      </trkpt>
      <trkpt lat="45.32554" lon="6.23457">
        <ele>1442.11</ele>
        <time>2013-01-09T08:28:01Z</time>
      </trkpt>
      <trkpt lat="45.32553" lon="6.23452">
        <ele>1443.56</ele>
        <time>2013-01-09T08:28:08Z</time>
      </trkpt>
      <trkpt lat="45.32555" lon="6.23446">
        <ele>1445.48</ele>
        <time>2013-01-09T08:28:22Z</time>
      </trkpt>
      <trkpt lat="45.32551" lon="6.23428">
        <ele>1447.4</ele>
        <time>2013-01-09T08:28:38Z</time>
      </trkpt>
      <trkpt lat="45.32551" lon="6.23417">
        <ele>1449.81</ele>
        <time>2013-01-09T08:28:50Z</time>
      </trkpt>
      <trkpt lat="45.32552" lon="6.23405">
        <ele>1452.21</ele>
        <time>2013-01-09T08:29:01Z</time>
      </trkpt>
      <trkpt lat="45.32551" lon="6.23395">
        <ele>1452.69</ele>
        <time>2013-01-09T08:29:10Z</time>
      </trkpt>
      <trkpt lat="45.32549" lon="6.23389">
        <ele>1454.61</ele>
        <time>2013-01-09T08:29:20Z</time>
      </trkpt>
      <trkpt lat="45.32547" lon="6.23382">
        <ele>1456.53</ele>
        <time>2013-01-09T08:29:31Z</time>
      </trkpt>
      <trkpt lat="45.32549" lon="6.23373">
        <ele>1459.42</ele>
        <time>2013-01-09T08:29:43Z</time>
      </trkpt>
      <trkpt lat="45.32554" lon="6.23362">
        <ele>1462.3</ele>
        <time>2013-01-09T08:30:01Z</time>
      </trkpt>
      <trkpt lat="45.32557" lon="6.23351">
        <ele>1465.19</ele>
        <time>2013-01-09T08:30:17Z</time>
      </trkpt>
      <trkpt lat="45.32562" lon="6.23339">
        <ele>1468.07</ele>
        <time>2013-01-09T08:30:34Z</time>
      </trkpt>
      <trkpt lat="45.32564" lon="6.23334">
        <ele>1469.03</ele>
        <time>2013-01-09T08:30:46Z</time>
      </trkpt>
      <trkpt lat="45.32564" lon="6.23328">
        <ele>1470.47</ele>
        <time>2013-01-09T08:30:54Z</time>
      </trkpt>
      <trkpt lat="45.32568" lon="6.23324">
        <ele>1471.92</ele>
        <time>2013-01-09T08:31:04Z</time>
      </trkpt>
      <trkpt lat="45.32574" lon="6.23321">
        <ele>1474.32</ele>
        <time>2013-01-09T08:31:16Z</time>
      </trkpt>
      <trkpt lat="45.32574" lon="6.23314">
        <ele>1475.28</ele>
        <time>2013-01-09T08:31:28Z</time>
      </trkpt>
      <trkpt lat="45.32575" lon="6.23305">
        <ele>1477.2</ele>
        <time>2013-01-09T08:31:37Z</time>
      </trkpt>
      <trkpt lat="45.32575" lon="6.23292">
        <ele>1479.61</ele>
        <time>2013-01-09T08:31:50Z</time>
      </trkpt>
      <trkpt lat="45.32576" lon="6.23285">
        <ele>1481.05</ele>
        <time>2013-01-09T08:31:57Z</time>
      </trkpt>
      <trkpt lat="45.32578" lon="6.2328">
        <ele>1483.45</ele>
        <time>2013-01-09T08:32:05Z</time>
      </trkpt>
      <trkpt lat="45.32581" lon="6.23269">
        <ele>1484.89</ele>
        <time>2013-01-09T08:32:16Z</time>
      </trkpt>
      <trkpt lat="45.3258" lon="6.23267">
        <ele>1485.37</ele>
        <time>2013-01-09T08:32:20Z</time>
      </trkpt>
      <trkpt lat="45.32575" lon="6.23249">
        <ele>1486.82</ele>
        <time>2013-01-09T08:32:37Z</time>
      </trkpt>
      <trkpt lat="45.3257" lon="6.23236">
        <ele>1488.26</ele>
        <time>2013-01-09T08:32:50Z</time>
      </trkpt>
      <trkpt lat="45.32563" lon="6.23222">
        <ele>1490.18</ele>
        <time>2013-01-09T08:33:02Z</time>
      </trkpt>
      <trkpt lat="45.32561" lon="6.23219">
        <ele>1490.66</ele>
        <time>2013-01-09T08:33:05Z</time>
      </trkpt>
      <trkpt lat="45.32555" lon="6.23203">
        <ele>1491.62</ele>
        <time>2013-01-09T08:33:18Z</time>
      </trkpt>
      <trkpt lat="45.32545" lon="6.23187">
        <ele>1494.51</ele>
        <time>2013-01-09T08:33:35Z</time>
      </trkpt>
      <trkpt lat="45.32538" lon="6.23173">
        <ele>1495.95</ele>
        <time>2013-01-09T08:33:49Z</time>
      </trkpt>
      <trkpt lat="45.32541" lon="6.23158">
        <ele>1497.87</ele>
        <time>2013-01-09T08:34:06Z</time>
      </trkpt>
      <trkpt lat="45.32545" lon="6.23161">
        <ele>1498.35</ele>
        <time>2013-01-09T08:34:11Z</time>
      </trkpt>
      <trkpt lat="45.32552" lon="6.23163">
        <ele>1500.27</ele>
        <time>2013-01-09T08:34:26Z</time>
      </trkpt>
      <trkpt lat="45.32553" lon="6.23153">
        <ele>1502.2</ele>
        <time>2013-01-09T08:34:37Z</time>
      </trkpt>
      <trkpt lat="45.32547" lon="6.2314">
        <ele>1504.6</ele>
        <time>2013-01-09T08:34:51Z</time>
      </trkpt>
      <trkpt lat="45.32544" lon="6.23126">
        <ele>1506.04</ele>
        <time>2013-01-09T08:35:02Z</time>
      </trkpt>
      <trkpt lat="45.32536" lon="6.23102">
        <ele>1507.97</ele>
        <time>2013-01-09T08:35:22Z</time>
      </trkpt>
      <trkpt lat="45.32533" lon="6.23085">
        <ele>1510.37</ele>
        <time>2013-01-09T08:35:37Z</time>
      </trkpt>
      <trkpt lat="45.32529" lon="6.23067">
        <ele>1513.25</ele>
        <time>2013-01-09T08:35:52Z</time>
      </trkpt>
      <trkpt lat="45.32522" lon="6.23044">
        <ele>1515.18</ele>
        <time>2013-01-09T08:36:10Z</time>
      </trkpt>
      <trkpt lat="45.32509" lon="6.2303">
        <ele>1517.58</ele>
        <time>2013-01-09T08:36:28Z</time>
      </trkpt>
      <trkpt lat="45.32498" lon="6.23017">
        <ele>1519.98</ele>
        <time>2013-01-09T08:36:45Z</time>
      </trkpt>
      <trkpt lat="45.32482" lon="6.23013">
        <ele>1521.9</ele>
        <time>2013-01-09T08:37:02Z</time>
      </trkpt>
      <trkpt lat="45.32481" lon="6.23013">
        <ele>1521.9</ele>
        <time>2013-01-09T08:37:03Z</time>
      </trkpt>
      <trkpt lat="45.32478" lon="6.23032">
        <ele>1522.87</ele>
        <time>2013-01-09T08:37:20Z</time>
      </trkpt>
      <trkpt lat="45.32471" lon="6.23042">
        <ele>1524.31</ele>
        <time>2013-01-09T08:37:36Z</time>
      </trkpt>
      <trkpt lat="45.3247" lon="6.23042">
        <ele>1524.79</ele>
        <time>2013-01-09T08:37:37Z</time>
      </trkpt>
      <trkpt lat="45.3247" lon="6.23028">
        <ele>1526.23</ele>
        <time>2013-01-09T08:37:51Z</time>
      </trkpt>
      <trkpt lat="45.32469" lon="6.23021">
        <ele>1527.67</ele>
        <time>2013-01-09T08:37:57Z</time>
      </trkpt>
      <trkpt lat="45.32466" lon="6.22997">
        <ele>1530.08</ele>
        <time>2013-01-09T08:38:16Z</time>
      </trkpt>
      <trkpt lat="45.32465" lon="6.22979">
        <ele>1532</ele>
        <time>2013-01-09T08:38:30Z</time>
      </trkpt>
      <trkpt lat="45.32462" lon="6.22957">
        <ele>1533.92</ele>
        <time>2013-01-09T08:38:48Z</time>
      </trkpt>
      <trkpt lat="45.3246" lon="6.22939">
        <ele>1535.84</ele>
        <time>2013-01-09T08:39:02Z</time>
      </trkpt>
      <trkpt lat="45.32457" lon="6.22927">
        <ele>1537.29</ele>
        <time>2013-01-09T08:39:12Z</time>
      </trkpt>
      <trkpt lat="45.32455" lon="6.22911">
        <ele>1539.21</ele>
        <time>2013-01-09T08:39:25Z</time>
      </trkpt>
      <trkpt lat="45.32454" lon="6.22897">
        <ele>1541.13</ele>
        <time>2013-01-09T08:39:38Z</time>
      </trkpt>
      <trkpt lat="45.32454" lon="6.22892">
        <ele>1541.13</ele>
        <time>2013-01-09T08:39:41Z</time>
      </trkpt>
      <trkpt lat="45.32454" lon="6.2288">
        <ele>1543.05</ele>
        <time>2013-01-09T08:39:51Z</time>
      </trkpt>
      <trkpt lat="45.32455" lon="6.22857">
        <ele>1545.46</ele>
        <time>2013-01-09T08:40:10Z</time>
      </trkpt>
      <trkpt lat="45.32452" lon="6.22844">
        <ele>1546.9</ele>
        <time>2013-01-09T08:40:21Z</time>
      </trkpt>
      <trkpt lat="45.32447" lon="6.22819">
        <ele>1549.78</ele>
        <time>2013-01-09T08:40:41Z</time>
      </trkpt>
      <trkpt lat="45.32446" lon="6.2279">
        <ele>1552.67</ele>
        <time>2013-01-09T08:41:01Z</time>
      </trkpt>
      <trkpt lat="45.32449" lon="6.22775">
        <ele>1554.11</ele>
        <time>2013-01-09T08:41:19Z</time>
      </trkpt>
      <trkpt lat="45.32453" lon="6.22756">
        <ele>1555.55</ele>
        <time>2013-01-09T08:41:35Z</time>
      </trkpt>
      <trkpt lat="45.32453" lon="6.22734">
        <ele>1558.92</ele>
        <time>2013-01-09T08:41:53Z</time>
      </trkpt>
      <trkpt lat="45.32447" lon="6.22726">
        <ele>1560.36</ele>
        <time>2013-01-09T08:42:07Z</time>
      </trkpt>
      <trkpt lat="45.32439" lon="6.22738">
        <ele>1561.8</ele>
        <time>2013-01-09T08:42:21Z</time>
      </trkpt>
      <trkpt lat="45.3243" lon="6.22752">
        <ele>1563.72</ele>
        <time>2013-01-09T08:42:36Z</time>
      </trkpt>
      <trkpt lat="45.32417" lon="6.22774">
        <ele>1566.61</ele>
        <time>2013-01-09T08:42:59Z</time>
      </trkpt>
      <trkpt lat="45.32414" lon="6.22784">
        <ele>1568.05</ele>
        <time>2013-01-09T08:43:08Z</time>
      </trkpt>
      <trkpt lat="45.32411" lon="6.22799">
        <ele>1569.49</ele>
        <time>2013-01-09T08:43:23Z</time>
      </trkpt>
      <trkpt lat="45.32409" lon="6.22817">
        <ele>1570.93</ele>
        <time>2013-01-09T08:43:36Z</time>
      </trkpt>
      <trkpt lat="45.32408" lon="6.22836">
        <ele>1572.85</ele>
        <time>2013-01-09T08:43:50Z</time>
      </trkpt>
      <trkpt lat="45.32404" lon="6.22858">
        <ele>1573.82</ele>
        <time>2013-01-09T08:44:04Z</time>
      </trkpt>
      <trkpt lat="45.32403" lon="6.22874">
        <ele>1575.74</ele>
        <time>2013-01-09T08:44:17Z</time>
      </trkpt>
      <trkpt lat="45.324" lon="6.22887">
        <ele>1577.18</ele>
        <time>2013-01-09T08:44:30Z</time>
      </trkpt>
      <trkpt lat="45.32398" lon="6.22908">
        <ele>1579.1</ele>
        <time>2013-01-09T08:44:47Z</time>
      </trkpt>
      <trkpt lat="45.32393" lon="6.22927">
        <ele>1581.99</ele>
        <time>2013-01-09T08:45:03Z</time>
      </trkpt>
      <trkpt lat="45.32392" lon="6.22932">
        <ele>1582.95</ele>
        <time>2013-01-09T08:45:08Z</time>
      </trkpt>
      <trkpt lat="45.32388" lon="6.22952">
        <ele>1585.35</ele>
        <time>2013-01-09T08:45:26Z</time>
      </trkpt>
      <trkpt lat="45.32386" lon="6.22951">
        <ele>1585.35</ele>
        <time>2013-01-09T08:45:28Z</time>
      </trkpt>
      <trkpt lat="45.32382" lon="6.22938">
        <ele>1587.75</ele>
        <time>2013-01-09T08:45:42Z</time>
      </trkpt>
      <trkpt lat="45.32382" lon="6.22937">
        <ele>1587.75</ele>
        <time>2013-01-09T08:45:43Z</time>
      </trkpt>
      <trkpt lat="45.32381" lon="6.22916">
        <ele>1590.16</ele>
        <time>2013-01-09T08:46:01Z</time>
      </trkpt>
      <trkpt lat="45.32378" lon="6.22896">
        <ele>1593.04</ele>
        <time>2013-01-09T08:46:19Z</time>
      </trkpt>
      <trkpt lat="45.32375" lon="6.22876">
        <ele>1594.48</ele>
        <time>2013-01-09T08:46:33Z</time>
      </trkpt>
      <trkpt lat="45.3237" lon="6.22851">
        <ele>1596.89</ele>
        <time>2013-01-09T08:46:52Z</time>
      </trkpt>
      <trkpt lat="45.32368" lon="6.22831">
        <ele>1598.81</ele>
        <time>2013-01-09T08:47:08Z</time>
      </trkpt>
      <trkpt lat="45.32366" lon="6.22812">
        <ele>1601.69</ele>
        <time>2013-01-09T08:47:24Z</time>
      </trkpt>
      <trkpt lat="45.32365" lon="6.22811">
        <ele>1601.69</ele>
        <time>2013-01-09T08:47:25Z</time>
      </trkpt>
      <trkpt lat="45.32364" lon="6.22793">
        <ele>1603.62</ele>
        <time>2013-01-09T08:47:40Z</time>
      </trkpt>
      <trkpt lat="45.32361" lon="6.22779">
        <ele>1605.54</ele>
        <time>2013-01-09T08:47:52Z</time>
      </trkpt>
      <trkpt lat="45.32361" lon="6.22775">
        <ele>1606.02</ele>
        <time>2013-01-09T08:47:55Z</time>
      </trkpt>
      <trkpt lat="45.32357" lon="6.22749">
        <ele>1608.9</ele>
        <time>2013-01-09T08:48:17Z</time>
      </trkpt>
      <trkpt lat="45.32355" lon="6.22731">
        <ele>1611.79</ele>
        <time>2013-01-09T08:48:33Z</time>
      </trkpt>
      <trkpt lat="45.32353" lon="6.22714">
        <ele>1613.71</ele>
        <time>2013-01-09T08:48:50Z</time>
      </trkpt>
      <trkpt lat="45.32354" lon="6.22698">
        <ele>1614.67</ele>
        <time>2013-01-09T08:49:02Z</time>
      </trkpt>
      <trkpt lat="45.32357" lon="6.22677">
        <ele>1617.07</ele>
        <time>2013-01-09T08:49:17Z</time>
      </trkpt>
      <trkpt lat="45.32362" lon="6.22655">
        <ele>1619.48</ele>
        <time>2013-01-09T08:49:34Z</time>
      </trkpt>
      <trkpt lat="45.32372" lon="6.2264">
        <ele>1621.88</ele>
        <time>2013-01-09T08:49:49Z</time>
      </trkpt>
      <trkpt lat="45.32379" lon="6.22629">
        <ele>1624.28</ele>
        <time>2013-01-09T08:50:02Z</time>
      </trkpt>
      <trkpt lat="45.32382" lon="6.22625">
        <ele>1624.77</ele>
        <time>2013-01-09T08:50:06Z</time>
      </trkpt>
      <trkpt lat="45.32386" lon="6.22625">
        <ele>1625.25</ele>
        <time>2013-01-09T08:50:09Z</time>
      </trkpt>
      <trkpt lat="45.32401" lon="6.22611">
        <ele>1627.65</ele>
        <time>2013-01-09T08:50:29Z</time>
      </trkpt>
      <trkpt lat="45.32406" lon="6.22598">
        <ele>1629.57</ele>
        <time>2013-01-09T08:50:40Z</time>
      </trkpt>
      <trkpt lat="45.3242" lon="6.22583">
        <ele>1631.49</ele>
        <time>2013-01-09T08:50:58Z</time>
      </trkpt>
      <trkpt lat="45.32431" lon="6.22573">
        <ele>1633.42</ele>
        <time>2013-01-09T08:51:12Z</time>
      </trkpt>
      <trkpt lat="45.32432" lon="6.22571">
        <ele>1633.9</ele>
        <time>2013-01-09T08:51:14Z</time>
      </trkpt>
      <trkpt lat="45.3244" lon="6.22561">
        <ele>1635.82</ele>
        <time>2013-01-09T08:51:28Z</time>
      </trkpt>
      <trkpt lat="45.32449" lon="6.2255">
        <ele>1637.74</ele>
        <time>2013-01-09T08:51:42Z</time>
      </trkpt>
      <trkpt lat="45.32456" lon="6.22541">
        <ele>1639.67</ele>
        <time>2013-01-09T08:51:54Z</time>
      </trkpt>
      <trkpt lat="45.32469" lon="6.2253">
        <ele>1642.07</ele>
        <time>2013-01-09T08:52:12Z</time>
      </trkpt>
      <trkpt lat="45.32478" lon="6.2252">
        <ele>1643.99</ele>
        <time>2013-01-09T08:52:26Z</time>
      </trkpt>
      <trkpt lat="45.32478" lon="6.22519">
        <ele>1644.47</ele>
        <time>2013-01-09T08:52:27Z</time>
      </trkpt>
      <trkpt lat="45.32468" lon="6.22518">
        <ele>1646.4</ele>
        <time>2013-01-09T08:52:38Z</time>
      </trkpt>
      <trkpt lat="45.32466" lon="6.22519">
        <ele>1646.88</ele>
        <time>2013-01-09T08:52:40Z</time>
      </trkpt>
      <trkpt lat="45.3245" lon="6.22518">
        <ele>1648.32</ele>
        <time>2013-01-09T08:52:56Z</time>
      </trkpt>
      <trkpt lat="45.32439" lon="6.22517">
        <ele>1649.76</ele>
        <time>2013-01-09T08:53:07Z</time>
      </trkpt>
      <trkpt lat="45.32423" lon="6.22514">
        <ele>1652.16</ele>
        <time>2013-01-09T08:53:24Z</time>
      </trkpt>
      <trkpt lat="45.32416" lon="6.22515">
        <ele>1653.12</ele>
        <time>2013-01-09T08:53:32Z</time>
      </trkpt>
      <trkpt lat="45.32404" lon="6.22522">
        <ele>1655.05</ele>
        <time>2013-01-09T08:53:47Z</time>
      </trkpt>
      <trkpt lat="45.32395" lon="6.22525">
        <ele>1657.45</ele>
        <time>2013-01-09T08:54:00Z</time>
      </trkpt>
      <trkpt lat="45.32395" lon="6.22517">
        <ele>1658.41</ele>
        <time>2013-01-09T08:54:06Z</time>
      </trkpt>
      <trkpt lat="45.32396" lon="6.22514">
        <ele>1658.41</ele>
        <time>2013-01-09T08:54:09Z</time>
      </trkpt>
      <trkpt lat="45.32403" lon="6.225">
        <ele>1659.85</ele>
        <time>2013-01-09T08:54:22Z</time>
      </trkpt>
      <trkpt lat="45.32411" lon="6.22486">
        <ele>1661.78</ele>
        <time>2013-01-09T08:54:37Z</time>
      </trkpt>
      <trkpt lat="45.32422" lon="6.22472">
        <ele>1663.7</ele>
        <time>2013-01-09T08:54:54Z</time>
      </trkpt>
      <trkpt lat="45.32431" lon="6.22462">
        <ele>1665.14</ele>
        <time>2013-01-09T08:55:22Z</time>
      </trkpt>
      <trkpt lat="45.32441" lon="6.22454">
        <ele>1667.06</ele>
        <time>2013-01-09T08:55:34Z</time>
      </trkpt>
      <trkpt lat="45.32451" lon="6.22446">
        <ele>1668.99</ele>
        <time>2013-01-09T08:55:46Z</time>
      </trkpt>
      <trkpt lat="45.32448" lon="6.22442">
        <ele>1670.43</ele>
        <time>2013-01-09T08:55:50Z</time>
      </trkpt>
      <trkpt lat="45.32439" lon="6.22443">
        <ele>1671.39</ele>
        <time>2013-01-09T08:56:01Z</time>
      </trkpt>
      <trkpt lat="45.32434" lon="6.22442">
        <ele>1672.35</ele>
        <time>2013-01-09T08:56:06Z</time>
      </trkpt>
      <trkpt lat="45.3242" lon="6.22442">
        <ele>1673.31</ele>
        <time>2013-01-09T08:56:20Z</time>
      </trkpt>
      <trkpt lat="45.32417" lon="6.22441">
        <ele>1673.79</ele>
        <time>2013-01-09T08:56:23Z</time>
      </trkpt>
      <trkpt lat="45.32417" lon="6.22433">
        <ele>1675.23</ele>
        <time>2013-01-09T08:56:34Z</time>
      </trkpt>
      <trkpt lat="45.32421" lon="6.22431">
        <ele>1675.72</ele>
        <time>2013-01-09T08:56:38Z</time>
      </trkpt>
      <trkpt lat="45.32431" lon="6.22423">
        <ele>1676.68</ele>
        <time>2013-01-09T08:56:51Z</time>
      </trkpt>
      <trkpt lat="45.32434" lon="6.2242">
        <ele>1677.16</ele>
        <time>2013-01-09T08:56:54Z</time>
      </trkpt>
      <trkpt lat="45.32447" lon="6.22409">
        <ele>1679.56</ele>
        <time>2013-01-09T08:57:12Z</time>
      </trkpt>
      <trkpt lat="45.32448" lon="6.22399">
        <ele>1681.48</ele>
        <time>2013-01-09T08:57:24Z</time>
      </trkpt>
      <trkpt lat="45.32444" lon="6.224">
        <ele>1682.44</ele>
        <time>2013-01-09T08:57:31Z</time>
      </trkpt>
      <trkpt lat="45.32429" lon="6.22406">
        <ele>1684.85</ele>
        <time>2013-01-09T08:57:47Z</time>
      </trkpt>
      <trkpt lat="45.32416" lon="6.22402">
        <ele>1686.77</ele>
        <time>2013-01-09T08:58:02Z</time>
      </trkpt>
      <trkpt lat="45.32416" lon="6.22402">
        <ele>1686.77</ele>
        <time>2013-01-09T08:58:03Z</time>
      </trkpt>
      <trkpt lat="45.32423" lon="6.22388">
        <ele>1688.69</ele>
        <time>2013-01-09T08:58:17Z</time>
      </trkpt>
      <trkpt lat="45.32435" lon="6.22376">
        <ele>1690.14</ele>
        <time>2013-01-09T08:58:31Z</time>
      </trkpt>
      <trkpt lat="45.32443" lon="6.22362">
        <ele>1693.02</ele>
        <time>2013-01-09T08:58:47Z</time>
      </trkpt>
      <trkpt lat="45.32455" lon="6.22343">
        <ele>1695.9</ele>
        <time>2013-01-09T08:59:07Z</time>
      </trkpt>
      <trkpt lat="45.32459" lon="6.22342">
        <ele>1696.38</ele>
        <time>2013-01-09T08:59:10Z</time>
      </trkpt>
      <trkpt lat="45.3247" lon="6.22333">
        <ele>1696.86</ele>
        <time>2013-01-09T08:59:21Z</time>
      </trkpt>
      <trkpt lat="45.32472" lon="6.22333">
        <ele>1697.34</ele>
        <time>2013-01-09T08:59:23Z</time>
      </trkpt>
      <trkpt lat="45.32483" lon="6.2233">
        <ele>1698.79</ele>
        <time>2013-01-09T08:59:34Z</time>
      </trkpt>
      <trkpt lat="45.32489" lon="6.22322">
        <ele>1700.71</ele>
        <time>2013-01-09T08:59:44Z</time>
      </trkpt>
      <trkpt lat="45.32488" lon="6.22315">
        <ele>1702.15</ele>
        <time>2013-01-09T08:59:50Z</time>
      </trkpt>
      <trkpt lat="45.32479" lon="6.223">
        <ele>1704.55</ele>
        <time>2013-01-09T09:00:08Z</time>
      </trkpt>
      <trkpt lat="45.32478" lon="6.22292">
        <ele>1705.04</ele>
        <time>2013-01-09T09:00:15Z</time>
      </trkpt>
      <trkpt lat="45.32481" lon="6.22284">
        <ele>1706.96</ele>
        <time>2013-01-09T09:00:24Z</time>
      </trkpt>
      <trkpt lat="45.32488" lon="6.22264">
        <ele>1709.84</ele>
        <time>2013-01-09T09:00:41Z</time>
      </trkpt>
      <trkpt lat="45.32493" lon="6.22249">
        <ele>1711.76</ele>
        <time>2013-01-09T09:00:55Z</time>
      </trkpt>
      <trkpt lat="45.32495" lon="6.22242">
        <ele>1714.17</ele>
        <time>2013-01-09T09:01:12Z</time>
      </trkpt>
      <trkpt lat="45.32496" lon="6.22226">
        <ele>1716.09</ele>
        <time>2013-01-09T09:01:32Z</time>
      </trkpt>
      <trkpt lat="45.32495" lon="6.22212">
        <ele>1718.01</ele>
        <time>2013-01-09T09:01:46Z</time>
      </trkpt>
      <trkpt lat="45.32496" lon="6.22196">
        <ele>1720.9</ele>
        <time>2013-01-09T09:02:02Z</time>
      </trkpt>
      <trkpt lat="45.32497" lon="6.22182">
        <ele>1723.78</ele>
        <time>2013-01-09T09:02:17Z</time>
      </trkpt>
      <trkpt lat="45.32497" lon="6.22169">
        <ele>1725.7</ele>
        <time>2013-01-09T09:02:31Z</time>
      </trkpt>
      <trkpt lat="45.32497" lon="6.22149">
        <ele>1728.11</ele>
        <time>2013-01-09T09:02:51Z</time>
      </trkpt>
      <trkpt lat="45.32498" lon="6.22139">
        <ele>1729.55</ele>
        <time>2013-01-09T09:03:00Z</time>
      </trkpt>
      <trkpt lat="45.32499" lon="6.22124">
        <ele>1731.95</ele>
        <time>2013-01-09T09:03:14Z</time>
      </trkpt>
      <trkpt lat="45.32501" lon="6.22112">
        <ele>1733.88</ele>
        <time>2013-01-09T09:03:27Z</time>
      </trkpt>
      <trkpt lat="45.32502" lon="6.22101">
        <ele>1736.28</ele>
        <time>2013-01-09T09:03:38Z</time>
      </trkpt>
      <trkpt lat="45.32503" lon="6.22096">
        <ele>1736.76</ele>
        <time>2013-01-09T09:03:44Z</time>
      </trkpt>
      <trkpt lat="45.32506" lon="6.22086">
        <ele>1738.68</ele>
        <time>2013-01-09T09:03:56Z</time>
      </trkpt>
      <trkpt lat="45.32509" lon="6.22071">
        <ele>1739.64</ele>
        <time>2013-01-09T09:04:12Z</time>
      </trkpt>
      <trkpt lat="45.32513" lon="6.2205">
        <ele>1739.64</ele>
        <time>2013-01-09T09:04:25Z</time>
      </trkpt>
      <trkpt lat="45.32517" lon="6.22028">
        <ele>1739.16</ele>
        <time>2013-01-09T09:04:40Z</time>
      </trkpt>
      <trkpt lat="45.32519" lon="6.22002">
        <ele>1740.12</ele>
        <time>2013-01-09T09:04:58Z</time>
      </trkpt>
      <trkpt lat="45.32522" lon="6.21977">
        <ele>1741.08</ele>
        <time>2013-01-09T09:05:15Z</time>
      </trkpt>
      <trkpt lat="45.32525" lon="6.21946">
        <ele>1740.12</ele>
        <time>2013-01-09T09:05:30Z</time>
      </trkpt>
      <trkpt lat="45.32528" lon="6.21921">
        <ele>1740.6</ele>
        <time>2013-01-09T09:05:46Z</time>
      </trkpt>
      <trkpt lat="45.3253" lon="6.21908">
        <ele>1740.6</ele>
        <time>2013-01-09T09:05:54Z</time>
      </trkpt>
      <trkpt lat="45.32531" lon="6.21894">
        <ele>1742.05</ele>
        <time>2013-01-09T09:06:06Z</time>
      </trkpt>
      <trkpt lat="45.32535" lon="6.2187">
        <ele>1744.45</ele>
        <time>2013-01-09T09:06:26Z</time>
      </trkpt>
      <trkpt lat="45.32539" lon="6.21849">
        <ele>1747.33</ele>
        <time>2013-01-09T09:06:45Z</time>
      </trkpt>
      <trkpt lat="45.32541" lon="6.2183">
        <ele>1749.26</ele>
        <time>2013-01-09T09:07:01Z</time>
      </trkpt>
      <trkpt lat="45.32544" lon="6.21811">
        <ele>1750.7</ele>
        <time>2013-01-09T09:07:16Z</time>
      </trkpt>
      <trkpt lat="45.32548" lon="6.21793">
        <ele>1752.62</ele>
        <time>2013-01-09T09:07:33Z</time>
      </trkpt>
      <trkpt lat="45.32552" lon="6.21774">
        <ele>1755.02</ele>
        <time>2013-01-09T09:07:51Z</time>
      </trkpt>
      <trkpt lat="45.32558" lon="6.2176">
        <ele>1757.43</ele>
        <time>2013-01-09T09:08:07Z</time>
      </trkpt>
      <trkpt lat="45.3256" lon="6.21749">
        <ele>1759.83</ele>
        <time>2013-01-09T09:08:18Z</time>
      </trkpt>
      <trkpt lat="45.32563" lon="6.2174">
        <ele>1761.75</ele>
        <time>2013-01-09T09:08:29Z</time>
      </trkpt>
      <trkpt lat="45.32565" lon="6.21734">
        <ele>1762.71</ele>
        <time>2013-01-09T09:08:35Z</time>
      </trkpt>
      <trkpt lat="45.32567" lon="6.21727">
        <ele>1764.16</ele>
        <time>2013-01-09T09:08:43Z</time>
      </trkpt>
      <trkpt lat="45.3257" lon="6.21713">
        <ele>1766.08</ele>
        <time>2013-01-09T09:08:58Z</time>
      </trkpt>
      <trkpt lat="45.32571" lon="6.21691">
        <ele>1768.48</ele>
        <time>2013-01-09T09:09:17Z</time>
      </trkpt>
      <trkpt lat="45.32571" lon="6.21684">
        <ele>1768.96</ele>
        <time>2013-01-09T09:09:23Z</time>
      </trkpt>
      <trkpt lat="45.3257" lon="6.21667">
        <ele>1770.89</ele>
        <time>2013-01-09T09:09:37Z</time>
      </trkpt>
      <trkpt lat="45.32568" lon="6.21645">
        <ele>1771.37</ele>
        <time>2013-01-09T09:09:53Z</time>
      </trkpt>
      <trkpt lat="45.32567" lon="6.21618">
        <ele>1772.33</ele>
        <time>2013-01-09T09:10:11Z</time>
      </trkpt>
      <trkpt lat="45.32565" lon="6.2159">
        <ele>1772.81</ele>
        <time>2013-01-09T09:10:29Z</time>
      </trkpt>
      <trkpt lat="45.32564" lon="6.21567">
        <ele>1773.29</ele>
        <time>2013-01-09T09:10:45Z</time>
      </trkpt>
      <trkpt lat="45.32564" lon="6.2154">
        <ele>1774.25</ele>
        <time>2013-01-09T09:11:03Z</time>
      </trkpt>
      <trkpt lat="45.32566" lon="6.2152">
        <ele>1775.69</ele>
        <time>2013-01-09T09:11:16Z</time>
      </trkpt>
      <trkpt lat="45.32568" lon="6.21506">
        <ele>1776.65</ele>
        <time>2013-01-09T09:11:27Z</time>
      </trkpt>
      <trkpt lat="45.32569" lon="6.21499">
        <ele>1777.61</ele>
        <time>2013-01-09T09:11:34Z</time>
      </trkpt>
      <trkpt lat="45.3257" lon="6.21495">
        <ele>1778.1</ele>
        <time>2013-01-09T09:11:37Z</time>
      </trkpt>
      <trkpt lat="45.32572" lon="6.21474">
        <ele>1779.54</ele>
        <time>2013-01-09T09:11:54Z</time>
      </trkpt>
      <trkpt lat="45.32572" lon="6.2147">
        <ele>1780.02</ele>
        <time>2013-01-09T09:11:57Z</time>
      </trkpt>
      <trkpt lat="45.32574" lon="6.21466">
        <ele>1780.5</ele>
        <time>2013-01-09T09:12:02Z</time>
      </trkpt>
      <trkpt lat="45.3258" lon="6.21457">
        <ele>1781.94</ele>
        <time>2013-01-09T09:12:14Z</time>
      </trkpt>
      <trkpt lat="45.32584" lon="6.21448">
        <ele>1783.86</ele>
        <time>2013-01-09T09:12:28Z</time>
      </trkpt>
      <trkpt lat="45.32591" lon="6.21436">
        <ele>1786.27</ele>
        <time>2013-01-09T09:12:46Z</time>
      </trkpt>
      <trkpt lat="45.32598" lon="6.21424">
        <ele>1787.71</ele>
        <time>2013-01-09T09:13:03Z</time>
      </trkpt>
      <trkpt lat="45.32606" lon="6.21413">
        <ele>1790.59</ele>
        <time>2013-01-09T09:13:21Z</time>
      </trkpt>
      <trkpt lat="45.32612" lon="6.21405">
        <ele>1793</ele>
        <time>2013-01-09T09:13:36Z</time>
      </trkpt>
      <trkpt lat="45.3262" lon="6.21395">
        <ele>1794.92</ele>
        <time>2013-01-09T09:13:53Z</time>
      </trkpt>
      <trkpt lat="45.32626" lon="6.21386">
        <ele>1797.8</ele>
        <time>2013-01-09T09:14:09Z</time>
      </trkpt>
      <trkpt lat="45.32634" lon="6.21368">
        <ele>1799.73</ele>
        <time>2013-01-09T09:14:28Z</time>
      </trkpt>
      <trkpt lat="45.32639" lon="6.21354">
        <ele>1802.61</ele>
        <time>2013-01-09T09:14:45Z</time>
      </trkpt>
      <trkpt lat="45.32636" lon="6.21344">
        <ele>1805.01</ele>
        <time>2013-01-09T09:14:59Z</time>
      </trkpt>
      <trkpt lat="45.32631" lon="6.21333">
        <ele>1807.9</ele>
        <time>2013-01-09T09:15:14Z</time>
      </trkpt>
      <trkpt lat="45.32631" lon="6.21321">
        <ele>1809.82</ele>
        <time>2013-01-09T09:15:29Z</time>
      </trkpt>
      <trkpt lat="45.32634" lon="6.21308">
        <ele>1812.7</ele>
        <time>2013-01-09T09:15:46Z</time>
      </trkpt>
      <trkpt lat="45.32639" lon="6.21293">
        <ele>1815.59</ele>
        <time>2013-01-09T09:16:00Z</time>
      </trkpt>
      <trkpt lat="45.32642" lon="6.21284">
        <ele>1817.51</ele>
        <time>2013-01-09T09:16:11Z</time>
      </trkpt>
      <trkpt lat="45.32644" lon="6.21276">
        <ele>1819.43</ele>
        <time>2013-01-09T09:16:22Z</time>
      </trkpt>
      <trkpt lat="45.32646" lon="6.21267">
        <ele>1822.32</ele>
        <time>2013-01-09T09:16:34Z</time>
      </trkpt>
      <trkpt lat="45.32648" lon="6.21257">
        <ele>1824.72</ele>
        <time>2013-01-09T09:16:46Z</time>
      </trkpt>
      <trkpt lat="45.32651" lon="6.21251">
        <ele>1825.68</ele>
        <time>2013-01-09T09:16:56Z</time>
      </trkpt>
      <trkpt lat="45.32653" lon="6.21243">
        <ele>1828.08</ele>
        <time>2013-01-09T09:17:07Z</time>
      </trkpt>
      <trkpt lat="45.32655" lon="6.21232">
        <ele>1830.49</ele>
        <time>2013-01-09T09:17:19Z</time>
      </trkpt>
      <trkpt lat="45.32656" lon="6.21222">
        <ele>1832.41</ele>
        <time>2013-01-09T09:17:30Z</time>
      </trkpt>
      <trkpt lat="45.32658" lon="6.2121">
        <ele>1834.33</ele>
        <time>2013-01-09T09:17:43Z</time>
      </trkpt>
      <trkpt lat="45.32659" lon="6.21205">
        <ele>1834.81</ele>
        <time>2013-01-09T09:17:48Z</time>
      </trkpt>
      <trkpt lat="45.3266" lon="6.21185">
        <ele>1837.7</ele>
        <time>2013-01-09T09:18:04Z</time>
      </trkpt>
      <trkpt lat="45.32661" lon="6.21169">
        <ele>1839.62</ele>
        <time>2013-01-09T09:18:18Z</time>
      </trkpt>
      <trkpt lat="45.32661" lon="6.21159">
        <ele>1841.06</ele>
        <time>2013-01-09T09:18:27Z</time>
      </trkpt>
      <trkpt lat="45.3266" lon="6.21138">
        <ele>1843.47</ele>
        <time>2013-01-09T09:18:44Z</time>
      </trkpt>
      <trkpt lat="45.32658" lon="6.21122">
        <ele>1844.91</ele>
        <time>2013-01-09T09:18:58Z</time>
      </trkpt>
      <trkpt lat="45.32658" lon="6.21116">
        <ele>1845.39</ele>
        <time>2013-01-09T09:19:11Z</time>
      </trkpt>
      <trkpt lat="45.32658" lon="6.21116">
        <ele>1844.91</ele>
        <time>2013-01-09T09:19:32Z</time>
      </trkpt>
      <trkpt lat="45.32658" lon="6.21116">
        <ele>1845.39</ele>
        <time>2013-01-09T09:20:23Z</time>
      </trkpt>
      <trkpt lat="45.32658" lon="6.21116">
        <ele>1845.39</ele>
        <time>2013-01-09T09:21:17Z</time>
      </trkpt>
      <trkpt lat="45.32657" lon="6.21115">
        <ele>1845.39</ele>
        <time>2013-01-09T09:21:43Z</time>
      </trkpt>
      <trkpt lat="45.32658" lon="6.21116">
        <ele>1845.39</ele>
        <time>2013-01-09T09:22:20Z</time>
      </trkpt>
      <trkpt lat="45.32658" lon="6.21116">
        <ele>1845.87</ele>
        <time>2013-01-09T09:23:49Z</time>
      </trkpt>
      <trkpt lat="45.32659" lon="6.21115">
        <ele>1845.39</ele>
        <time>2013-01-09T09:25:16Z</time>
      </trkpt>
      <trkpt lat="45.32662" lon="6.2111">
        <ele>1846.83</ele>
        <time>2013-01-09T09:25:34Z</time>
      </trkpt>
      <trkpt lat="45.32664" lon="6.21106">
        <ele>1847.79</ele>
        <time>2013-01-09T09:25:47Z</time>
      </trkpt>
      <trkpt lat="45.32664" lon="6.21107">
        <ele>1848.27</ele>
        <time>2013-01-09T09:26:12Z</time>
      </trkpt>
      <trkpt lat="45.32668" lon="6.21103">
        <ele>1849.71</ele>
        <time>2013-01-09T09:26:32Z</time>
      </trkpt>
      <trkpt lat="45.32674" lon="6.21097">
        <ele>1852.12</ele>
        <time>2013-01-09T09:26:45Z</time>
      </trkpt>
      <trkpt lat="45.32679" lon="6.21092">
        <ele>1854.52</ele>
        <time>2013-01-09T09:26:57Z</time>
      </trkpt>
      <trkpt lat="45.32683" lon="6.21085">
        <ele>1856.44</ele>
        <time>2013-01-09T09:27:08Z</time>
      </trkpt>
      <trkpt lat="45.32686" lon="6.21081">
        <ele>1857.89</ele>
        <time>2013-01-09T09:27:21Z</time>
      </trkpt>
      <trkpt lat="45.32689" lon="6.21075">
        <ele>1858.85</ele>
        <time>2013-01-09T09:27:40Z</time>
      </trkpt>
      <trkpt lat="45.32694" lon="6.21068">
        <ele>1860.29</ele>
        <time>2013-01-09T09:27:51Z</time>
      </trkpt>
      <trkpt lat="45.32696" lon="6.21062">
        <ele>1861.73</ele>
        <time>2013-01-09T09:28:01Z</time>
      </trkpt>
      <trkpt lat="45.32701" lon="6.21058">
        <ele>1862.69</ele>
        <time>2013-01-09T09:28:09Z</time>
      </trkpt>
      <trkpt lat="45.32707" lon="6.21052">
        <ele>1865.09</ele>
        <time>2013-01-09T09:28:22Z</time>
      </trkpt>
      <trkpt lat="45.32711" lon="6.21046">
        <ele>1866.06</ele>
        <time>2013-01-09T09:28:32Z</time>
      </trkpt>
      <trkpt lat="45.32717" lon="6.21043">
        <ele>1867.98</ele>
        <time>2013-01-09T09:28:43Z</time>
      </trkpt>
      <trkpt lat="45.32717" lon="6.21044">
        <ele>1867.98</ele>
        <time>2013-01-09T09:28:44Z</time>
      </trkpt>
      <trkpt lat="45.32721" lon="6.21051">
        <ele>1870.38</ele>
        <time>2013-01-09T09:28:57Z</time>
      </trkpt>
      <trkpt lat="45.32723" lon="6.21059">
        <ele>1871.82</ele>
        <time>2013-01-09T09:29:09Z</time>
      </trkpt>
      <trkpt lat="45.32727" lon="6.21069">
        <ele>1873.75</ele>
        <time>2013-01-09T09:29:22Z</time>
      </trkpt>
      <trkpt lat="45.3273" lon="6.21079">
        <ele>1876.63</ele>
        <time>2013-01-09T09:29:37Z</time>
      </trkpt>
      <trkpt lat="45.32735" lon="6.21087">
        <ele>1878.55</ele>
        <time>2013-01-09T09:29:50Z</time>
      </trkpt>
      <trkpt lat="45.3274" lon="6.21095">
        <ele>1880.96</ele>
        <time>2013-01-09T09:30:04Z</time>
      </trkpt>
      <trkpt lat="45.32746" lon="6.21103">
        <ele>1883.36</ele>
        <time>2013-01-09T09:30:18Z</time>
      </trkpt>
      <trkpt lat="45.32752" lon="6.21106">
        <ele>1886.24</ele>
        <time>2013-01-09T09:30:33Z</time>
      </trkpt>
      <trkpt lat="45.32754" lon="6.21101">
        <ele>1887.69</ele>
        <time>2013-01-09T09:30:43Z</time>
      </trkpt>
      <trkpt lat="45.32756" lon="6.21095">
        <ele>1889.61</ele>
        <time>2013-01-09T09:30:55Z</time>
      </trkpt>
      <trkpt lat="45.32759" lon="6.2109">
        <ele>1891.05</ele>
        <time>2013-01-09T09:31:08Z</time>
      </trkpt>
      <trkpt lat="45.32763" lon="6.2109">
        <ele>1892.97</ele>
        <time>2013-01-09T09:31:17Z</time>
      </trkpt>
      <trkpt lat="45.32766" lon="6.21096">
        <ele>1894.42</ele>
        <time>2013-01-09T09:31:28Z</time>
      </trkpt>
      <trkpt lat="45.32771" lon="6.21104">
        <ele>1896.34</ele>
        <time>2013-01-09T09:31:42Z</time>
      </trkpt>
      <trkpt lat="45.32774" lon="6.21114">
        <ele>1898.74</ele>
        <time>2013-01-09T09:31:56Z</time>
      </trkpt>
      <trkpt lat="45.32778" lon="6.21123">
        <ele>1901.14</ele>
        <time>2013-01-09T09:32:10Z</time>
      </trkpt>
      <trkpt lat="45.32779" lon="6.21126">
        <ele>1903.55</ele>
        <time>2013-01-09T09:32:24Z</time>
      </trkpt>
      <trkpt lat="45.32782" lon="6.2112">
        <ele>1904.99</ele>
        <time>2013-01-09T09:32:34Z</time>
      </trkpt>
      <trkpt lat="45.32784" lon="6.21113">
        <ele>1906.43</ele>
        <time>2013-01-09T09:32:44Z</time>
      </trkpt>
      <trkpt lat="45.32787" lon="6.21105">
        <ele>1907.87</ele>
        <time>2013-01-09T09:32:55Z</time>
      </trkpt>
      <trkpt lat="45.32789" lon="6.21098">
        <ele>1909.32</ele>
        <time>2013-01-09T09:33:05Z</time>
      </trkpt>
      <trkpt lat="45.32792" lon="6.21092">
        <ele>1910.28</ele>
        <time>2013-01-09T09:33:14Z</time>
      </trkpt>
      <trkpt lat="45.32794" lon="6.21085">
        <ele>1912.2</ele>
        <time>2013-01-09T09:33:24Z</time>
      </trkpt>
      <trkpt lat="45.32798" lon="6.21079">
        <ele>1914.12</ele>
        <time>2013-01-09T09:33:34Z</time>
      </trkpt>
      <trkpt lat="45.32801" lon="6.21071">
        <ele>1915.56</ele>
        <time>2013-01-09T09:33:45Z</time>
      </trkpt>
      <trkpt lat="45.32804" lon="6.21065">
        <ele>1917.01</ele>
        <time>2013-01-09T09:33:55Z</time>
      </trkpt>
      <trkpt lat="45.32808" lon="6.21061">
        <ele>1918.45</ele>
        <time>2013-01-09T09:34:03Z</time>
      </trkpt>
      <trkpt lat="45.3281" lon="6.21065">
        <ele>1919.89</ele>
        <time>2013-01-09T09:34:17Z</time>
      </trkpt>
      <trkpt lat="45.32812" lon="6.21072">
        <ele>1921.33</ele>
        <time>2013-01-09T09:34:32Z</time>
      </trkpt>
      <trkpt lat="45.32813" lon="6.21081">
        <ele>1923.25</ele>
        <time>2013-01-09T09:34:45Z</time>
      </trkpt>
      <trkpt lat="45.32813" lon="6.21085">
        <ele>1924.22</ele>
        <time>2013-01-09T09:35:07Z</time>
      </trkpt>
      <trkpt lat="45.32813" lon="6.21085">
        <ele>1924.22</ele>
        <time>2013-01-09T09:35:16Z</time>
      </trkpt>
      <trkpt lat="45.32815" lon="6.21094">
        <ele>1925.66</ele>
        <time>2013-01-09T09:35:28Z</time>
      </trkpt>
      <trkpt lat="45.32817" lon="6.21106">
        <ele>1928.06</ele>
        <time>2013-01-09T09:35:42Z</time>
      </trkpt>
      <trkpt lat="45.32818" lon="6.2111">
        <ele>1929.98</ele>
        <time>2013-01-09T09:35:53Z</time>
      </trkpt>
      <trkpt lat="45.3282" lon="6.21107">
        <ele>1930.46</ele>
        <time>2013-01-09T09:36:17Z</time>
      </trkpt>
      <trkpt lat="45.32821" lon="6.21106">
        <ele>1930.95</ele>
        <time>2013-01-09T09:36:27Z</time>
      </trkpt>
      <trkpt lat="45.32825" lon="6.211">
        <ele>1932.87</ele>
        <time>2013-01-09T09:36:38Z</time>
      </trkpt>
      <trkpt lat="45.32828" lon="6.21094">
        <ele>1934.31</ele>
        <time>2013-01-09T09:37:17Z</time>
      </trkpt>
      <trkpt lat="45.32832" lon="6.21088">
        <ele>1935.75</ele>
        <time>2013-01-09T09:37:26Z</time>
      </trkpt>
      <trkpt lat="45.32836" lon="6.2108">
        <ele>1937.67</ele>
        <time>2013-01-09T09:37:38Z</time>
      </trkpt>
      <trkpt lat="45.3284" lon="6.21072">
        <ele>1939.6</ele>
        <time>2013-01-09T09:37:48Z</time>
      </trkpt>
      <trkpt lat="45.32844" lon="6.21066">
        <ele>1941.04</ele>
        <time>2013-01-09T09:37:58Z</time>
      </trkpt>
      <trkpt lat="45.32844" lon="6.21063">
        <ele>1942</ele>
        <time>2013-01-09T09:38:02Z</time>
      </trkpt>
      <trkpt lat="45.32849" lon="6.21057">
        <ele>1943.92</ele>
        <time>2013-01-09T09:38:12Z</time>
      </trkpt>
      <trkpt lat="45.32852" lon="6.2105">
        <ele>1944.88</ele>
        <time>2013-01-09T09:38:22Z</time>
      </trkpt>
      <trkpt lat="45.32853" lon="6.21048">
        <ele>1945.36</ele>
        <time>2013-01-09T09:38:24Z</time>
      </trkpt>
      <trkpt lat="45.32856" lon="6.2104">
        <ele>1946.81</ele>
        <time>2013-01-09T09:38:35Z</time>
      </trkpt>
      <trkpt lat="45.3286" lon="6.21036">
        <ele>1948.25</ele>
        <time>2013-01-09T09:38:45Z</time>
      </trkpt>
      <trkpt lat="45.32865" lon="6.21029">
        <ele>1950.17</ele>
        <time>2013-01-09T09:38:56Z</time>
      </trkpt>
      <trkpt lat="45.32868" lon="6.21021">
        <ele>1951.61</ele>
        <time>2013-01-09T09:39:06Z</time>
      </trkpt>
      <trkpt lat="45.32869" lon="6.21013">
        <ele>1953.54</ele>
        <time>2013-01-09T09:39:16Z</time>
      </trkpt>
      <trkpt lat="45.32871" lon="6.21003">
        <ele>1955.46</ele>
        <time>2013-01-09T09:39:27Z</time>
      </trkpt>
      <trkpt lat="45.32871" lon="6.20993">
        <ele>1956.9</ele>
        <time>2013-01-09T09:39:37Z</time>
      </trkpt>
      <trkpt lat="45.32872" lon="6.20988">
        <ele>1958.82</ele>
        <time>2013-01-09T09:39:48Z</time>
      </trkpt>
      <trkpt lat="45.32875" lon="6.20992">
        <ele>1959.3</ele>
        <time>2013-01-09T09:39:57Z</time>
      </trkpt>
      <trkpt lat="45.32878" lon="6.20998">
        <ele>1960.75</ele>
        <time>2013-01-09T09:40:04Z</time>
      </trkpt>
      <trkpt lat="45.32882" lon="6.21009">
        <ele>1963.63</ele>
        <time>2013-01-09T09:40:19Z</time>
      </trkpt>
      <trkpt lat="45.32885" lon="6.21004">
        <ele>1966.03</ele>
        <time>2013-01-09T09:40:33Z</time>
      </trkpt>
      <trkpt lat="45.32887" lon="6.20995">
        <ele>1967.48</ele>
        <time>2013-01-09T09:40:44Z</time>
      </trkpt>
      <trkpt lat="45.32888" lon="6.20987">
        <ele>1968.92</ele>
        <time>2013-01-09T09:40:54Z</time>
      </trkpt>
      <trkpt lat="45.32887" lon="6.20981">
        <ele>1969.88</ele>
        <time>2013-01-09T09:41:01Z</time>
      </trkpt>
      <trkpt lat="45.32884" lon="6.20973">
        <ele>1970.84</ele>
        <time>2013-01-09T09:41:10Z</time>
      </trkpt>
      <trkpt lat="45.32886" lon="6.20972">
        <ele>1972.28</ele>
        <time>2013-01-09T09:41:21Z</time>
      </trkpt>
      <trkpt lat="45.3289" lon="6.20976">
        <ele>1974.2</ele>
        <time>2013-01-09T09:41:33Z</time>
      </trkpt>
      <trkpt lat="45.32896" lon="6.20981">
        <ele>1976.61</ele>
        <time>2013-01-09T09:41:46Z</time>
      </trkpt>
      <trkpt lat="45.32899" lon="6.20981">
        <ele>1978.05</ele>
        <time>2013-01-09T09:42:04Z</time>
      </trkpt>
      <trkpt lat="45.32899" lon="6.2098">
        <ele>1978.53</ele>
        <time>2013-01-09T09:42:05Z</time>
      </trkpt>
      <trkpt lat="45.32896" lon="6.20972">
        <ele>1979.49</ele>
        <time>2013-01-09T09:42:17Z</time>
      </trkpt>
      <trkpt lat="45.32892" lon="6.20964">
        <ele>1980.45</ele>
        <time>2013-01-09T09:42:29Z</time>
      </trkpt>
      <trkpt lat="45.32888" lon="6.20953">
        <ele>1981.9</ele>
        <time>2013-01-09T09:42:42Z</time>
      </trkpt>
      <trkpt lat="45.32886" lon="6.20944">
        <ele>1984.3</ele>
        <time>2013-01-09T09:42:53Z</time>
      </trkpt>
      <trkpt lat="45.32888" lon="6.20943">
        <ele>1985.74</ele>
        <time>2013-01-09T09:43:03Z</time>
      </trkpt>
      <trkpt lat="45.32894" lon="6.20944">
        <ele>1987.66</ele>
        <time>2013-01-09T09:43:17Z</time>
      </trkpt>
      <trkpt lat="45.32894" lon="6.20942">
        <ele>1989.1</ele>
        <time>2013-01-09T09:43:28Z</time>
      </trkpt>
      <trkpt lat="45.32893" lon="6.20935">
        <ele>1991.03</ele>
        <time>2013-01-09T09:43:38Z</time>
      </trkpt>
      <trkpt lat="45.32893" lon="6.20931">
        <ele>1992.95</ele>
        <time>2013-01-09T09:43:49Z</time>
      </trkpt>
      <trkpt lat="45.32901" lon="6.20935">
        <ele>1994.87</ele>
        <time>2013-01-09T09:44:05Z</time>
      </trkpt>
      <trkpt lat="45.32903" lon="6.20937">
        <ele>1996.32</ele>
        <time>2013-01-09T09:44:20Z</time>
      </trkpt>
      <trkpt lat="45.32902" lon="6.2093">
        <ele>1997.76</ele>
        <time>2013-01-09T09:44:30Z</time>
      </trkpt>
      <trkpt lat="45.329" lon="6.20921">
        <ele>1999.68</ele>
        <time>2013-01-09T09:44:41Z</time>
      </trkpt>
      <trkpt lat="45.32902" lon="6.20921">
        <ele>2000.16</ele>
        <time>2013-01-09T09:44:47Z</time>
      </trkpt>
      <trkpt lat="45.3291" lon="6.20927">
        <ele>2002.56</ele>
        <time>2013-01-09T09:45:02Z</time>
      </trkpt>
      <trkpt lat="45.32916" lon="6.20933">
        <ele>2004.49</ele>
        <time>2013-01-09T09:45:15Z</time>
      </trkpt>
      <trkpt lat="45.32918" lon="6.20937">
        <ele>2006.41</ele>
        <time>2013-01-09T09:45:31Z</time>
      </trkpt>
      <trkpt lat="45.32923" lon="6.20942">
        <ele>2007.85</ele>
        <time>2013-01-09T09:45:49Z</time>
      </trkpt>
      <trkpt lat="45.32924" lon="6.20941">
        <ele>2009.29</ele>
        <time>2013-01-09T09:46:01Z</time>
      </trkpt>
      <trkpt lat="45.32924" lon="6.20939">
        <ele>2009.29</ele>
        <time>2013-01-09T09:46:04Z</time>
      </trkpt>
      <trkpt lat="45.32924" lon="6.2093">
        <ele>2011.22</ele>
        <time>2013-01-09T09:46:15Z</time>
      </trkpt>
      <trkpt lat="45.32923" lon="6.20918">
        <ele>2012.66</ele>
        <time>2013-01-09T09:46:27Z</time>
      </trkpt>
      <trkpt lat="45.3292" lon="6.2091">
        <ele>2014.58</ele>
        <time>2013-01-09T09:46:39Z</time>
      </trkpt>
      <trkpt lat="45.32919" lon="6.20905">
        <ele>2016.02</ele>
        <time>2013-01-09T09:47:00Z</time>
      </trkpt>
      <trkpt lat="45.3292" lon="6.20896">
        <ele>2017.46</ele>
        <time>2013-01-09T09:47:11Z</time>
      </trkpt>
      <trkpt lat="45.32921" lon="6.20891">
        <ele>2018.43</ele>
        <time>2013-01-09T09:47:36Z</time>
      </trkpt>
      <trkpt lat="45.32923" lon="6.20886">
        <ele>2020.35</ele>
        <time>2013-01-09T09:47:47Z</time>
      </trkpt>
      <trkpt lat="45.32926" lon="6.2088">
        <ele>2021.31</ele>
        <time>2013-01-09T09:47:56Z</time>
      </trkpt>
      <trkpt lat="45.32926" lon="6.20885">
        <ele>2021.79</ele>
        <time>2013-01-09T09:48:07Z</time>
      </trkpt>
      <trkpt lat="45.32931" lon="6.20895">
        <ele>2024.67</ele>
        <time>2013-01-09T09:48:21Z</time>
      </trkpt>
      <trkpt lat="45.32932" lon="6.20896">
        <ele>2025.15</ele>
        <time>2013-01-09T09:48:41Z</time>
      </trkpt>
      <trkpt lat="45.32934" lon="6.20898">
        <ele>2025.64</ele>
        <time>2013-01-09T09:48:48Z</time>
      </trkpt>
      <trkpt lat="45.32935" lon="6.20899">
        <ele>2026.6</ele>
        <time>2013-01-09T09:48:50Z</time>
      </trkpt>
      <trkpt lat="45.32936" lon="6.20892">
        <ele>2027.56</ele>
        <time>2013-01-09T09:49:01Z</time>
      </trkpt>
      <trkpt lat="45.32936" lon="6.20891">
        <ele>2028.04</ele>
        <time>2013-01-09T09:49:02Z</time>
      </trkpt>
      <trkpt lat="45.32938" lon="6.20887">
        <ele>2029</ele>
        <time>2013-01-09T09:49:21Z</time>
      </trkpt>
      <trkpt lat="45.3294" lon="6.20882">
        <ele>2029.96</ele>
        <time>2013-01-09T09:49:31Z</time>
      </trkpt>
      <trkpt lat="45.32942" lon="6.20878">
        <ele>2031.88</ele>
        <time>2013-01-09T09:49:41Z</time>
      </trkpt>
      <trkpt lat="45.32947" lon="6.20887">
        <ele>2033.33</ele>
        <time>2013-01-09T09:49:53Z</time>
      </trkpt>
      <trkpt lat="45.3295" lon="6.20891">
        <ele>2035.73</ele>
        <time>2013-01-09T09:50:05Z</time>
      </trkpt>
      <trkpt lat="45.32951" lon="6.20881">
        <ele>2038.61</ele>
        <time>2013-01-09T09:50:17Z</time>
      </trkpt>
      <trkpt lat="45.32953" lon="6.20872">
        <ele>2039.57</ele>
        <time>2013-01-09T09:50:27Z</time>
      </trkpt>
      <trkpt lat="45.32956" lon="6.20865">
        <ele>2041.5</ele>
        <time>2013-01-09T09:50:37Z</time>
      </trkpt>
      <trkpt lat="45.3296" lon="6.20865">
        <ele>2042.94</ele>
        <time>2013-01-09T09:50:47Z</time>
      </trkpt>
      <trkpt lat="45.32963" lon="6.20873">
        <ele>2044.86</ele>
        <time>2013-01-09T09:51:06Z</time>
      </trkpt>
      <trkpt lat="45.32968" lon="6.20882">
        <ele>2047.26</ele>
        <time>2013-01-09T09:51:20Z</time>
      </trkpt>
      <trkpt lat="45.32969" lon="6.20885">
        <ele>2049.19</ele>
        <time>2013-01-09T09:51:32Z</time>
      </trkpt>
      <trkpt lat="45.32971" lon="6.20876">
        <ele>2050.15</ele>
        <time>2013-01-09T09:51:42Z</time>
      </trkpt>
      <trkpt lat="45.32972" lon="6.20872">
        <ele>2052.07</ele>
        <time>2013-01-09T09:51:52Z</time>
      </trkpt>
      <trkpt lat="45.32975" lon="6.20866">
        <ele>2053.03</ele>
        <time>2013-01-09T09:52:11Z</time>
      </trkpt>
      <trkpt lat="45.32979" lon="6.2086">
        <ele>2054.47</ele>
        <time>2013-01-09T09:52:22Z</time>
      </trkpt>
      <trkpt lat="45.32982" lon="6.20871">
        <ele>2055.92</ele>
        <time>2013-01-09T09:52:36Z</time>
      </trkpt>
      <trkpt lat="45.32982" lon="6.20873">
        <ele>2056.4</ele>
        <time>2013-01-09T09:52:39Z</time>
      </trkpt>
      <trkpt lat="45.32987" lon="6.20884">
        <ele>2058.32</ele>
        <time>2013-01-09T09:52:51Z</time>
      </trkpt>
      <trkpt lat="45.32988" lon="6.2089">
        <ele>2060.24</ele>
        <time>2013-01-09T09:53:01Z</time>
      </trkpt>
      <trkpt lat="45.3299" lon="6.20896">
        <ele>2061.68</ele>
        <time>2013-01-09T09:53:14Z</time>
      </trkpt>
      <trkpt lat="45.32991" lon="6.2089">
        <ele>2062.65</ele>
        <time>2013-01-09T09:53:25Z</time>
      </trkpt>
      <trkpt lat="45.32992" lon="6.20886">
        <ele>2063.13</ele>
        <time>2013-01-09T09:53:29Z</time>
      </trkpt>
      <trkpt lat="45.32994" lon="6.20876">
        <ele>2064.57</ele>
        <time>2013-01-09T09:53:41Z</time>
      </trkpt>
      <trkpt lat="45.32996" lon="6.20869">
        <ele>2066.01</ele>
        <time>2013-01-09T09:53:51Z</time>
      </trkpt>
      <trkpt lat="45.32999" lon="6.2086">
        <ele>2067.45</ele>
        <time>2013-01-09T09:54:02Z</time>
      </trkpt>
      <trkpt lat="45.33001" lon="6.20852">
        <ele>2068.89</ele>
        <time>2013-01-09T09:54:12Z</time>
      </trkpt>
      <trkpt lat="45.33005" lon="6.20848">
        <ele>2069.86</ele>
        <time>2013-01-09T09:54:21Z</time>
      </trkpt>
      <trkpt lat="45.33005" lon="6.20854">
        <ele>2071.3</ele>
        <time>2013-01-09T09:54:33Z</time>
      </trkpt>
      <trkpt lat="45.33009" lon="6.20866">
        <ele>2073.7</ele>
        <time>2013-01-09T09:54:49Z</time>
      </trkpt>
      <trkpt lat="45.33011" lon="6.20875">
        <ele>2076.1</ele>
        <time>2013-01-09T09:55:02Z</time>
      </trkpt>
      <trkpt lat="45.33012" lon="6.20868">
        <ele>2077.55</ele>
        <time>2013-01-09T09:55:26Z</time>
      </trkpt>
      <trkpt lat="45.33016" lon="6.20858">
        <ele>2078.99</ele>
        <time>2013-01-09T09:55:37Z</time>
      </trkpt>
      <trkpt lat="45.33018" lon="6.20853">
        <ele>2080.91</ele>
        <time>2013-01-09T09:55:45Z</time>
      </trkpt>
      <trkpt lat="45.33022" lon="6.20847">
        <ele>2081.87</ele>
        <time>2013-01-09T09:55:57Z</time>
      </trkpt>
      <trkpt lat="45.33028" lon="6.2084">
        <ele>2083.79</ele>
        <time>2013-01-09T09:56:08Z</time>
      </trkpt>
      <trkpt lat="45.33033" lon="6.20836">
        <ele>2085.24</ele>
        <time>2013-01-09T09:56:17Z</time>
      </trkpt>
      <trkpt lat="45.33035" lon="6.20833">
        <ele>2085.72</ele>
        <time>2013-01-09T09:56:22Z</time>
      </trkpt>
      <trkpt lat="45.33041" lon="6.20827">
        <ele>2087.16</ele>
        <time>2013-01-09T09:56:32Z</time>
      </trkpt>
      <trkpt lat="45.33046" lon="6.20822">
        <ele>2088.6</ele>
        <time>2013-01-09T09:56:43Z</time>
      </trkpt>
      <trkpt lat="45.33048" lon="6.20814">
        <ele>2088.6</ele>
        <time>2013-01-09T09:56:54Z</time>
      </trkpt>
      <trkpt lat="45.33048" lon="6.20815">
        <ele>2088.6</ele>
        <time>2013-01-09T09:57:08Z</time>
      </trkpt>
      <trkpt lat="45.33047" lon="6.20816">
        <ele>2089.08</ele>
        <time>2013-01-09T09:57:22Z</time>
      </trkpt>
      <trkpt lat="45.33047" lon="6.20817">
        <ele>2089.56</ele>
        <time>2013-01-09T09:57:57Z</time>
      </trkpt>
      <trkpt lat="45.33048" lon="6.20817">
        <ele>2089.56</ele>
        <time>2013-01-09T09:58:19Z</time>
      </trkpt>
      <trkpt lat="45.33049" lon="6.20817">
        <ele>2089.08</ele>
        <time>2013-01-09T09:58:34Z</time>
      </trkpt>
      <trkpt lat="45.33048" lon="6.20817">
        <ele>2089.56</ele>
        <time>2013-01-09T09:58:51Z</time>
      </trkpt>
      <trkpt lat="45.33048" lon="6.20817">
        <ele>2089.56</ele>
        <time>2013-01-09T09:59:43Z</time>
      </trkpt>
      <trkpt lat="45.33048" lon="6.20816">
        <ele>2089.56</ele>
        <time>2013-01-09T10:00:00Z</time>
      </trkpt>
      <trkpt lat="45.33047" lon="6.20814">
        <ele>2089.56</ele>
        <time>2013-01-09T10:00:12Z</time>
      </trkpt>
      <trkpt lat="45.33049" lon="6.20814">
        <ele>2089.08</ele>
        <time>2013-01-09T10:00:44Z</time>
      </trkpt>
      <trkpt lat="45.33049" lon="6.20814">
        <ele>2090.04</ele>
        <time>2013-01-09T10:01:08Z</time>
      </trkpt>
      <trkpt lat="45.3305" lon="6.20814">
        <ele>2090.04</ele>
        <time>2013-01-09T10:01:37Z</time>
      </trkpt>
      <trkpt lat="45.33052" lon="6.20821">
        <ele>2091</ele>
        <time>2013-01-09T10:01:50Z</time>
      </trkpt>
      <trkpt lat="45.33051" lon="6.20831">
        <ele>2093.41</ele>
        <time>2013-01-09T10:02:04Z</time>
      </trkpt>
      <trkpt lat="45.3305" lon="6.20844">
        <ele>2095.33</ele>
        <time>2013-01-09T10:02:19Z</time>
      </trkpt>
      <trkpt lat="45.3305" lon="6.20849">
        <ele>2095.81</ele>
        <time>2013-01-09T10:02:24Z</time>
      </trkpt>
      <trkpt lat="45.33048" lon="6.20857">
        <ele>2098.21</ele>
        <time>2013-01-09T10:02:40Z</time>
      </trkpt>
      <trkpt lat="45.3305" lon="6.20854">
        <ele>2099.66</ele>
        <time>2013-01-09T10:02:52Z</time>
      </trkpt>
      <trkpt lat="45.33053" lon="6.2085">
        <ele>2101.1</ele>
        <time>2013-01-09T10:03:01Z</time>
      </trkpt>
      <trkpt lat="45.33059" lon="6.20845">
        <ele>2102.54</ele>
        <time>2013-01-09T10:03:12Z</time>
      </trkpt>
      <trkpt lat="45.33061" lon="6.20844">
        <ele>2103.02</ele>
        <time>2013-01-09T10:03:17Z</time>
      </trkpt>
      <trkpt lat="45.33067" lon="6.2084">
        <ele>2103.98</ele>
        <time>2013-01-09T10:03:28Z</time>
      </trkpt>
      <trkpt lat="45.33068" lon="6.20838">
        <ele>2104.94</ele>
        <time>2013-01-09T10:03:40Z</time>
      </trkpt>
      <trkpt lat="45.33069" lon="6.20839">
        <ele>2105.91</ele>
        <time>2013-01-09T10:04:26Z</time>
      </trkpt>
      <trkpt lat="45.33074" lon="6.20833">
        <ele>2106.87</ele>
        <time>2013-01-09T10:04:54Z</time>
      </trkpt>
      <trkpt lat="45.33081" lon="6.20824">
        <ele>2109.27</ele>
        <time>2013-01-09T10:05:07Z</time>
      </trkpt>
      <trkpt lat="45.33081" lon="6.20824">
        <ele>2109.27</ele>
        <time>2013-01-09T10:05:08Z</time>
      </trkpt>
      <trkpt lat="45.33083" lon="6.20814">
        <ele>2111.19</ele>
        <time>2013-01-09T10:05:19Z</time>
      </trkpt>
      <trkpt lat="45.33086" lon="6.20818">
        <ele>2113.12</ele>
        <time>2013-01-09T10:05:31Z</time>
      </trkpt>
      <trkpt lat="45.33088" lon="6.20824">
        <ele>2113.6</ele>
        <time>2013-01-09T10:05:38Z</time>
      </trkpt>
      <trkpt lat="45.33088" lon="6.20835">
        <ele>2116</ele>
        <time>2013-01-09T10:05:51Z</time>
      </trkpt>
      <trkpt lat="45.33089" lon="6.20846">
        <ele>2118.4</ele>
        <time>2013-01-09T10:06:05Z</time>
      </trkpt>
      <trkpt lat="45.33088" lon="6.20846">
        <ele>2119.36</ele>
        <time>2013-01-09T10:06:20Z</time>
      </trkpt>
      <trkpt lat="45.33092" lon="6.20842">
        <ele>2120.32</ele>
        <time>2013-01-09T10:07:23Z</time>
      </trkpt>
      <trkpt lat="45.33097" lon="6.20834">
        <ele>2122.25</ele>
        <time>2013-01-09T10:07:34Z</time>
      </trkpt>
      <trkpt lat="45.33103" lon="6.20825">
        <ele>2124.17</ele>
        <time>2013-01-09T10:07:46Z</time>
      </trkpt>
      <trkpt lat="45.33105" lon="6.20819">
        <ele>2126.09</ele>
        <time>2013-01-09T10:07:57Z</time>
      </trkpt>
      <trkpt lat="45.33105" lon="6.20819">
        <ele>2126.09</ele>
        <time>2013-01-09T10:07:59Z</time>
      </trkpt>
      <trkpt lat="45.33107" lon="6.2083">
        <ele>2127.53</ele>
        <time>2013-01-09T10:08:12Z</time>
      </trkpt>
      <trkpt lat="45.33108" lon="6.2084">
        <ele>2129.94</ele>
        <time>2013-01-09T10:08:25Z</time>
      </trkpt>
      <trkpt lat="45.33108" lon="6.2084">
        <ele>2131.38</ele>
        <time>2013-01-09T10:08:37Z</time>
      </trkpt>
      <trkpt lat="45.33112" lon="6.20832">
        <ele>2132.82</ele>
        <time>2013-01-09T10:08:47Z</time>
      </trkpt>
      <trkpt lat="45.33114" lon="6.20828">
        <ele>2133.78</ele>
        <time>2013-01-09T10:08:53Z</time>
      </trkpt>
      <trkpt lat="45.33117" lon="6.20816">
        <ele>2136.19</ele>
        <time>2013-01-09T10:09:06Z</time>
      </trkpt>
      <trkpt lat="45.33118" lon="6.20807">
        <ele>2137.63</ele>
        <time>2013-01-09T10:09:17Z</time>
      </trkpt>
      <trkpt lat="45.33122" lon="6.20801">
        <ele>2139.07</ele>
        <time>2013-01-09T10:09:27Z</time>
      </trkpt>
      <trkpt lat="45.33126" lon="6.20798">
        <ele>2141.47</ele>
        <time>2013-01-09T10:09:36Z</time>
      </trkpt>
      <trkpt lat="45.33133" lon="6.20792">
        <ele>2142.92</ele>
        <time>2013-01-09T10:09:48Z</time>
      </trkpt>
      <trkpt lat="45.33138" lon="6.20786">
        <ele>2144.84</ele>
        <time>2013-01-09T10:09:59Z</time>
      </trkpt>
      <trkpt lat="45.3314" lon="6.20777">
        <ele>2146.76</ele>
        <time>2013-01-09T10:10:10Z</time>
      </trkpt>
      <trkpt lat="45.33138" lon="6.20769">
        <ele>2148.2</ele>
        <time>2013-01-09T10:10:20Z</time>
      </trkpt>
      <trkpt lat="45.33138" lon="6.20758">
        <ele>2150.13</ele>
        <time>2013-01-09T10:10:32Z</time>
      </trkpt>
      <trkpt lat="45.33139" lon="6.20754">
        <ele>2151.57</ele>
        <time>2013-01-09T10:10:46Z</time>
      </trkpt>
      <trkpt lat="45.33141" lon="6.20745">
        <ele>2153.49</ele>
        <time>2013-01-09T10:10:57Z</time>
      </trkpt>
      <trkpt lat="45.33142" lon="6.20745">
        <ele>2153.97</ele>
        <time>2013-01-09T10:10:59Z</time>
      </trkpt>
      <trkpt lat="45.33143" lon="6.20744">
        <ele>2153.97</ele>
        <time>2013-01-09T10:11:14Z</time>
      </trkpt>
      <trkpt lat="45.33142" lon="6.20744">
        <ele>2154.45</ele>
        <time>2013-01-09T10:12:19Z</time>
      </trkpt>
      <trkpt lat="45.33143" lon="6.20744">
        <ele>2154.45</ele>
        <time>2013-01-09T10:13:49Z</time>
      </trkpt>
      <trkpt lat="45.33145" lon="6.20745">
        <ele>2155.41</ele>
        <time>2013-01-09T10:14:19Z</time>
      </trkpt>
      <trkpt lat="45.3315" lon="6.20753">
        <ele>2158.3</ele>
        <time>2013-01-09T10:14:33Z</time>
      </trkpt>
      <trkpt lat="45.33154" lon="6.20759">
        <ele>2160.22</ele>
        <time>2013-01-09T10:14:46Z</time>
      </trkpt>
      <trkpt lat="45.33157" lon="6.2076">
        <ele>2162.62</ele>
        <time>2013-01-09T10:14:59Z</time>
      </trkpt>
      <trkpt lat="45.33161" lon="6.20754">
        <ele>2164.55</ele>
        <time>2013-01-09T10:15:13Z</time>
      </trkpt>
      <trkpt lat="45.33164" lon="6.20746">
        <ele>2165.99</ele>
        <time>2013-01-09T10:15:24Z</time>
      </trkpt>
      <trkpt lat="45.33168" lon="6.20741">
        <ele>2167.91</ele>
        <time>2013-01-09T10:15:34Z</time>
      </trkpt>
      <trkpt lat="45.33171" lon="6.20737">
        <ele>2168.87</ele>
        <time>2013-01-09T10:15:45Z</time>
      </trkpt>
      <trkpt lat="45.33175" lon="6.20732">
        <ele>2170.31</ele>
        <time>2013-01-09T10:15:54Z</time>
      </trkpt>
      <trkpt lat="45.33178" lon="6.20726">
        <ele>2172.24</ele>
        <time>2013-01-09T10:16:04Z</time>
      </trkpt>
      <trkpt lat="45.33182" lon="6.2072">
        <ele>2173.68</ele>
        <time>2013-01-09T10:16:14Z</time>
      </trkpt>
      <trkpt lat="45.33186" lon="6.20715">
        <ele>2175.6</ele>
        <time>2013-01-09T10:16:24Z</time>
      </trkpt>
      <trkpt lat="45.3319" lon="6.20719">
        <ele>2177.04</ele>
        <time>2013-01-09T10:16:34Z</time>
      </trkpt>
      <trkpt lat="45.33193" lon="6.20729">
        <ele>2179.45</ele>
        <time>2013-01-09T10:16:48Z</time>
      </trkpt>
      <trkpt lat="45.33195" lon="6.20737">
        <ele>2181.85</ele>
        <time>2013-01-09T10:17:02Z</time>
      </trkpt>
      <trkpt lat="45.33199" lon="6.20746">
        <ele>2183.77</ele>
        <time>2013-01-09T10:17:14Z</time>
      </trkpt>
      <trkpt lat="45.33203" lon="6.20755">
        <ele>2186.18</ele>
        <time>2013-01-09T10:17:27Z</time>
      </trkpt>
      <trkpt lat="45.33207" lon="6.20764">
        <ele>2188.1</ele>
        <time>2013-01-09T10:17:41Z</time>
      </trkpt>
      <trkpt lat="45.3321" lon="6.20772">
        <ele>2190.98</ele>
        <time>2013-01-09T10:17:55Z</time>
      </trkpt>
      <trkpt lat="45.33213" lon="6.20765">
        <ele>2192.42</ele>
        <time>2013-01-09T10:18:06Z</time>
      </trkpt>
      <trkpt lat="45.33216" lon="6.2076">
        <ele>2193.87</ele>
        <time>2013-01-09T10:18:15Z</time>
      </trkpt>
      <trkpt lat="45.3322" lon="6.20755">
        <ele>2195.31</ele>
        <time>2013-01-09T10:18:24Z</time>
      </trkpt>
      <trkpt lat="45.3322" lon="6.20754">
        <ele>2195.31</ele>
        <time>2013-01-09T10:18:26Z</time>
      </trkpt>
      <trkpt lat="45.33223" lon="6.2075">
        <ele>2196.27</ele>
        <time>2013-01-09T10:18:38Z</time>
      </trkpt>
      <trkpt lat="45.33223" lon="6.20748">
        <ele>2196.75</ele>
        <time>2013-01-09T10:19:29Z</time>
      </trkpt>
      <trkpt lat="45.33227" lon="6.20744">
        <ele>2197.71</ele>
        <time>2013-01-09T10:19:37Z</time>
      </trkpt>
      <trkpt lat="45.33231" lon="6.20737">
        <ele>2199.63</ele>
        <time>2013-01-09T10:19:47Z</time>
      </trkpt>
      <trkpt lat="45.33235" lon="6.20731">
        <ele>2202.04</ele>
        <time>2013-01-09T10:19:59Z</time>
      </trkpt>
      <trkpt lat="45.33238" lon="6.20735">
        <ele>2203.48</ele>
        <time>2013-01-09T10:20:10Z</time>
      </trkpt>
      <trkpt lat="45.33241" lon="6.20745">
        <ele>2205.88</ele>
        <time>2013-01-09T10:20:23Z</time>
      </trkpt>
      <trkpt lat="45.33243" lon="6.20756">
        <ele>2207.81</ele>
        <time>2013-01-09T10:20:36Z</time>
      </trkpt>
      <trkpt lat="45.33244" lon="6.20761">
        <ele>2208.77</ele>
        <time>2013-01-09T10:20:42Z</time>
      </trkpt>
      <trkpt lat="45.33244" lon="6.20763">
        <ele>2208.77</ele>
        <time>2013-01-09T10:20:44Z</time>
      </trkpt>
      <trkpt lat="45.33245" lon="6.20771">
        <ele>2210.69</ele>
        <time>2013-01-09T10:20:55Z</time>
      </trkpt>
      <trkpt lat="45.33246" lon="6.20775">
        <ele>2211.65</ele>
        <time>2013-01-09T10:21:01Z</time>
      </trkpt>
      <trkpt lat="45.33248" lon="6.20778">
        <ele>2213.09</ele>
        <time>2013-01-09T10:21:07Z</time>
      </trkpt>
      <trkpt lat="45.33254" lon="6.20783">
        <ele>2215.01</ele>
        <time>2013-01-09T10:21:17Z</time>
      </trkpt>
      <trkpt lat="45.33257" lon="6.20793">
        <ele>2217.42</ele>
        <time>2013-01-09T10:21:32Z</time>
      </trkpt>
      <trkpt lat="45.33255" lon="6.20803">
        <ele>2219.34</ele>
        <time>2013-01-09T10:21:44Z</time>
      </trkpt>
      <trkpt lat="45.33255" lon="6.20813">
        <ele>2220.78</ele>
        <time>2013-01-09T10:21:56Z</time>
      </trkpt>
      <trkpt lat="45.33256" lon="6.20819">
        <ele>2221.74</ele>
        <time>2013-01-09T10:22:02Z</time>
      </trkpt>
      <trkpt lat="45.33256" lon="6.20828">
        <ele>2222.71</ele>
        <time>2013-01-09T10:22:10Z</time>
      </trkpt>
      <trkpt lat="45.33253" lon="6.20845">
        <ele>2225.11</ele>
        <time>2013-01-09T10:22:27Z</time>
      </trkpt>
      <trkpt lat="45.33253" lon="6.20858">
        <ele>2227.03</ele>
        <time>2013-01-09T10:22:41Z</time>
      </trkpt>
      <trkpt lat="45.3325" lon="6.20872">
        <ele>2228.47</ele>
        <time>2013-01-09T10:22:54Z</time>
      </trkpt>
      <trkpt lat="45.33248" lon="6.20889">
        <ele>2230.4</ele>
        <time>2013-01-09T10:23:10Z</time>
      </trkpt>
      <trkpt lat="45.33248" lon="6.2089">
        <ele>2230.4</ele>
        <time>2013-01-09T10:23:11Z</time>
      </trkpt>
      <trkpt lat="45.33246" lon="6.20897">
        <ele>2230.88</ele>
        <time>2013-01-09T10:23:19Z</time>
      </trkpt>
      <trkpt lat="45.33242" lon="6.20905">
        <ele>2232.8</ele>
        <time>2013-01-09T10:23:31Z</time>
      </trkpt>
      <trkpt lat="45.33242" lon="6.20906">
        <ele>2232.8</ele>
        <time>2013-01-09T10:23:32Z</time>
      </trkpt>
      <trkpt lat="45.33242" lon="6.20912">
        <ele>2234.24</ele>
        <time>2013-01-09T10:23:40Z</time>
      </trkpt>
      <trkpt lat="45.33243" lon="6.2091">
        <ele>2234.72</ele>
        <time>2013-01-09T10:23:56Z</time>
      </trkpt>
      <trkpt lat="45.33247" lon="6.20906">
        <ele>2236.16</ele>
        <time>2013-01-09T10:24:05Z</time>
      </trkpt>
      <trkpt lat="45.33247" lon="6.20908">
        <ele>2237.13</ele>
        <time>2013-01-09T10:24:17Z</time>
      </trkpt>
      <trkpt lat="45.33247" lon="6.20913">
        <ele>2239.05</ele>
        <time>2013-01-09T10:24:29Z</time>
      </trkpt>
      <trkpt lat="45.3325" lon="6.20911">
        <ele>2239.53</ele>
        <time>2013-01-09T10:24:49Z</time>
      </trkpt>
      <trkpt lat="45.33251" lon="6.2091">
        <ele>2240.49</ele>
        <time>2013-01-09T10:25:05Z</time>
      </trkpt>
      <trkpt lat="45.33251" lon="6.20911">
        <ele>2240.49</ele>
        <time>2013-01-09T10:25:07Z</time>
      </trkpt>
      <trkpt lat="45.33253" lon="6.20913">
        <ele>2240.49</ele>
        <time>2013-01-09T10:25:09Z</time>
      </trkpt>
      <trkpt lat="45.33253" lon="6.20917">
        <ele>2242.41</ele>
        <time>2013-01-09T10:25:22Z</time>
      </trkpt>
      <trkpt lat="45.33254" lon="6.20912">
        <ele>2243.37</ele>
        <time>2013-01-09T10:25:47Z</time>
      </trkpt>
      <trkpt lat="45.33257" lon="6.20905">
        <ele>2244.82</ele>
        <time>2013-01-09T10:25:56Z</time>
      </trkpt>
      <trkpt lat="45.33257" lon="6.20909">
        <ele>2246.74</ele>
        <time>2013-01-09T10:26:09Z</time>
      </trkpt>
      <trkpt lat="45.33257" lon="6.20911">
        <ele>2246.74</ele>
        <time>2013-01-09T10:26:31Z</time>
      </trkpt>
      <trkpt lat="45.33258" lon="6.20909">
        <ele>2246.74</ele>
        <time>2013-01-09T10:26:54Z</time>
      </trkpt>
      <trkpt lat="45.33258" lon="6.20913">
        <ele>2246.74</ele>
        <time>2013-01-09T10:27:12Z</time>
      </trkpt>
      <trkpt lat="45.33256" lon="6.20912">
        <ele>2246.26</ele>
        <time>2013-01-09T10:27:26Z</time>
      </trkpt>
      <trkpt lat="45.33255" lon="6.20912">
        <ele>2246.74</ele>
        <time>2013-01-09T10:27:47Z</time>
      </trkpt>
      <trkpt lat="45.33255" lon="6.20912">
        <ele>2246.26</ele>
        <time>2013-01-09T10:28:08Z</time>
      </trkpt>
      <trkpt lat="45.33257" lon="6.20915">
        <ele>2246.74</ele>
        <time>2013-01-09T10:28:25Z</time>
      </trkpt>
      <trkpt lat="45.33256" lon="6.20917">
        <ele>2246.74</ele>
        <time>2013-01-09T10:28:59Z</time>
      </trkpt>
      <trkpt lat="45.33257" lon="6.20914">
        <ele>2246.74</ele>
        <time>2013-01-09T10:29:33Z</time>
      </trkpt>
      <trkpt lat="45.33257" lon="6.20915">
        <ele>2246.74</ele>
        <time>2013-01-09T10:30:07Z</time>
      </trkpt>
      <trkpt lat="45.33257" lon="6.20915">
        <ele>2246.74</ele>
        <time>2013-01-09T10:31:06Z</time>
      </trkpt>
      <trkpt lat="45.33259" lon="6.2091">
        <ele>2248.66</ele>
        <time>2013-01-09T10:34:12Z</time>
      </trkpt>
      <trkpt lat="45.33262" lon="6.20911">
        <ele>2251.54</ele>
        <time>2013-01-09T10:34:24Z</time>
      </trkpt>
      <trkpt lat="45.33266" lon="6.20916">
        <ele>2254.91</ele>
        <time>2013-01-09T10:34:40Z</time>
      </trkpt>
      <trkpt lat="45.33269" lon="6.20917">
        <ele>2257.79</ele>
        <time>2013-01-09T10:34:54Z</time>
      </trkpt>
      <trkpt lat="45.33273" lon="6.20915">
        <ele>2260.2</ele>
        <time>2013-01-09T10:35:09Z</time>
      </trkpt>
      <trkpt lat="45.33275" lon="6.20918">
        <ele>2263.08</ele>
        <time>2013-01-09T10:35:25Z</time>
      </trkpt>
      <trkpt lat="45.33278" lon="6.20919">
        <ele>2265.48</ele>
        <time>2013-01-09T10:35:38Z</time>
      </trkpt>
      <trkpt lat="45.3328" lon="6.20919">
        <ele>2267.89</ele>
        <time>2013-01-09T10:35:55Z</time>
      </trkpt>
      <trkpt lat="45.33283" lon="6.20922">
        <ele>2269.81</ele>
        <time>2013-01-09T10:36:07Z</time>
      </trkpt>
      <trkpt lat="45.33284" lon="6.20925">
        <ele>2272.21</ele>
        <time>2013-01-09T10:36:21Z</time>
      </trkpt>
      <trkpt lat="45.33288" lon="6.20923">
        <ele>2274.14</ele>
        <time>2013-01-09T10:36:34Z</time>
      </trkpt>
      <trkpt lat="45.33289" lon="6.20929">
        <ele>2276.54</ele>
        <time>2013-01-09T10:36:46Z</time>
      </trkpt>
      <trkpt lat="45.33293" lon="6.20929">
        <ele>2279.42</ele>
        <time>2013-01-09T10:37:01Z</time>
      </trkpt>
      <trkpt lat="45.33296" lon="6.20931">
        <ele>2282.31</ele>
        <time>2013-01-09T10:37:16Z</time>
      </trkpt>
      <trkpt lat="45.33299" lon="6.20933">
        <ele>2285.19</ele>
        <time>2013-01-09T10:37:29Z</time>
      </trkpt>
      <trkpt lat="45.33302" lon="6.20937">
        <ele>2288.56</ele>
        <time>2013-01-09T10:37:44Z</time>
      </trkpt>
      <trkpt lat="45.33303" lon="6.20939">
        <ele>2290.48</ele>
        <time>2013-01-09T10:37:56Z</time>
      </trkpt>
      <trkpt lat="45.33305" lon="6.20941">
        <ele>2292.88</ele>
        <time>2013-01-09T10:38:10Z</time>
      </trkpt>
      <trkpt lat="45.33306" lon="6.20943">
        <ele>2295.77</ele>
        <time>2013-01-09T10:38:24Z</time>
      </trkpt>
      <trkpt lat="45.33308" lon="6.20945">
        <ele>2297.69</ele>
        <time>2013-01-09T10:38:37Z</time>
      </trkpt>
      <trkpt lat="45.33309" lon="6.20945">
        <ele>2298.65</ele>
        <time>2013-01-09T10:39:16Z</time>
      </trkpt>
      <trkpt lat="45.33312" lon="6.20947">
        <ele>2301.05</ele>
        <time>2013-01-09T10:39:28Z</time>
      </trkpt>
      <trkpt lat="45.33315" lon="6.2095">
        <ele>2303.94</ele>
        <time>2013-01-09T10:39:42Z</time>
      </trkpt>
      <trkpt lat="45.33317" lon="6.2095">
        <ele>2305.86</ele>
        <time>2013-01-09T10:39:57Z</time>
      </trkpt>
      <trkpt lat="45.33319" lon="6.20951">
        <ele>2308.26</ele>
        <time>2013-01-09T10:40:08Z</time>
      </trkpt>
      <trkpt lat="45.33322" lon="6.20954">
        <ele>2310.67</ele>
        <time>2013-01-09T10:40:19Z</time>
      </trkpt>
      <trkpt lat="45.33325" lon="6.20958">
        <ele>2313.07</ele>
        <time>2013-01-09T10:40:32Z</time>
      </trkpt>
      <trkpt lat="45.33325" lon="6.20958">
        <ele>2313.55</ele>
        <time>2013-01-09T10:40:51Z</time>
      </trkpt>
      <trkpt lat="45.33325" lon="6.20959">
        <ele>2314.03</ele>
        <time>2013-01-09T10:41:44Z</time>
      </trkpt>
      <trkpt lat="45.33326" lon="6.20961">
        <ele>2315.47</ele>
        <time>2013-01-09T10:41:59Z</time>
      </trkpt>
      <trkpt lat="45.33326" lon="6.20967">
        <ele>2317.4</ele>
        <time>2013-01-09T10:42:14Z</time>
      </trkpt>
      <trkpt lat="45.33326" lon="6.20969">
        <ele>2318.84</ele>
        <time>2013-01-09T10:42:30Z</time>
      </trkpt>
      <trkpt lat="45.3333" lon="6.20968">
        <ele>2319.8</ele>
        <time>2013-01-09T10:42:45Z</time>
      </trkpt>
      <trkpt lat="45.33332" lon="6.20972">
        <ele>2322.2</ele>
        <time>2013-01-09T10:42:57Z</time>
      </trkpt>
      <trkpt lat="45.33331" lon="6.20979">
        <ele>2324.12</ele>
        <time>2013-01-09T10:43:11Z</time>
      </trkpt>
      <trkpt lat="45.33335" lon="6.20977">
        <ele>2326.05</ele>
        <time>2013-01-09T10:43:25Z</time>
      </trkpt>
      <trkpt lat="45.33335" lon="6.20982">
        <ele>2328.45</ele>
        <time>2013-01-09T10:43:37Z</time>
      </trkpt>
      <trkpt lat="45.33336" lon="6.20984">
        <ele>2330.37</ele>
        <time>2013-01-09T10:44:01Z</time>
      </trkpt>
      <trkpt lat="45.33339" lon="6.20982">
        <ele>2332.3</ele>
        <time>2013-01-09T10:44:13Z</time>
      </trkpt>
      <trkpt lat="45.33342" lon="6.20984">
        <ele>2334.7</ele>
        <time>2013-01-09T10:44:27Z</time>
      </trkpt>
      <trkpt lat="45.33342" lon="6.2099">
        <ele>2336.62</ele>
        <time>2013-01-09T10:44:38Z</time>
      </trkpt>
      <trkpt lat="45.3334" lon="6.20997">
        <ele>2338.54</ele>
        <time>2013-01-09T10:44:53Z</time>
      </trkpt>
      <trkpt lat="45.33344" lon="6.20996">
        <ele>2340.47</ele>
        <time>2013-01-09T10:45:06Z</time>
      </trkpt>
      <trkpt lat="45.33348" lon="6.20996">
        <ele>2342.87</ele>
        <time>2013-01-09T10:45:20Z</time>
      </trkpt>
      <trkpt lat="45.33348" lon="6.21003">
        <ele>2344.79</ele>
        <time>2013-01-09T10:45:34Z</time>
      </trkpt>
      <trkpt lat="45.33347" lon="6.2101">
        <ele>2346.72</ele>
        <time>2013-01-09T10:45:46Z</time>
      </trkpt>
      <trkpt lat="45.33349" lon="6.21009">
        <ele>2347.68</ele>
        <time>2013-01-09T10:45:58Z</time>
      </trkpt>
      <trkpt lat="45.33353" lon="6.21006">
        <ele>2350.08</ele>
        <time>2013-01-09T10:46:12Z</time>
      </trkpt>
      <trkpt lat="45.33353" lon="6.21012">
        <ele>2351.52</ele>
        <time>2013-01-09T10:46:25Z</time>
      </trkpt>
      <trkpt lat="45.33352" lon="6.21019">
        <ele>2352.96</ele>
        <time>2013-01-09T10:46:39Z</time>
      </trkpt>
      <trkpt lat="45.33351" lon="6.21026">
        <ele>2354.89</ele>
        <time>2013-01-09T10:46:54Z</time>
      </trkpt>
      <trkpt lat="45.3335" lon="6.21027">
        <ele>2356.33</ele>
        <time>2013-01-09T10:47:06Z</time>
      </trkpt>
      <trkpt lat="45.33353" lon="6.21025">
        <ele>2357.29</ele>
        <time>2013-01-09T10:47:17Z</time>
      </trkpt>
      <trkpt lat="45.33357" lon="6.21024">
        <ele>2358.25</ele>
        <time>2013-01-09T10:47:28Z</time>
      </trkpt>
      <trkpt lat="45.33361" lon="6.21024">
        <ele>2360.65</ele>
        <time>2013-01-09T10:47:41Z</time>
      </trkpt>
      <trkpt lat="45.33362" lon="6.21028">
        <ele>2362.58</ele>
        <time>2013-01-09T10:47:53Z</time>
      </trkpt>
      <trkpt lat="45.33361" lon="6.21033">
        <ele>2364.02</ele>
        <time>2013-01-09T10:48:05Z</time>
      </trkpt>
      <trkpt lat="45.33359" lon="6.21039">
        <ele>2365.94</ele>
        <time>2013-01-09T10:48:19Z</time>
      </trkpt>
      <trkpt lat="45.33357" lon="6.21042">
        <ele>2366.42</ele>
        <time>2013-01-09T10:48:37Z</time>
      </trkpt>
      <trkpt lat="45.33358" lon="6.21041">
        <ele>2366.9</ele>
        <time>2013-01-09T10:49:33Z</time>
      </trkpt>
      <trkpt lat="45.33357" lon="6.21042">
        <ele>2366.9</ele>
        <time>2013-01-09T10:50:18Z</time>
      </trkpt>
      <trkpt lat="45.33359" lon="6.21042">
        <ele>2369.31</ele>
        <time>2013-01-09T10:50:58Z</time>
      </trkpt>
      <trkpt lat="45.33362" lon="6.21042">
        <ele>2371.23</ele>
        <time>2013-01-09T10:51:11Z</time>
      </trkpt>
      <trkpt lat="45.33364" lon="6.21043">
        <ele>2372.67</ele>
        <time>2013-01-09T10:51:24Z</time>
      </trkpt>
      <trkpt lat="45.33365" lon="6.21046">
        <ele>2374.11</ele>
        <time>2013-01-09T10:51:55Z</time>
      </trkpt>
      <trkpt lat="45.33364" lon="6.21048">
        <ele>2375.55</ele>
        <time>2013-01-09T10:52:18Z</time>
      </trkpt>
      <trkpt lat="45.33365" lon="6.21047">
        <ele>2376.52</ele>
        <time>2013-01-09T10:52:34Z</time>
      </trkpt>
      <trkpt lat="45.33366" lon="6.21048">
        <ele>2377</ele>
        <time>2013-01-09T10:53:01Z</time>
      </trkpt>
      <trkpt lat="45.33365" lon="6.21055">
        <ele>2378.92</ele>
        <time>2013-01-09T10:53:12Z</time>
      </trkpt>
      <trkpt lat="45.33366" lon="6.21056">
        <ele>2380.84</ele>
        <time>2013-01-09T10:53:27Z</time>
      </trkpt>
      <trkpt lat="45.33371" lon="6.21054">
        <ele>2382.76</ele>
        <time>2013-01-09T10:53:41Z</time>
      </trkpt>
      <trkpt lat="45.33374" lon="6.21051">
        <ele>2384.69</ele>
        <time>2013-01-09T10:53:52Z</time>
      </trkpt>
      <trkpt lat="45.33376" lon="6.21055">
        <ele>2386.13</ele>
        <time>2013-01-09T10:54:11Z</time>
      </trkpt>
      <trkpt lat="45.33374" lon="6.2106">
        <ele>2387.57</ele>
        <time>2013-01-09T10:54:23Z</time>
      </trkpt>
      <trkpt lat="45.33373" lon="6.21065">
        <ele>2389.01</ele>
        <time>2013-01-09T10:54:32Z</time>
      </trkpt>
      <trkpt lat="45.33372" lon="6.21068">
        <ele>2390.46</ele>
        <time>2013-01-09T10:54:41Z</time>
      </trkpt>
      <trkpt lat="45.33372" lon="6.21067">
        <ele>2391.42</ele>
        <time>2013-01-09T10:54:50Z</time>
      </trkpt>
      <trkpt lat="45.33377" lon="6.21065">
        <ele>2392.86</ele>
        <time>2013-01-09T10:55:03Z</time>
      </trkpt>
      <trkpt lat="45.33379" lon="6.21062">
        <ele>2394.3</ele>
        <time>2013-01-09T10:55:15Z</time>
      </trkpt>
      <trkpt lat="45.3338" lon="6.21062">
        <ele>2395.26</ele>
        <time>2013-01-09T10:55:36Z</time>
      </trkpt>
      <trkpt lat="45.3338" lon="6.21065">
        <ele>2395.26</ele>
        <time>2013-01-09T10:56:29Z</time>
      </trkpt>
      <trkpt lat="45.33381" lon="6.21063">
        <ele>2398.63</ele>
        <time>2013-01-09T10:57:09Z</time>
      </trkpt>
      <trkpt lat="45.33383" lon="6.21064">
        <ele>2401.03</ele>
        <time>2013-01-09T10:57:24Z</time>
      </trkpt>
      <trkpt lat="45.33385" lon="6.21065">
        <ele>2402.95</ele>
        <time>2013-01-09T10:57:41Z</time>
      </trkpt>
      <trkpt lat="45.33386" lon="6.21067">
        <ele>2404.88</ele>
        <time>2013-01-09T10:57:54Z</time>
      </trkpt>
      <trkpt lat="45.33388" lon="6.21069">
        <ele>2407.76</ele>
        <time>2013-01-09T10:58:11Z</time>
      </trkpt>
      <trkpt lat="45.33388" lon="6.21068">
        <ele>2408.24</ele>
        <time>2013-01-09T10:58:33Z</time>
      </trkpt>
      <trkpt lat="45.33389" lon="6.21069">
        <ele>2409.68</ele>
        <time>2013-01-09T10:58:46Z</time>
      </trkpt>
      <trkpt lat="45.33391" lon="6.21072">
        <ele>2412.57</ele>
        <time>2013-01-09T10:59:01Z</time>
      </trkpt>
      <trkpt lat="45.33392" lon="6.21073">
        <ele>2414.01</ele>
        <time>2013-01-09T10:59:16Z</time>
      </trkpt>
      <trkpt lat="45.33393" lon="6.21074">
        <ele>2414.49</ele>
        <time>2013-01-09T10:59:48Z</time>
      </trkpt>
      <trkpt lat="45.33392" lon="6.21076">
        <ele>2416.89</ele>
        <time>2013-01-09T11:00:04Z</time>
      </trkpt>
      <trkpt lat="45.33394" lon="6.21078">
        <ele>2419.78</ele>
        <time>2013-01-09T11:00:20Z</time>
      </trkpt>
      <trkpt lat="45.33395" lon="6.21081">
        <ele>2421.7</ele>
        <time>2013-01-09T11:00:35Z</time>
      </trkpt>
      <trkpt lat="45.33396" lon="6.21082">
        <ele>2423.62</ele>
        <time>2013-01-09T11:00:49Z</time>
      </trkpt>
      <trkpt lat="45.33397" lon="6.21083">
        <ele>2425.06</ele>
        <time>2013-01-09T11:01:22Z</time>
      </trkpt>
      <trkpt lat="45.33397" lon="6.21083">
        <ele>2426.5</ele>
        <time>2013-01-09T11:01:47Z</time>
      </trkpt>
      <trkpt lat="45.33397" lon="6.21087">
        <ele>2428.91</ele>
        <time>2013-01-09T11:02:04Z</time>
      </trkpt>
      <trkpt lat="45.33397" lon="6.2109">
        <ele>2431.79</ele>
        <time>2013-01-09T11:02:28Z</time>
      </trkpt>
      <trkpt lat="45.33398" lon="6.21094">
        <ele>2434.2</ele>
        <time>2013-01-09T11:02:44Z</time>
      </trkpt>
      <trkpt lat="45.33398" lon="6.21094">
        <ele>2434.68</ele>
        <time>2013-01-09T11:03:06Z</time>
      </trkpt>
      <trkpt lat="45.334" lon="6.21097">
        <ele>2437.08</ele>
        <time>2013-01-09T11:03:22Z</time>
      </trkpt>
      <trkpt lat="45.334" lon="6.21098">
        <ele>2439</ele>
        <time>2013-01-09T11:03:44Z</time>
      </trkpt>
      <trkpt lat="45.334" lon="6.211">
        <ele>2439.96</ele>
        <time>2013-01-09T11:04:02Z</time>
      </trkpt>
      <trkpt lat="45.334" lon="6.21104">
        <ele>2443.33</ele>
        <time>2013-01-09T11:04:20Z</time>
      </trkpt>
      <trkpt lat="45.33401" lon="6.21106">
        <ele>2445.73</ele>
        <time>2013-01-09T11:04:50Z</time>
      </trkpt>
      <trkpt lat="45.33402" lon="6.21106">
        <ele>2447.17</ele>
        <time>2013-01-09T11:05:02Z</time>
      </trkpt>
      <trkpt lat="45.33406" lon="6.21109">
        <ele>2448.13</ele>
        <time>2013-01-09T11:05:20Z</time>
      </trkpt>
      <trkpt lat="45.33409" lon="6.21111">
        <ele>2450.54</ele>
        <time>2013-01-09T11:05:33Z</time>
      </trkpt>
      <trkpt lat="45.33411" lon="6.21112">
        <ele>2451.5</ele>
        <time>2013-01-09T11:05:48Z</time>
      </trkpt>
      <trkpt lat="45.33411" lon="6.21113">
        <ele>2452.46</ele>
        <time>2013-01-09T11:06:10Z</time>
      </trkpt>
      <trkpt lat="45.33412" lon="6.21118">
        <ele>2454.38</ele>
        <time>2013-01-09T11:06:28Z</time>
      </trkpt>
      <trkpt lat="45.33412" lon="6.21121">
        <ele>2455.34</ele>
        <time>2013-01-09T11:06:42Z</time>
      </trkpt>
      <trkpt lat="45.3341" lon="6.21122">
        <ele>2456.31</ele>
        <time>2013-01-09T11:07:21Z</time>
      </trkpt>
      <trkpt lat="45.33409" lon="6.21124">
        <ele>2457.75</ele>
        <time>2013-01-09T11:07:37Z</time>
      </trkpt>
      <trkpt lat="45.33409" lon="6.21124">
        <ele>2457.75</ele>
        <time>2013-01-09T11:07:53Z</time>
      </trkpt>
      <trkpt lat="45.33408" lon="6.21125">
        <ele>2457.75</ele>
        <time>2013-01-09T11:08:16Z</time>
      </trkpt>
      <trkpt lat="45.33406" lon="6.21128">
        <ele>2459.19</ele>
        <time>2013-01-09T11:08:42Z</time>
      </trkpt>
      <trkpt lat="45.33405" lon="6.21129">
        <ele>2460.15</ele>
        <time>2013-01-09T11:09:05Z</time>
      </trkpt>
      <trkpt lat="45.33405" lon="6.21131">
        <ele>2462.07</ele>
        <time>2013-01-09T11:09:22Z</time>
      </trkpt>
      <trkpt lat="45.33407" lon="6.21132">
        <ele>2462.55</ele>
        <time>2013-01-09T11:09:51Z</time>
      </trkpt>
      <trkpt lat="45.33408" lon="6.21133">
        <ele>2464.48</ele>
        <time>2013-01-09T11:10:03Z</time>
      </trkpt>
      <trkpt lat="45.33409" lon="6.21137">
        <ele>2466.4</ele>
        <time>2013-01-09T11:10:23Z</time>
      </trkpt>
      <trkpt lat="45.33411" lon="6.21139">
        <ele>2467.84</ele>
        <time>2013-01-09T11:10:39Z</time>
      </trkpt>
      <trkpt lat="45.33412" lon="6.21139">
        <ele>2470.24</ele>
        <time>2013-01-09T11:10:59Z</time>
      </trkpt>
      <trkpt lat="45.33415" lon="6.21139">
        <ele>2472.17</ele>
        <time>2013-01-09T11:11:13Z</time>
      </trkpt>
      <trkpt lat="45.33416" lon="6.2114">
        <ele>2472.65</ele>
        <time>2013-01-09T11:11:29Z</time>
      </trkpt>
      <trkpt lat="45.33417" lon="6.21143">
        <ele>2472.65</ele>
        <time>2013-01-09T11:11:59Z</time>
      </trkpt>
      <trkpt lat="45.33417" lon="6.21142">
        <ele>2472.65</ele>
        <time>2013-01-09T11:13:33Z</time>
      </trkpt>
      <trkpt lat="45.33418" lon="6.21147">
        <ele>2471.69</ele>
        <time>2013-01-09T11:14:10Z</time>
      </trkpt>
      <trkpt lat="45.33419" lon="6.21157">
        <ele>2470.24</ele>
        <time>2013-01-09T11:14:21Z</time>
      </trkpt>
      <trkpt lat="45.33418" lon="6.21166">
        <ele>2466.4</ele>
        <time>2013-01-09T11:14:32Z</time>
      </trkpt>
      <trkpt lat="45.33416" lon="6.21175">
        <ele>2463.52</ele>
        <time>2013-01-09T11:14:45Z</time>
      </trkpt>
      <trkpt lat="45.33411" lon="6.21182">
        <ele>2463.52</ele>
        <time>2013-01-09T11:15:01Z</time>
      </trkpt>
      <trkpt lat="45.3341" lon="6.21188">
        <ele>2465.92</ele>
        <time>2013-01-09T11:15:17Z</time>
      </trkpt>
      <trkpt lat="45.33411" lon="6.21192">
        <ele>2468.32</ele>
        <time>2013-01-09T11:15:33Z</time>
      </trkpt>
      <trkpt lat="45.3341" lon="6.21194">
        <ele>2469.28</ele>
        <time>2013-01-09T11:15:50Z</time>
      </trkpt>
      <trkpt lat="45.3341" lon="6.21195">
        <ele>2470.24</ele>
        <time>2013-01-09T11:16:04Z</time>
      </trkpt>
      <trkpt lat="45.33409" lon="6.21196">
        <ele>2470.24</ele>
        <time>2013-01-09T11:16:38Z</time>
      </trkpt>
      <trkpt lat="45.33409" lon="6.21196">
        <ele>2470.73</ele>
        <time>2013-01-09T11:18:26Z</time>
      </trkpt>
      <trkpt lat="45.33408" lon="6.21196">
        <ele>2469.76</ele>
        <time>2013-01-09T11:18:55Z</time>
      </trkpt>
      <trkpt lat="45.33407" lon="6.21195">
        <ele>2469.28</ele>
        <time>2013-01-09T11:19:20Z</time>
      </trkpt>
      <trkpt lat="45.33407" lon="6.21195">
        <ele>2469.28</ele>
        <time>2013-01-09T11:20:07Z</time>
      </trkpt>
      <trkpt lat="45.33407" lon="6.21195">
        <ele>2469.28</ele>
        <time>2013-01-09T11:20:38Z</time>
      </trkpt>
      <trkpt lat="45.33407" lon="6.21193">
        <ele>2469.76</ele>
        <time>2013-01-09T11:20:57Z</time>
      </trkpt>
      <trkpt lat="45.33408" lon="6.21193">
        <ele>2469.76</ele>
        <time>2013-01-09T11:21:08Z</time>
      </trkpt>
      <trkpt lat="45.33408" lon="6.21194">
        <ele>2469.28</ele>
        <time>2013-01-09T11:21:25Z</time>
      </trkpt>
      <trkpt lat="45.33407" lon="6.21195">
        <ele>2468.32</ele>
        <time>2013-01-09T11:23:27Z</time>
      </trkpt>
      <trkpt lat="45.33407" lon="6.21194">
        <ele>2469.28</ele>
        <time>2013-01-09T11:23:44Z</time>
      </trkpt>
      <trkpt lat="45.33407" lon="6.21194">
        <ele>2468.8</ele>
        <time>2013-01-09T11:24:03Z</time>
      </trkpt>
      <trkpt lat="45.33407" lon="6.21193">
        <ele>2467.84</ele>
        <time>2013-01-09T11:24:16Z</time>
      </trkpt>
      <trkpt lat="45.33407" lon="6.21194">
        <ele>2468.32</ele>
        <time>2013-01-09T11:24:36Z</time>
      </trkpt>
      <trkpt lat="45.33407" lon="6.21195">
        <ele>2467.84</ele>
        <time>2013-01-09T11:24:51Z</time>
      </trkpt>
      <trkpt lat="45.33407" lon="6.21195">
        <ele>2468.32</ele>
        <time>2013-01-09T11:25:19Z</time>
      </trkpt>
      <trkpt lat="45.33407" lon="6.21194">
        <ele>2467.84</ele>
        <time>2013-01-09T11:25:28Z</time>
      </trkpt>
      <trkpt lat="45.33408" lon="6.21194">
        <ele>2468.8</ele>
        <time>2013-01-09T11:25:54Z</time>
      </trkpt>
      <trkpt lat="45.33408" lon="6.21194">
        <ele>2468.8</ele>
        <time>2013-01-09T11:26:18Z</time>
      </trkpt>
      <trkpt lat="45.33409" lon="6.21194">
        <ele>2469.28</ele>
        <time>2013-01-09T11:27:22Z</time>
      </trkpt>
      <trkpt lat="45.33409" lon="6.21194">
        <ele>2469.76</ele>
        <time>2013-01-09T11:27:56Z</time>
      </trkpt>
      <trkpt lat="45.33408" lon="6.21193">
        <ele>2468.32</ele>
        <time>2013-01-09T11:28:35Z</time>
      </trkpt>
      <trkpt lat="45.33408" lon="6.21194">
        <ele>2468.8</ele>
        <time>2013-01-09T11:29:07Z</time>
      </trkpt>
      <trkpt lat="45.33407" lon="6.21194">
        <ele>2468.32</ele>
        <time>2013-01-09T11:29:24Z</time>
      </trkpt>
      <trkpt lat="45.33406" lon="6.21194">
        <ele>2468.32</ele>
        <time>2013-01-09T11:30:17Z</time>
      </trkpt>
      <trkpt lat="45.33406" lon="6.21194">
        <ele>2468.32</ele>
        <time>2013-01-09T11:31:22Z</time>
      </trkpt>
      <trkpt lat="45.33409" lon="6.21198">
        <ele>2468.8</ele>
        <time>2013-01-09T11:36:35Z</time>
      </trkpt>
      <trkpt lat="45.33409" lon="6.21197">
        <ele>2469.76</ele>
        <time>2013-01-09T11:39:32Z</time>
      </trkpt>
      <trkpt lat="45.33408" lon="6.21197">
        <ele>2470.24</ele>
        <time>2013-01-09T11:39:56Z</time>
      </trkpt>
      <trkpt lat="45.33409" lon="6.21197">
        <ele>2470.24</ele>
        <time>2013-01-09T11:40:16Z</time>
      </trkpt>
      <trkpt lat="45.33408" lon="6.21195">
        <ele>2470.24</ele>
        <time>2013-01-09T11:40:30Z</time>
      </trkpt>
      <trkpt lat="45.33406" lon="6.21196">
        <ele>2468.32</ele>
        <time>2013-01-09T11:40:47Z</time>
      </trkpt>
      <trkpt lat="45.33405" lon="6.21195">
        <ele>2466.88</ele>
        <time>2013-01-09T11:40:59Z</time>
      </trkpt>
      <trkpt lat="45.33402" lon="6.21194">
        <ele>2464</ele>
        <time>2013-01-09T11:41:18Z</time>
      </trkpt>
      <trkpt lat="45.33403" lon="6.21199">
        <ele>2462.55</ele>
        <time>2013-01-09T11:41:31Z</time>
      </trkpt>
      <trkpt lat="45.33404" lon="6.21201">
        <ele>2463.04</ele>
        <time>2013-01-09T11:41:36Z</time>
      </trkpt>
      <trkpt lat="45.334" lon="6.21195">
        <ele>2462.07</ele>
        <time>2013-01-09T11:41:47Z</time>
      </trkpt>
      <trkpt lat="45.334" lon="6.21195">
        <ele>2462.07</ele>
        <time>2013-01-09T11:42:01Z</time>
      </trkpt>
      <trkpt lat="45.334" lon="6.21196">
        <ele>2462.07</ele>
        <time>2013-01-09T11:42:03Z</time>
      </trkpt>
      <trkpt lat="45.334" lon="6.21197">
        <ele>2462.55</ele>
        <time>2013-01-09T11:42:13Z</time>
      </trkpt>
      <trkpt lat="45.334" lon="6.21196">
        <ele>2462.07</ele>
        <time>2013-01-09T11:42:35Z</time>
      </trkpt>
      <trkpt lat="45.334" lon="6.21195">
        <ele>2461.59</ele>
        <time>2013-01-09T11:42:56Z</time>
      </trkpt>
      <trkpt lat="45.33399" lon="6.21194">
        <ele>2461.59</ele>
        <time>2013-01-09T11:43:51Z</time>
      </trkpt>
      <trkpt lat="45.334" lon="6.21192">
        <ele>2461.59</ele>
        <time>2013-01-09T11:44:05Z</time>
      </trkpt>
      <trkpt lat="45.334" lon="6.21192">
        <ele>2461.59</ele>
        <time>2013-01-09T11:44:33Z</time>
      </trkpt>
      <trkpt lat="45.33401" lon="6.21192">
        <ele>2462.07</ele>
        <time>2013-01-09T11:45:20Z</time>
      </trkpt>
      <trkpt lat="45.33401" lon="6.21194">
        <ele>2462.55</ele>
        <time>2013-01-09T11:46:03Z</time>
      </trkpt>
      <trkpt lat="45.33401" lon="6.21196">
        <ele>2461.59</ele>
        <time>2013-01-09T11:46:13Z</time>
      </trkpt>
      <trkpt lat="45.33401" lon="6.21196">
        <ele>2462.07</ele>
        <time>2013-01-09T11:46:31Z</time>
      </trkpt>
      <trkpt lat="45.334" lon="6.21196">
        <ele>2462.55</ele>
        <time>2013-01-09T11:46:45Z</time>
      </trkpt>
      <trkpt lat="45.334" lon="6.21196">
        <ele>2461.59</ele>
        <time>2013-01-09T11:47:07Z</time>
      </trkpt>
      <trkpt lat="45.33399" lon="6.21194">
        <ele>2462.07</ele>
        <time>2013-01-09T11:47:36Z</time>
      </trkpt>
      <trkpt lat="45.33397" lon="6.2119">
        <ele>2460.15</ele>
        <time>2013-01-09T11:47:51Z</time>
      </trkpt>
      <trkpt lat="45.33397" lon="6.21189">
        <ele>2460.63</ele>
        <time>2013-01-09T11:48:13Z</time>
      </trkpt>
      <trkpt lat="45.33397" lon="6.21189">
        <ele>2460.63</ele>
        <time>2013-01-09T11:49:33Z</time>
      </trkpt>
      <trkpt lat="45.33397" lon="6.21189">
        <ele>2460.63</ele>
        <time>2013-01-09T11:51:12Z</time>
      </trkpt>
      <trkpt lat="45.33397" lon="6.21187">
        <ele>2460.15</ele>
        <time>2013-01-09T11:51:20Z</time>
      </trkpt>
      <trkpt lat="45.33395" lon="6.21188">
        <ele>2459.67</ele>
        <time>2013-01-09T11:51:22Z</time>
      </trkpt>
      <trkpt lat="45.33394" lon="6.21185">
        <ele>2458.23</ele>
        <time>2013-01-09T11:51:24Z</time>
      </trkpt>
      <trkpt lat="45.33391" lon="6.21184">
        <ele>2456.79</ele>
        <time>2013-01-09T11:51:26Z</time>
      </trkpt>
      <trkpt lat="45.3339" lon="6.2118">
        <ele>2452.94</ele>
        <time>2013-01-09T11:51:29Z</time>
      </trkpt>
      <trkpt lat="45.33385" lon="6.21176">
        <ele>2449.58</ele>
        <time>2013-01-09T11:51:34Z</time>
      </trkpt>
      <trkpt lat="45.33382" lon="6.21174">
        <ele>2447.17</ele>
        <time>2013-01-09T11:51:37Z</time>
      </trkpt>
      <trkpt lat="45.33381" lon="6.21162">
        <ele>2446.21</ele>
        <time>2013-01-09T11:51:39Z</time>
      </trkpt>
      <trkpt lat="45.3338" lon="6.21157">
        <ele>2444.29</ele>
        <time>2013-01-09T11:51:40Z</time>
      </trkpt>
      <trkpt lat="45.33375" lon="6.21154">
        <ele>2438.52</ele>
        <time>2013-01-09T11:51:43Z</time>
      </trkpt>
      <trkpt lat="45.33372" lon="6.21156">
        <ele>2437.08</ele>
        <time>2013-01-09T11:51:44Z</time>
      </trkpt>
      <trkpt lat="45.33367" lon="6.2116">
        <ele>2433.23</ele>
        <time>2013-01-09T11:51:46Z</time>
      </trkpt>
      <trkpt lat="45.33366" lon="6.21157">
        <ele>2431.31</ele>
        <time>2013-01-09T11:51:48Z</time>
      </trkpt>
      <trkpt lat="45.33364" lon="6.21153">
        <ele>2427.47</ele>
        <time>2013-01-09T11:51:50Z</time>
      </trkpt>
      <trkpt lat="45.33361" lon="6.21151">
        <ele>2425.54</ele>
        <time>2013-01-09T11:51:51Z</time>
      </trkpt>
      <trkpt lat="45.33359" lon="6.21138">
        <ele>2421.7</ele>
        <time>2013-01-09T11:51:53Z</time>
      </trkpt>
      <trkpt lat="45.3335" lon="6.21129">
        <ele>2413.53</ele>
        <time>2013-01-09T11:51:56Z</time>
      </trkpt>
      <trkpt lat="45.33346" lon="6.21125">
        <ele>2414.01</ele>
        <time>2013-01-09T11:51:57Z</time>
      </trkpt>
      <trkpt lat="45.33335" lon="6.21121">
        <ele>2405.36</ele>
        <time>2013-01-09T11:52:00Z</time>
      </trkpt>
      <trkpt lat="45.33327" lon="6.21117">
        <ele>2400.07</ele>
        <time>2013-01-09T11:52:02Z</time>
      </trkpt>
      <trkpt lat="45.33321" lon="6.21116">
        <ele>2394.3</ele>
        <time>2013-01-09T11:52:04Z</time>
      </trkpt>
      <trkpt lat="45.33314" lon="6.21112">
        <ele>2389.01</ele>
        <time>2013-01-09T11:52:06Z</time>
      </trkpt>
      <trkpt lat="45.33313" lon="6.21111">
        <ele>2389.01</ele>
        <time>2013-01-09T11:52:07Z</time>
      </trkpt>
      <trkpt lat="45.33308" lon="6.2111">
        <ele>2384.69</ele>
        <time>2013-01-09T11:52:09Z</time>
      </trkpt>
      <trkpt lat="45.33308" lon="6.2111">
        <ele>2381.32</ele>
        <time>2013-01-09T11:52:11Z</time>
      </trkpt>
      <trkpt lat="45.33308" lon="6.21111">
        <ele>2378.44</ele>
        <time>2013-01-09T11:52:15Z</time>
      </trkpt>
      <trkpt lat="45.33308" lon="6.21112">
        <ele>2378.44</ele>
        <time>2013-01-09T11:53:15Z</time>
      </trkpt>
      <trkpt lat="45.333" lon="6.21104">
        <ele>2374.11</ele>
        <time>2013-01-09T11:53:20Z</time>
      </trkpt>
      <trkpt lat="45.33295" lon="6.211">
        <ele>2372.19</ele>
        <time>2013-01-09T11:53:22Z</time>
      </trkpt>
      <trkpt lat="45.3329" lon="6.21099">
        <ele>2367.86</ele>
        <time>2013-01-09T11:53:24Z</time>
      </trkpt>
      <trkpt lat="45.33283" lon="6.21094">
        <ele>2362.58</ele>
        <time>2013-01-09T11:53:26Z</time>
      </trkpt>
      <trkpt lat="45.33277" lon="6.21089">
        <ele>2356.81</ele>
        <time>2013-01-09T11:53:28Z</time>
      </trkpt>
      <trkpt lat="45.33273" lon="6.21084">
        <ele>2351.04</ele>
        <time>2013-01-09T11:53:30Z</time>
      </trkpt>
      <trkpt lat="45.33267" lon="6.21082">
        <ele>2345.75</ele>
        <time>2013-01-09T11:53:32Z</time>
      </trkpt>
      <trkpt lat="45.33265" lon="6.21081">
        <ele>2345.75</ele>
        <time>2013-01-09T11:53:33Z</time>
      </trkpt>
      <trkpt lat="45.33261" lon="6.21078">
        <ele>2341.43</ele>
        <time>2013-01-09T11:53:35Z</time>
      </trkpt>
      <trkpt lat="45.33258" lon="6.21074">
        <ele>2337.1</ele>
        <time>2013-01-09T11:53:37Z</time>
      </trkpt>
      <trkpt lat="45.33253" lon="6.2107">
        <ele>2334.22</ele>
        <time>2013-01-09T11:53:39Z</time>
      </trkpt>
      <trkpt lat="45.33251" lon="6.21072">
        <ele>2330.85</ele>
        <time>2013-01-09T11:53:41Z</time>
      </trkpt>
      <trkpt lat="45.3325" lon="6.21071">
        <ele>2330.85</ele>
        <time>2013-01-09T11:53:42Z</time>
      </trkpt>
      <trkpt lat="45.33248" lon="6.2107">
        <ele>2327.01</ele>
        <time>2013-01-09T11:53:45Z</time>
      </trkpt>
      <trkpt lat="45.33246" lon="6.21074">
        <ele>2324.61</ele>
        <time>2013-01-09T11:53:49Z</time>
      </trkpt>
      <trkpt lat="45.33243" lon="6.21072">
        <ele>2321.24</ele>
        <time>2013-01-09T11:53:59Z</time>
      </trkpt>
      <trkpt lat="45.3324" lon="6.21056">
        <ele>2316.91</ele>
        <time>2013-01-09T11:54:05Z</time>
      </trkpt>
      <trkpt lat="45.33239" lon="6.21044">
        <ele>2313.55</ele>
        <time>2013-01-09T11:54:07Z</time>
      </trkpt>
      <trkpt lat="45.33236" lon="6.21043">
        <ele>2308.26</ele>
        <time>2013-01-09T11:54:10Z</time>
      </trkpt>
      <trkpt lat="45.33235" lon="6.21044">
        <ele>2306.82</ele>
        <time>2013-01-09T11:54:13Z</time>
      </trkpt>
      <trkpt lat="45.33235" lon="6.21046">
        <ele>2305.86</ele>
        <time>2013-01-09T11:54:24Z</time>
      </trkpt>
      <trkpt lat="45.33232" lon="6.21054">
        <ele>2303.46</ele>
        <time>2013-01-09T11:54:33Z</time>
      </trkpt>
      <trkpt lat="45.33232" lon="6.21054">
        <ele>2304.42</ele>
        <time>2013-01-09T11:56:08Z</time>
      </trkpt>
      <trkpt lat="45.33232" lon="6.21054">
        <ele>2304.42</ele>
        <time>2013-01-09T11:56:16Z</time>
      </trkpt>
      <trkpt lat="45.33224" lon="6.21044">
        <ele>2302.49</ele>
        <time>2013-01-09T11:56:22Z</time>
      </trkpt>
      <trkpt lat="45.33216" lon="6.21044">
        <ele>2298.17</ele>
        <time>2013-01-09T11:56:24Z</time>
      </trkpt>
      <trkpt lat="45.33212" lon="6.21041">
        <ele>2294.8</ele>
        <time>2013-01-09T11:56:25Z</time>
      </trkpt>
      <trkpt lat="45.33208" lon="6.21041">
        <ele>2291.44</ele>
        <time>2013-01-09T11:56:26Z</time>
      </trkpt>
      <trkpt lat="45.33204" lon="6.21038">
        <ele>2287.59</ele>
        <time>2013-01-09T11:56:27Z</time>
      </trkpt>
      <trkpt lat="45.33194" lon="6.21032">
        <ele>2277.5</ele>
        <time>2013-01-09T11:56:30Z</time>
      </trkpt>
      <trkpt lat="45.33192" lon="6.21027">
        <ele>2277.5</ele>
        <time>2013-01-09T11:56:31Z</time>
      </trkpt>
      <trkpt lat="45.33184" lon="6.21018">
        <ele>2268.37</ele>
        <time>2013-01-09T11:56:34Z</time>
      </trkpt>
      <trkpt lat="45.33178" lon="6.21016">
        <ele>2261.64</ele>
        <time>2013-01-09T11:56:36Z</time>
      </trkpt>
      <trkpt lat="45.33176" lon="6.21014">
        <ele>2258.27</ele>
        <time>2013-01-09T11:56:37Z</time>
      </trkpt>
      <trkpt lat="45.33175" lon="6.21014">
        <ele>2254.91</ele>
        <time>2013-01-09T11:56:38Z</time>
      </trkpt>
      <trkpt lat="45.33171" lon="6.21009">
        <ele>2248.66</ele>
        <time>2013-01-09T11:56:40Z</time>
      </trkpt>
      <trkpt lat="45.33168" lon="6.21011">
        <ele>2248.66</ele>
        <time>2013-01-09T11:56:41Z</time>
      </trkpt>
      <trkpt lat="45.33161" lon="6.21009">
        <ele>2243.37</ele>
        <time>2013-01-09T11:56:43Z</time>
      </trkpt>
      <trkpt lat="45.33157" lon="6.21005">
        <ele>2238.09</ele>
        <time>2013-01-09T11:56:45Z</time>
      </trkpt>
      <trkpt lat="45.33155" lon="6.21007">
        <ele>2234.24</ele>
        <time>2013-01-09T11:56:47Z</time>
      </trkpt>
      <trkpt lat="45.33153" lon="6.21007">
        <ele>2230.4</ele>
        <time>2013-01-09T11:56:50Z</time>
      </trkpt>
      <trkpt lat="45.33152" lon="6.21006">
        <ele>2230.4</ele>
        <time>2013-01-09T11:56:51Z</time>
      </trkpt>
      <trkpt lat="45.33147" lon="6.21003">
        <ele>2227.03</ele>
        <time>2013-01-09T11:56:56Z</time>
      </trkpt>
      <trkpt lat="45.33147" lon="6.20999">
        <ele>2223.67</ele>
        <time>2013-01-09T11:57:09Z</time>
      </trkpt>
      <trkpt lat="45.33141" lon="6.20996">
        <ele>2220.3</ele>
        <time>2013-01-09T11:57:15Z</time>
      </trkpt>
      <trkpt lat="45.3313" lon="6.20996">
        <ele>2215.01</ele>
        <time>2013-01-09T11:57:19Z</time>
      </trkpt>
      <trkpt lat="45.33125" lon="6.20994">
        <ele>2210.69</ele>
        <time>2013-01-09T11:57:21Z</time>
      </trkpt>
      <trkpt lat="45.33119" lon="6.20995">
        <ele>2205.88</ele>
        <time>2013-01-09T11:57:23Z</time>
      </trkpt>
      <trkpt lat="45.33115" lon="6.20996">
        <ele>2203.48</ele>
        <time>2013-01-09T11:57:25Z</time>
      </trkpt>
      <trkpt lat="45.33111" lon="6.21002">
        <ele>2199.15</ele>
        <time>2013-01-09T11:57:27Z</time>
      </trkpt>
      <trkpt lat="45.33111" lon="6.21002">
        <ele>2195.79</ele>
        <time>2013-01-09T11:57:30Z</time>
      </trkpt>
      <trkpt lat="45.33111" lon="6.21003">
        <ele>2196.27</ele>
        <time>2013-01-09T11:58:23Z</time>
      </trkpt>
      <trkpt lat="45.33111" lon="6.21003">
        <ele>2196.75</ele>
        <time>2013-01-09T11:59:08Z</time>
      </trkpt>
      <trkpt lat="45.33102" lon="6.21005">
        <ele>2193.39</ele>
        <time>2013-01-09T11:59:12Z</time>
      </trkpt>
      <trkpt lat="45.33094" lon="6.2101">
        <ele>2189.54</ele>
        <time>2013-01-09T11:59:15Z</time>
      </trkpt>
      <trkpt lat="45.33091" lon="6.2101">
        <ele>2185.69</ele>
        <time>2013-01-09T11:59:17Z</time>
      </trkpt>
      <trkpt lat="45.33088" lon="6.21011">
        <ele>2183.77</ele>
        <time>2013-01-09T11:59:18Z</time>
      </trkpt>
      <trkpt lat="45.33081" lon="6.2101">
        <ele>2176.56</ele>
        <time>2013-01-09T11:59:21Z</time>
      </trkpt>
      <trkpt lat="45.33075" lon="6.20991">
        <ele>2169.35</ele>
        <time>2013-01-09T11:59:24Z</time>
      </trkpt>
      <trkpt lat="45.33069" lon="6.20992">
        <ele>2167.43</ele>
        <time>2013-01-09T11:59:26Z</time>
      </trkpt>
      <trkpt lat="45.33062" lon="6.20988">
        <ele>2163.1</ele>
        <time>2013-01-09T11:59:28Z</time>
      </trkpt>
      <trkpt lat="45.33055" lon="6.20987">
        <ele>2158.3</ele>
        <time>2013-01-09T11:59:30Z</time>
      </trkpt>
      <trkpt lat="45.33051" lon="6.20984">
        <ele>2154.93</ele>
        <time>2013-01-09T11:59:31Z</time>
      </trkpt>
      <trkpt lat="45.33042" lon="6.2098">
        <ele>2148.2</ele>
        <time>2013-01-09T11:59:33Z</time>
      </trkpt>
      <trkpt lat="45.3304" lon="6.20978">
        <ele>2145.32</ele>
        <time>2013-01-09T11:59:34Z</time>
      </trkpt>
      <trkpt lat="45.33039" lon="6.20976">
        <ele>2142.44</ele>
        <time>2013-01-09T11:59:35Z</time>
      </trkpt>
      <trkpt lat="45.33037" lon="6.20976">
        <ele>2140.03</ele>
        <time>2013-01-09T11:59:37Z</time>
      </trkpt>
      <trkpt lat="45.33037" lon="6.2097">
        <ele>2135.71</ele>
        <time>2013-01-09T11:59:39Z</time>
      </trkpt>
      <trkpt lat="45.33038" lon="6.20958">
        <ele>2132.34</ele>
        <time>2013-01-09T11:59:43Z</time>
      </trkpt>
      <trkpt lat="45.33035" lon="6.20946">
        <ele>2128.5</ele>
        <time>2013-01-09T11:59:49Z</time>
      </trkpt>
      <trkpt lat="45.33036" lon="6.20926">
        <ele>2123.69</ele>
        <time>2013-01-09T11:59:52Z</time>
      </trkpt>
      <trkpt lat="45.33036" lon="6.20908">
        <ele>2119.36</ele>
        <time>2013-01-09T11:59:54Z</time>
      </trkpt>
      <trkpt lat="45.33039" lon="6.20867">
        <ele>2115.04</ele>
        <time>2013-01-09T12:00:01Z</time>
      </trkpt>
      <trkpt lat="45.33039" lon="6.20855">
        <ele>2113.6</ele>
        <time>2013-01-09T12:00:03Z</time>
      </trkpt>
      <trkpt lat="45.33038" lon="6.20857">
        <ele>2111.19</ele>
        <time>2013-01-09T12:00:08Z</time>
      </trkpt>
      <trkpt lat="45.33039" lon="6.20857">
        <ele>2110.23</ele>
        <time>2013-01-09T12:00:32Z</time>
      </trkpt>
      <trkpt lat="45.33029" lon="6.20859">
        <ele>2108.79</ele>
        <time>2013-01-09T12:00:36Z</time>
      </trkpt>
      <trkpt lat="45.33017" lon="6.20862">
        <ele>2103.02</ele>
        <time>2013-01-09T12:00:39Z</time>
      </trkpt>
      <trkpt lat="45.33011" lon="6.20863">
        <ele>2099.66</ele>
        <time>2013-01-09T12:00:40Z</time>
      </trkpt>
      <trkpt lat="45.33001" lon="6.20855">
        <ele>2091.97</ele>
        <time>2013-01-09T12:00:42Z</time>
      </trkpt>
      <trkpt lat="45.32996" lon="6.20855">
        <ele>2088.12</ele>
        <time>2013-01-09T12:00:43Z</time>
      </trkpt>
      <trkpt lat="45.32991" lon="6.20857">
        <ele>2088.12</ele>
        <time>2013-01-09T12:00:44Z</time>
      </trkpt>
      <trkpt lat="45.32986" lon="6.20856">
        <ele>2083.79</ele>
        <time>2013-01-09T12:00:45Z</time>
      </trkpt>
      <trkpt lat="45.32981" lon="6.20859">
        <ele>2079.95</ele>
        <time>2013-01-09T12:00:46Z</time>
      </trkpt>
      <trkpt lat="45.32976" lon="6.20859">
        <ele>2076.1</ele>
        <time>2013-01-09T12:00:47Z</time>
      </trkpt>
      <trkpt lat="45.32971" lon="6.20859">
        <ele>2072.26</ele>
        <time>2013-01-09T12:00:48Z</time>
      </trkpt>
      <trkpt lat="45.32965" lon="6.2086">
        <ele>2067.93</ele>
        <time>2013-01-09T12:00:49Z</time>
      </trkpt>
      <trkpt lat="45.32953" lon="6.20865">
        <ele>2056.88</ele>
        <time>2013-01-09T12:00:52Z</time>
      </trkpt>
      <trkpt lat="45.32952" lon="6.20872">
        <ele>2052.55</ele>
        <time>2013-01-09T12:00:54Z</time>
      </trkpt>
      <trkpt lat="45.32952" lon="6.20881">
        <ele>2051.59</ele>
        <time>2013-01-09T12:00:56Z</time>
      </trkpt>
      <trkpt lat="45.32951" lon="6.20889">
        <ele>2050.63</ele>
        <time>2013-01-09T12:00:58Z</time>
      </trkpt>
      <trkpt lat="45.32945" lon="6.20889">
        <ele>2048.71</ele>
        <time>2013-01-09T12:01:00Z</time>
      </trkpt>
      <trkpt lat="45.32931" lon="6.20893">
        <ele>2042.94</ele>
        <time>2013-01-09T12:01:03Z</time>
      </trkpt>
      <trkpt lat="45.32924" lon="6.20903">
        <ele>2036.69</ele>
        <time>2013-01-09T12:01:05Z</time>
      </trkpt>
      <trkpt lat="45.3292" lon="6.20905">
        <ele>2033.81</ele>
        <time>2013-01-09T12:01:06Z</time>
      </trkpt>
      <trkpt lat="45.32914" lon="6.20912">
        <ele>2030.44</ele>
        <time>2013-01-09T12:01:08Z</time>
      </trkpt>
      <trkpt lat="45.32909" lon="6.20913">
        <ele>2027.08</ele>
        <time>2013-01-09T12:01:09Z</time>
      </trkpt>
      <trkpt lat="45.32894" lon="6.20925">
        <ele>2016.5</ele>
        <time>2013-01-09T12:01:12Z</time>
      </trkpt>
      <trkpt lat="45.32888" lon="6.20924">
        <ele>2012.18</ele>
        <time>2013-01-09T12:01:13Z</time>
      </trkpt>
      <trkpt lat="45.32883" lon="6.20935">
        <ele>2006.41</ele>
        <time>2013-01-09T12:01:15Z</time>
      </trkpt>
      <trkpt lat="45.3288" lon="6.20939">
        <ele>2002.56</ele>
        <time>2013-01-09T12:01:16Z</time>
      </trkpt>
      <trkpt lat="45.32879" lon="6.20948">
        <ele>1996.32</ele>
        <time>2013-01-09T12:01:18Z</time>
      </trkpt>
      <trkpt lat="45.32883" lon="6.20955">
        <ele>1993.43</ele>
        <time>2013-01-09T12:01:19Z</time>
      </trkpt>
      <trkpt lat="45.32886" lon="6.2097">
        <ele>1989.1</ele>
        <time>2013-01-09T12:01:22Z</time>
      </trkpt>
      <trkpt lat="45.32887" lon="6.2099">
        <ele>1984.3</ele>
        <time>2013-01-09T12:01:24Z</time>
      </trkpt>
      <trkpt lat="45.32883" lon="6.20996">
        <ele>1980.45</ele>
        <time>2013-01-09T12:01:26Z</time>
      </trkpt>
      <trkpt lat="45.32882" lon="6.20996">
        <ele>1977.57</ele>
        <time>2013-01-09T12:01:29Z</time>
      </trkpt>
      <trkpt lat="45.32882" lon="6.20996">
        <ele>1976.61</ele>
        <time>2013-01-09T12:01:51Z</time>
      </trkpt>
      <trkpt lat="45.32872" lon="6.20983">
        <ele>1973.72</ele>
        <time>2013-01-09T12:01:56Z</time>
      </trkpt>
      <trkpt lat="45.3287" lon="6.20982">
        <ele>1972.28</ele>
        <time>2013-01-09T12:01:57Z</time>
      </trkpt>
      <trkpt lat="45.32858" lon="6.20987">
        <ele>1966.03</ele>
        <time>2013-01-09T12:02:00Z</time>
      </trkpt>
      <trkpt lat="45.32853" lon="6.20992">
        <ele>1963.63</ele>
        <time>2013-01-09T12:02:01Z</time>
      </trkpt>
      <trkpt lat="45.32841" lon="6.20994">
        <ele>1951.13</ele>
        <time>2013-01-09T12:02:03Z</time>
      </trkpt>
      <trkpt lat="45.32837" lon="6.20996">
        <ele>1946.81</ele>
        <time>2013-01-09T12:02:04Z</time>
      </trkpt>
      <trkpt lat="45.32831" lon="6.21001">
        <ele>1942</ele>
        <time>2013-01-09T12:02:06Z</time>
      </trkpt>
      <trkpt lat="45.32829" lon="6.21002">
        <ele>1940.56</ele>
        <time>2013-01-09T12:02:08Z</time>
      </trkpt>
      <trkpt lat="45.32836" lon="6.20995">
        <ele>1945.36</ele>
        <time>2013-01-09T12:02:22Z</time>
      </trkpt>
      <trkpt lat="45.32836" lon="6.20996">
        <ele>1944.4</ele>
        <time>2013-01-09T12:02:31Z</time>
      </trkpt>
      <trkpt lat="45.32825" lon="6.21005">
        <ele>1943.44</ele>
        <time>2013-01-09T12:02:35Z</time>
      </trkpt>
      <trkpt lat="45.32816" lon="6.21003">
        <ele>1940.08</ele>
        <time>2013-01-09T12:02:37Z</time>
      </trkpt>
      <trkpt lat="45.32809" lon="6.20987">
        <ele>1932.39</ele>
        <time>2013-01-09T12:02:40Z</time>
      </trkpt>
      <trkpt lat="45.32807" lon="6.20977">
        <ele>1927.58</ele>
        <time>2013-01-09T12:02:42Z</time>
      </trkpt>
      <trkpt lat="45.32804" lon="6.20977">
        <ele>1927.58</ele>
        <time>2013-01-09T12:02:43Z</time>
      </trkpt>
      <trkpt lat="45.32802" lon="6.20973">
        <ele>1925.66</ele>
        <time>2013-01-09T12:02:44Z</time>
      </trkpt>
      <trkpt lat="45.32801" lon="6.20954">
        <ele>1919.89</ele>
        <time>2013-01-09T12:02:47Z</time>
      </trkpt>
      <trkpt lat="45.32798" lon="6.20952">
        <ele>1918.45</ele>
        <time>2013-01-09T12:02:48Z</time>
      </trkpt>
      <trkpt lat="45.3279" lon="6.20964">
        <ele>1915.08</ele>
        <time>2013-01-09T12:02:51Z</time>
      </trkpt>
      <trkpt lat="45.32783" lon="6.20951">
        <ele>1909.8</ele>
        <time>2013-01-09T12:02:54Z</time>
      </trkpt>
      <trkpt lat="45.32784" lon="6.20937">
        <ele>1908.35</ele>
        <time>2013-01-09T12:02:56Z</time>
      </trkpt>
      <trkpt lat="45.32784" lon="6.20924">
        <ele>1904.99</ele>
        <time>2013-01-09T12:02:58Z</time>
      </trkpt>
      <trkpt lat="45.32776" lon="6.20883">
        <ele>1901.63</ele>
        <time>2013-01-09T12:03:07Z</time>
      </trkpt>
      <trkpt lat="45.32767" lon="6.20865">
        <ele>1899.7</ele>
        <time>2013-01-09T12:03:15Z</time>
      </trkpt>
      <trkpt lat="45.32758" lon="6.20842">
        <ele>1896.82</ele>
        <time>2013-01-09T12:03:20Z</time>
      </trkpt>
      <trkpt lat="45.32747" lon="6.20815">
        <ele>1893.45</ele>
        <time>2013-01-09T12:03:26Z</time>
      </trkpt>
      <trkpt lat="45.32744" lon="6.20808">
        <ele>1892.49</ele>
        <time>2013-01-09T12:03:27Z</time>
      </trkpt>
      <trkpt lat="45.32736" lon="6.20796">
        <ele>1890.09</ele>
        <time>2013-01-09T12:03:32Z</time>
      </trkpt>
      <trkpt lat="45.32723" lon="6.20792">
        <ele>1889.13</ele>
        <time>2013-01-09T12:03:48Z</time>
      </trkpt>
      <trkpt lat="45.32704" lon="6.20767">
        <ele>1886.24</ele>
        <time>2013-01-09T12:03:58Z</time>
      </trkpt>
      <trkpt lat="45.3269" lon="6.20742">
        <ele>1882.88</ele>
        <time>2013-01-09T12:04:03Z</time>
      </trkpt>
      <trkpt lat="45.32687" lon="6.20737">
        <ele>1882.4</ele>
        <time>2013-01-09T12:04:04Z</time>
      </trkpt>
      <trkpt lat="45.32679" lon="6.20728">
        <ele>1881.44</ele>
        <time>2013-01-09T12:04:06Z</time>
      </trkpt>
      <trkpt lat="45.32664" lon="6.20721">
        <ele>1879.51</ele>
        <time>2013-01-09T12:04:14Z</time>
      </trkpt>
      <trkpt lat="45.32663" lon="6.20722">
        <ele>1877.59</ele>
        <time>2013-01-09T12:05:46Z</time>
      </trkpt>
      <trkpt lat="45.32663" lon="6.20722">
        <ele>1877.59</ele>
        <time>2013-01-09T12:06:06Z</time>
      </trkpt>
      <trkpt lat="45.32664" lon="6.20721">
        <ele>1877.59</ele>
        <time>2013-01-09T12:06:40Z</time>
      </trkpt>
      <trkpt lat="45.32662" lon="6.20723">
        <ele>1877.59</ele>
        <time>2013-01-09T12:07:11Z</time>
      </trkpt>
      <trkpt lat="45.32662" lon="6.20724">
        <ele>1876.15</ele>
        <time>2013-01-09T12:08:15Z</time>
      </trkpt>
      <trkpt lat="45.32662" lon="6.20723">
        <ele>1875.19</ele>
        <time>2013-01-09T12:08:53Z</time>
      </trkpt>
      <trkpt lat="45.32661" lon="6.20725">
        <ele>1874.71</ele>
        <time>2013-01-09T12:09:17Z</time>
      </trkpt>
      <trkpt lat="45.3266" lon="6.20725">
        <ele>1874.71</ele>
        <time>2013-01-09T12:09:39Z</time>
      </trkpt>
      <trkpt lat="45.3266" lon="6.20726">
        <ele>1874.71</ele>
        <time>2013-01-09T12:10:03Z</time>
      </trkpt>
      <trkpt lat="45.32661" lon="6.20726">
        <ele>1873.75</ele>
        <time>2013-01-09T12:10:25Z</time>
      </trkpt>
      <trkpt lat="45.32656" lon="6.20726">
        <ele>1875.19</ele>
        <time>2013-01-09T12:10:36Z</time>
      </trkpt>
      <trkpt lat="45.32653" lon="6.20724">
        <ele>1876.15</ele>
        <time>2013-01-09T12:10:52Z</time>
      </trkpt>
      <trkpt lat="45.32648" lon="6.20719">
        <ele>1876.63</ele>
        <time>2013-01-09T12:11:10Z</time>
      </trkpt>
      <trkpt lat="45.32644" lon="6.20717">
        <ele>1877.59</ele>
        <time>2013-01-09T12:11:21Z</time>
      </trkpt>
      <trkpt lat="45.32641" lon="6.20717">
        <ele>1878.55</ele>
        <time>2013-01-09T12:11:33Z</time>
      </trkpt>
      <trkpt lat="45.32635" lon="6.20718">
        <ele>1879.51</ele>
        <time>2013-01-09T12:11:45Z</time>
      </trkpt>
      <trkpt lat="45.32628" lon="6.20717">
        <ele>1880.96</ele>
        <time>2013-01-09T12:12:00Z</time>
      </trkpt>
      <trkpt lat="45.32621" lon="6.20717">
        <ele>1882.4</ele>
        <time>2013-01-09T12:12:13Z</time>
      </trkpt>
      <trkpt lat="45.32613" lon="6.20714">
        <ele>1883.84</ele>
        <time>2013-01-09T12:12:27Z</time>
      </trkpt>
      <trkpt lat="45.32608" lon="6.20713">
        <ele>1884.8</ele>
        <time>2013-01-09T12:12:38Z</time>
      </trkpt>
      <trkpt lat="45.32602" lon="6.20712">
        <ele>1885.76</ele>
        <time>2013-01-09T12:12:49Z</time>
      </trkpt>
      <trkpt lat="45.32596" lon="6.20712">
        <ele>1887.21</ele>
        <time>2013-01-09T12:13:00Z</time>
      </trkpt>
      <trkpt lat="45.32589" lon="6.20712">
        <ele>1888.65</ele>
        <time>2013-01-09T12:13:13Z</time>
      </trkpt>
      <trkpt lat="45.32583" lon="6.20713">
        <ele>1889.61</ele>
        <time>2013-01-09T12:13:24Z</time>
      </trkpt>
      <trkpt lat="45.32579" lon="6.20714">
        <ele>1891.05</ele>
        <time>2013-01-09T12:13:35Z</time>
      </trkpt>
      <trkpt lat="45.32573" lon="6.20714">
        <ele>1892.01</ele>
        <time>2013-01-09T12:13:45Z</time>
      </trkpt>
      <trkpt lat="45.32569" lon="6.20711">
        <ele>1893.45</ele>
        <time>2013-01-09T12:13:59Z</time>
      </trkpt>
      <trkpt lat="45.32568" lon="6.20711">
        <ele>1893.93</ele>
        <time>2013-01-09T12:14:21Z</time>
      </trkpt>
      <trkpt lat="45.32567" lon="6.20703">
        <ele>1894.9</ele>
        <time>2013-01-09T12:14:45Z</time>
      </trkpt>
      <trkpt lat="45.32567" lon="6.20694">
        <ele>1896.82</ele>
        <time>2013-01-09T12:14:59Z</time>
      </trkpt>
      <trkpt lat="45.32565" lon="6.20685">
        <ele>1898.26</ele>
        <time>2013-01-09T12:15:15Z</time>
      </trkpt>
      <trkpt lat="45.32565" lon="6.20673">
        <ele>1900.18</ele>
        <time>2013-01-09T12:15:32Z</time>
      </trkpt>
      <trkpt lat="45.32568" lon="6.2066">
        <ele>1902.59</ele>
        <time>2013-01-09T12:15:52Z</time>
      </trkpt>
      <trkpt lat="45.32572" lon="6.20652">
        <ele>1904.51</ele>
        <time>2013-01-09T12:16:06Z</time>
      </trkpt>
      <trkpt lat="45.32574" lon="6.20646">
        <ele>1905.95</ele>
        <time>2013-01-09T12:16:19Z</time>
      </trkpt>
      <trkpt lat="45.32572" lon="6.20645">
        <ele>1905.95</ele>
        <time>2013-01-09T12:16:31Z</time>
      </trkpt>
      <trkpt lat="45.32572" lon="6.20645">
        <ele>1906.43</ele>
        <time>2013-01-09T12:16:56Z</time>
      </trkpt>
      <trkpt lat="45.32573" lon="6.20644">
        <ele>1906.43</ele>
        <time>2013-01-09T12:17:20Z</time>
      </trkpt>
      <trkpt lat="45.32572" lon="6.20643">
        <ele>1905.47</ele>
        <time>2013-01-09T12:17:30Z</time>
      </trkpt>
      <trkpt lat="45.32573" lon="6.20644">
        <ele>1905.47</ele>
        <time>2013-01-09T12:17:58Z</time>
      </trkpt>
      <trkpt lat="45.32573" lon="6.20644">
        <ele>1904.51</ele>
        <time>2013-01-09T12:18:42Z</time>
      </trkpt>
      <trkpt lat="45.32572" lon="6.20642">
        <ele>1904.99</ele>
        <time>2013-01-09T12:19:24Z</time>
      </trkpt>
      <trkpt lat="45.32575" lon="6.20633">
        <ele>1906.43</ele>
        <time>2013-01-09T12:19:37Z</time>
      </trkpt>
      <trkpt lat="45.32576" lon="6.20619">
        <ele>1908.83</ele>
        <time>2013-01-09T12:19:53Z</time>
      </trkpt>
      <trkpt lat="45.32576" lon="6.20607">
        <ele>1911.24</ele>
        <time>2013-01-09T12:20:08Z</time>
      </trkpt>
      <trkpt lat="45.32575" lon="6.20598">
        <ele>1912.68</ele>
        <time>2013-01-09T12:20:20Z</time>
      </trkpt>
      <trkpt lat="45.32573" lon="6.20589">
        <ele>1914.6</ele>
        <time>2013-01-09T12:20:32Z</time>
      </trkpt>
      <trkpt lat="45.32572" lon="6.20578">
        <ele>1917.01</ele>
        <time>2013-01-09T12:20:46Z</time>
      </trkpt>
      <trkpt lat="45.32571" lon="6.20572">
        <ele>1918.45</ele>
        <time>2013-01-09T12:20:58Z</time>
      </trkpt>
      <trkpt lat="45.32571" lon="6.20564">
        <ele>1919.89</ele>
        <time>2013-01-09T12:21:09Z</time>
      </trkpt>
      <trkpt lat="45.32569" lon="6.20554">
        <ele>1921.81</ele>
        <time>2013-01-09T12:21:22Z</time>
      </trkpt>
      <trkpt lat="45.32568" lon="6.20546">
        <ele>1923.25</ele>
        <time>2013-01-09T12:21:34Z</time>
      </trkpt>
      <trkpt lat="45.32567" lon="6.20536">
        <ele>1925.18</ele>
        <time>2013-01-09T12:21:47Z</time>
      </trkpt>
      <trkpt lat="45.32563" lon="6.20538">
        <ele>1926.62</ele>
        <time>2013-01-09T12:22:00Z</time>
      </trkpt>
      <trkpt lat="45.32558" lon="6.20541">
        <ele>1928.06</ele>
        <time>2013-01-09T12:22:11Z</time>
      </trkpt>
      <trkpt lat="45.32552" lon="6.20544">
        <ele>1929.5</ele>
        <time>2013-01-09T12:22:22Z</time>
      </trkpt>
      <trkpt lat="45.32547" lon="6.20546">
        <ele>1930.95</ele>
        <time>2013-01-09T12:22:33Z</time>
      </trkpt>
      <trkpt lat="45.3254" lon="6.20551">
        <ele>1932.39</ele>
        <time>2013-01-09T12:22:45Z</time>
      </trkpt>
      <trkpt lat="45.32535" lon="6.20554">
        <ele>1933.83</ele>
        <time>2013-01-09T12:22:56Z</time>
      </trkpt>
      <trkpt lat="45.32532" lon="6.20557">
        <ele>1934.79</ele>
        <time>2013-01-09T12:23:19Z</time>
      </trkpt>
      <trkpt lat="45.32527" lon="6.20561">
        <ele>1935.75</ele>
        <time>2013-01-09T12:23:30Z</time>
      </trkpt>
      <trkpt lat="45.32521" lon="6.20564">
        <ele>1937.67</ele>
        <time>2013-01-09T12:23:41Z</time>
      </trkpt>
      <trkpt lat="45.32515" lon="6.20568">
        <ele>1939.12</ele>
        <time>2013-01-09T12:23:52Z</time>
      </trkpt>
      <trkpt lat="45.32512" lon="6.20568">
        <ele>1940.08</ele>
        <time>2013-01-09T12:24:03Z</time>
      </trkpt>
      <trkpt lat="45.32507" lon="6.20569">
        <ele>1941.52</ele>
        <time>2013-01-09T12:24:14Z</time>
      </trkpt>
      <trkpt lat="45.32504" lon="6.20569">
        <ele>1942</ele>
        <time>2013-01-09T12:24:21Z</time>
      </trkpt>
      <trkpt lat="45.32496" lon="6.20573">
        <ele>1943.44</ele>
        <time>2013-01-09T12:24:34Z</time>
      </trkpt>
      <trkpt lat="45.32498" lon="6.20566">
        <ele>1943.44</ele>
        <time>2013-01-09T12:24:48Z</time>
      </trkpt>
      <trkpt lat="45.325" lon="6.20557">
        <ele>1945.85</ele>
        <time>2013-01-09T12:25:01Z</time>
      </trkpt>
      <trkpt lat="45.32502" lon="6.20549">
        <ele>1947.29</ele>
        <time>2013-01-09T12:25:12Z</time>
      </trkpt>
      <trkpt lat="45.32503" lon="6.20539">
        <ele>1948.73</ele>
        <time>2013-01-09T12:25:27Z</time>
      </trkpt>
      <trkpt lat="45.32504" lon="6.20528">
        <ele>1951.13</ele>
        <time>2013-01-09T12:25:41Z</time>
      </trkpt>
      <trkpt lat="45.32505" lon="6.20518">
        <ele>1952.57</ele>
        <time>2013-01-09T12:25:57Z</time>
      </trkpt>
      <trkpt lat="45.32505" lon="6.20509">
        <ele>1954.98</ele>
        <time>2013-01-09T12:26:12Z</time>
      </trkpt>
      <trkpt lat="45.32505" lon="6.20501">
        <ele>1956.42</ele>
        <time>2013-01-09T12:26:25Z</time>
      </trkpt>
      <trkpt lat="45.32505" lon="6.20491">
        <ele>1958.34</ele>
        <time>2013-01-09T12:26:39Z</time>
      </trkpt>
      <trkpt lat="45.32505" lon="6.20489">
        <ele>1958.34</ele>
        <time>2013-01-09T12:26:43Z</time>
      </trkpt>
      <trkpt lat="45.32505" lon="6.20482">
        <ele>1959.78</ele>
        <time>2013-01-09T12:26:53Z</time>
      </trkpt>
      <trkpt lat="45.32505" lon="6.20475">
        <ele>1961.23</ele>
        <time>2013-01-09T12:27:05Z</time>
      </trkpt>
      <trkpt lat="45.32504" lon="6.20468">
        <ele>1963.15</ele>
        <time>2013-01-09T12:27:16Z</time>
      </trkpt>
      <trkpt lat="45.32505" lon="6.20462">
        <ele>1964.11</ele>
        <time>2013-01-09T12:27:29Z</time>
      </trkpt>
      <trkpt lat="45.32504" lon="6.20454">
        <ele>1965.07</ele>
        <time>2013-01-09T12:27:42Z</time>
      </trkpt>
      <trkpt lat="45.32502" lon="6.20444">
        <ele>1967.48</ele>
        <time>2013-01-09T12:27:56Z</time>
      </trkpt>
      <trkpt lat="45.32501" lon="6.20438">
        <ele>1968.44</ele>
        <time>2013-01-09T12:28:09Z</time>
      </trkpt>
      <trkpt lat="45.325" lon="6.2043">
        <ele>1970.36</ele>
        <time>2013-01-09T12:28:24Z</time>
      </trkpt>
      <trkpt lat="45.32499" lon="6.20422">
        <ele>1971.8</ele>
        <time>2013-01-09T12:28:36Z</time>
      </trkpt>
      <trkpt lat="45.32498" lon="6.20412">
        <ele>1973.72</ele>
        <time>2013-01-09T12:28:49Z</time>
      </trkpt>
      <trkpt lat="45.32496" lon="6.20402">
        <ele>1975.65</ele>
        <time>2013-01-09T12:29:03Z</time>
      </trkpt>
      <trkpt lat="45.32495" lon="6.20395">
        <ele>1977.57</ele>
        <time>2013-01-09T12:29:14Z</time>
      </trkpt>
      <trkpt lat="45.32494" lon="6.20386">
        <ele>1979.49</ele>
        <time>2013-01-09T12:29:27Z</time>
      </trkpt>
      <trkpt lat="45.32493" lon="6.20378">
        <ele>1980.93</ele>
        <time>2013-01-09T12:29:40Z</time>
      </trkpt>
      <trkpt lat="45.32493" lon="6.20373">
        <ele>1981.9</ele>
        <time>2013-01-09T12:29:59Z</time>
      </trkpt>
      <trkpt lat="45.32491" lon="6.20362">
        <ele>1984.3</ele>
        <time>2013-01-09T12:30:14Z</time>
      </trkpt>
      <trkpt lat="45.32489" lon="6.20354">
        <ele>1985.74</ele>
        <time>2013-01-09T12:30:25Z</time>
      </trkpt>
      <trkpt lat="45.32487" lon="6.20343">
        <ele>1987.66</ele>
        <time>2013-01-09T12:30:39Z</time>
      </trkpt>
      <trkpt lat="45.32484" lon="6.20334">
        <ele>1989.1</ele>
        <time>2013-01-09T12:30:53Z</time>
      </trkpt>
      <trkpt lat="45.32482" lon="6.20327">
        <ele>1990.55</ele>
        <time>2013-01-09T12:31:05Z</time>
      </trkpt>
      <trkpt lat="45.3248" lon="6.20319">
        <ele>1992.47</ele>
        <time>2013-01-09T12:31:19Z</time>
      </trkpt>
      <trkpt lat="45.32479" lon="6.20312">
        <ele>1993.91</ele>
        <time>2013-01-09T12:31:32Z</time>
      </trkpt>
      <trkpt lat="45.32478" lon="6.20316">
        <ele>1994.87</ele>
        <time>2013-01-09T12:31:43Z</time>
      </trkpt>
      <trkpt lat="45.32476" lon="6.20321">
        <ele>1995.83</ele>
        <time>2013-01-09T12:31:54Z</time>
      </trkpt>
      <trkpt lat="45.32473" lon="6.20327">
        <ele>1997.28</ele>
        <time>2013-01-09T12:32:04Z</time>
      </trkpt>
      <trkpt lat="45.3247" lon="6.20331">
        <ele>1998.24</ele>
        <time>2013-01-09T12:32:17Z</time>
      </trkpt>
      <trkpt lat="45.32466" lon="6.20338">
        <ele>1999.68</ele>
        <time>2013-01-09T12:32:27Z</time>
      </trkpt>
      <trkpt lat="45.32461" lon="6.20344">
        <ele>2001.12</ele>
        <time>2013-01-09T12:32:39Z</time>
      </trkpt>
      <trkpt lat="45.32458" lon="6.20351">
        <ele>2003.04</ele>
        <time>2013-01-09T12:32:51Z</time>
      </trkpt>
      <trkpt lat="45.32455" lon="6.20355">
        <ele>2004.97</ele>
        <time>2013-01-09T12:33:00Z</time>
      </trkpt>
      <trkpt lat="45.32454" lon="6.20357">
        <ele>2004.97</ele>
        <time>2013-01-09T12:33:36Z</time>
      </trkpt>
      <trkpt lat="45.32451" lon="6.20363">
        <ele>2005.93</ele>
        <time>2013-01-09T12:33:46Z</time>
      </trkpt>
      <trkpt lat="45.32447" lon="6.20369">
        <ele>2007.85</ele>
        <time>2013-01-09T12:33:57Z</time>
      </trkpt>
      <trkpt lat="45.32443" lon="6.20377">
        <ele>2009.77</ele>
        <time>2013-01-09T12:34:08Z</time>
      </trkpt>
      <trkpt lat="45.32439" lon="6.20383">
        <ele>2010.73</ele>
        <time>2013-01-09T12:34:20Z</time>
      </trkpt>
      <trkpt lat="45.32436" lon="6.20381">
        <ele>2012.66</ele>
        <time>2013-01-09T12:34:32Z</time>
      </trkpt>
      <trkpt lat="45.32435" lon="6.20371">
        <ele>2014.1</ele>
        <time>2013-01-09T12:34:46Z</time>
      </trkpt>
      <trkpt lat="45.32434" lon="6.20363">
        <ele>2015.54</ele>
        <time>2013-01-09T12:34:58Z</time>
      </trkpt>
      <trkpt lat="45.32432" lon="6.20354">
        <ele>2017.46</ele>
        <time>2013-01-09T12:35:12Z</time>
      </trkpt>
      <trkpt lat="45.32431" lon="6.20345">
        <ele>2019.39</ele>
        <time>2013-01-09T12:35:26Z</time>
      </trkpt>
      <trkpt lat="45.32428" lon="6.20337">
        <ele>2021.31</ele>
        <time>2013-01-09T12:35:41Z</time>
      </trkpt>
      <trkpt lat="45.32427" lon="6.20339">
        <ele>2023.23</ele>
        <time>2013-01-09T12:35:54Z</time>
      </trkpt>
      <trkpt lat="45.32424" lon="6.20345">
        <ele>2024.67</ele>
        <time>2013-01-09T12:36:07Z</time>
      </trkpt>
      <trkpt lat="45.32421" lon="6.2035">
        <ele>2025.64</ele>
        <time>2013-01-09T12:36:16Z</time>
      </trkpt>
      <trkpt lat="45.32417" lon="6.20356">
        <ele>2026.6</ele>
        <time>2013-01-09T12:36:26Z</time>
      </trkpt>
      <trkpt lat="45.32414" lon="6.20361">
        <ele>2028.04</ele>
        <time>2013-01-09T12:36:40Z</time>
      </trkpt>
      <trkpt lat="45.32412" lon="6.20367">
        <ele>2029</ele>
        <time>2013-01-09T12:36:51Z</time>
      </trkpt>
      <trkpt lat="45.32408" lon="6.20373">
        <ele>2030.44</ele>
        <time>2013-01-09T12:37:02Z</time>
      </trkpt>
      <trkpt lat="45.32405" lon="6.20367">
        <ele>2030.92</ele>
        <time>2013-01-09T12:37:13Z</time>
      </trkpt>
      <trkpt lat="45.32404" lon="6.20359">
        <ele>2032.36</ele>
        <time>2013-01-09T12:37:24Z</time>
      </trkpt>
      <trkpt lat="45.32404" lon="6.20351">
        <ele>2033.81</ele>
        <time>2013-01-09T12:37:36Z</time>
      </trkpt>
      <trkpt lat="45.32403" lon="6.20342">
        <ele>2035.73</ele>
        <time>2013-01-09T12:37:50Z</time>
      </trkpt>
      <trkpt lat="45.32402" lon="6.20332">
        <ele>2037.17</ele>
        <time>2013-01-09T12:38:04Z</time>
      </trkpt>
      <trkpt lat="45.32401" lon="6.20325">
        <ele>2038.61</ele>
        <time>2013-01-09T12:38:15Z</time>
      </trkpt>
      <trkpt lat="45.32401" lon="6.20319">
        <ele>2039.57</ele>
        <time>2013-01-09T12:38:25Z</time>
      </trkpt>
      <trkpt lat="45.32401" lon="6.2031">
        <ele>2041.02</ele>
        <time>2013-01-09T12:38:39Z</time>
      </trkpt>
      <trkpt lat="45.324" lon="6.20312">
        <ele>2041.98</ele>
        <time>2013-01-09T12:38:50Z</time>
      </trkpt>
      <trkpt lat="45.32397" lon="6.20317">
        <ele>2043.42</ele>
        <time>2013-01-09T12:39:01Z</time>
      </trkpt>
      <trkpt lat="45.32395" lon="6.20322">
        <ele>2044.86</ele>
        <time>2013-01-09T12:39:10Z</time>
      </trkpt>
      <trkpt lat="45.32391" lon="6.20328">
        <ele>2045.82</ele>
        <time>2013-01-09T12:39:20Z</time>
      </trkpt>
      <trkpt lat="45.32388" lon="6.20335">
        <ele>2047.75</ele>
        <time>2013-01-09T12:39:32Z</time>
      </trkpt>
      <trkpt lat="45.32385" lon="6.2034">
        <ele>2048.71</ele>
        <time>2013-01-09T12:39:42Z</time>
      </trkpt>
      <trkpt lat="45.3238" lon="6.20347">
        <ele>2050.63</ele>
        <time>2013-01-09T12:39:54Z</time>
      </trkpt>
      <trkpt lat="45.32374" lon="6.20353">
        <ele>2052.07</ele>
        <time>2013-01-09T12:40:06Z</time>
      </trkpt>
      <trkpt lat="45.3237" lon="6.20359">
        <ele>2053.99</ele>
        <time>2013-01-09T12:40:17Z</time>
      </trkpt>
      <trkpt lat="45.32368" lon="6.20361">
        <ele>2054.47</ele>
        <time>2013-01-09T12:40:20Z</time>
      </trkpt>
      <trkpt lat="45.32365" lon="6.20366">
        <ele>2055.44</ele>
        <time>2013-01-09T12:40:30Z</time>
      </trkpt>
      <trkpt lat="45.32362" lon="6.20368">
        <ele>2056.4</ele>
        <time>2013-01-09T12:40:41Z</time>
      </trkpt>
      <trkpt lat="45.32363" lon="6.2036">
        <ele>2056.88</ele>
        <time>2013-01-09T12:40:52Z</time>
      </trkpt>
      <trkpt lat="45.32363" lon="6.20351">
        <ele>2057.84</ele>
        <time>2013-01-09T12:41:04Z</time>
      </trkpt>
      <trkpt lat="45.32364" lon="6.20339">
        <ele>2060.24</ele>
        <time>2013-01-09T12:41:19Z</time>
      </trkpt>
      <trkpt lat="45.32363" lon="6.20329">
        <ele>2062.17</ele>
        <time>2013-01-09T12:41:31Z</time>
      </trkpt>
      <trkpt lat="45.32362" lon="6.20319">
        <ele>2064.09</ele>
        <time>2013-01-09T12:41:45Z</time>
      </trkpt>
      <trkpt lat="45.3236" lon="6.20308">
        <ele>2066.01</ele>
        <time>2013-01-09T12:41:59Z</time>
      </trkpt>
      <trkpt lat="45.32361" lon="6.203">
        <ele>2067.93</ele>
        <time>2013-01-09T12:42:11Z</time>
      </trkpt>
      <trkpt lat="45.3236" lon="6.20301">
        <ele>2068.89</ele>
        <time>2013-01-09T12:42:24Z</time>
      </trkpt>
      <trkpt lat="45.32357" lon="6.20306">
        <ele>2069.86</ele>
        <time>2013-01-09T12:42:33Z</time>
      </trkpt>
      <trkpt lat="45.32353" lon="6.20314">
        <ele>2071.78</ele>
        <time>2013-01-09T12:42:46Z</time>
      </trkpt>
      <trkpt lat="45.32349" lon="6.2032">
        <ele>2073.22</ele>
        <time>2013-01-09T12:42:57Z</time>
      </trkpt>
      <trkpt lat="45.32347" lon="6.20323">
        <ele>2073.7</ele>
        <time>2013-01-09T12:43:03Z</time>
      </trkpt>
      <trkpt lat="45.32343" lon="6.2033">
        <ele>2075.14</ele>
        <time>2013-01-09T12:43:15Z</time>
      </trkpt>
      <trkpt lat="45.32338" lon="6.20335">
        <ele>2076.59</ele>
        <time>2013-01-09T12:43:24Z</time>
      </trkpt>
      <trkpt lat="45.32336" lon="6.20339">
        <ele>2077.55</ele>
        <time>2013-01-09T12:43:31Z</time>
      </trkpt>
      <trkpt lat="45.3233" lon="6.20344">
        <ele>2079.47</ele>
        <time>2013-01-09T12:43:42Z</time>
      </trkpt>
      <trkpt lat="45.32326" lon="6.20348">
        <ele>2080.91</ele>
        <time>2013-01-09T12:43:53Z</time>
      </trkpt>
      <trkpt lat="45.32324" lon="6.20348">
        <ele>2081.87</ele>
        <time>2013-01-09T12:44:20Z</time>
      </trkpt>
      <trkpt lat="45.32325" lon="6.20341">
        <ele>2082.35</ele>
        <time>2013-01-09T12:44:35Z</time>
      </trkpt>
      <trkpt lat="45.32326" lon="6.20336">
        <ele>2083.31</ele>
        <time>2013-01-09T12:44:57Z</time>
      </trkpt>
      <trkpt lat="45.32326" lon="6.20331">
        <ele>2083.79</ele>
        <time>2013-01-09T12:45:05Z</time>
      </trkpt>
      <trkpt lat="45.32327" lon="6.20321">
        <ele>2085.72</ele>
        <time>2013-01-09T12:45:17Z</time>
      </trkpt>
      <trkpt lat="45.32326" lon="6.20308">
        <ele>2088.6</ele>
        <time>2013-01-09T12:45:34Z</time>
      </trkpt>
      <trkpt lat="45.32326" lon="6.20298">
        <ele>2090.04</ele>
        <time>2013-01-09T12:45:47Z</time>
      </trkpt>
      <trkpt lat="45.32326" lon="6.2029">
        <ele>2092.45</ele>
        <time>2013-01-09T12:45:59Z</time>
      </trkpt>
      <trkpt lat="45.32328" lon="6.2029">
        <ele>2093.89</ele>
        <time>2013-01-09T12:46:18Z</time>
      </trkpt>
      <trkpt lat="45.32325" lon="6.20294">
        <ele>2094.37</ele>
        <time>2013-01-09T12:47:00Z</time>
      </trkpt>
      <trkpt lat="45.32323" lon="6.20296">
        <ele>2094.85</ele>
        <time>2013-01-09T12:47:04Z</time>
      </trkpt>
      <trkpt lat="45.32316" lon="6.20302">
        <ele>2096.77</ele>
        <time>2013-01-09T12:47:16Z</time>
      </trkpt>
      <trkpt lat="45.32312" lon="6.20308">
        <ele>2097.73</ele>
        <time>2013-01-09T12:47:26Z</time>
      </trkpt>
      <trkpt lat="45.32308" lon="6.20313">
        <ele>2099.18</ele>
        <time>2013-01-09T12:47:36Z</time>
      </trkpt>
      <trkpt lat="45.32305" lon="6.20317">
        <ele>2101.1</ele>
        <time>2013-01-09T12:47:45Z</time>
      </trkpt>
      <trkpt lat="45.323" lon="6.20323">
        <ele>2102.54</ele>
        <time>2013-01-09T12:47:56Z</time>
      </trkpt>
      <trkpt lat="45.32295" lon="6.20329">
        <ele>2103.5</ele>
        <time>2013-01-09T12:48:05Z</time>
      </trkpt>
      <trkpt lat="45.32291" lon="6.20335">
        <ele>2105.42</ele>
        <time>2013-01-09T12:48:18Z</time>
      </trkpt>
      <trkpt lat="45.32289" lon="6.20336">
        <ele>2105.91</ele>
        <time>2013-01-09T12:48:29Z</time>
      </trkpt>
      <trkpt lat="45.32288" lon="6.20333">
        <ele>2105.42</ele>
        <time>2013-01-09T12:48:41Z</time>
      </trkpt>
      <trkpt lat="45.3229" lon="6.20325">
        <ele>2106.87</ele>
        <time>2013-01-09T12:48:54Z</time>
      </trkpt>
      <trkpt lat="45.3229" lon="6.20316">
        <ele>2108.79</ele>
        <time>2013-01-09T12:49:06Z</time>
      </trkpt>
      <trkpt lat="45.32291" lon="6.20305">
        <ele>2110.23</ele>
        <time>2013-01-09T12:49:19Z</time>
      </trkpt>
      <trkpt lat="45.32292" lon="6.20294">
        <ele>2113.12</ele>
        <time>2013-01-09T12:49:34Z</time>
      </trkpt>
      <trkpt lat="45.32293" lon="6.20284">
        <ele>2113.6</ele>
        <time>2013-01-09T12:49:48Z</time>
      </trkpt>
      <trkpt lat="45.32294" lon="6.20282">
        <ele>2115.52</ele>
        <time>2013-01-09T12:50:01Z</time>
      </trkpt>
      <trkpt lat="45.3229" lon="6.20285">
        <ele>2116</ele>
        <time>2013-01-09T12:50:15Z</time>
      </trkpt>
      <trkpt lat="45.32286" lon="6.2029">
        <ele>2117.92</ele>
        <time>2013-01-09T12:50:27Z</time>
      </trkpt>
      <trkpt lat="45.32281" lon="6.20295">
        <ele>2119.36</ele>
        <time>2013-01-09T12:50:37Z</time>
      </trkpt>
      <trkpt lat="45.32276" lon="6.203">
        <ele>2120.81</ele>
        <time>2013-01-09T12:50:49Z</time>
      </trkpt>
      <trkpt lat="45.32272" lon="6.20306">
        <ele>2122.25</ele>
        <time>2013-01-09T12:51:00Z</time>
      </trkpt>
      <trkpt lat="45.3227" lon="6.20309">
        <ele>2123.21</ele>
        <time>2013-01-09T12:51:12Z</time>
      </trkpt>
      <trkpt lat="45.3227" lon="6.203">
        <ele>2123.69</ele>
        <time>2013-01-09T12:51:29Z</time>
      </trkpt>
      <trkpt lat="45.32271" lon="6.2029">
        <ele>2125.61</ele>
        <time>2013-01-09T12:51:43Z</time>
      </trkpt>
      <trkpt lat="45.32272" lon="6.20283">
        <ele>2126.57</ele>
        <time>2013-01-09T12:51:54Z</time>
      </trkpt>
      <trkpt lat="45.32274" lon="6.20269">
        <ele>2128.98</ele>
        <time>2013-01-09T12:52:10Z</time>
      </trkpt>
      <trkpt lat="45.32277" lon="6.20258">
        <ele>2130.42</ele>
        <time>2013-01-09T12:52:25Z</time>
      </trkpt>
      <trkpt lat="45.32279" lon="6.2024">
        <ele>2132.34</ele>
        <time>2013-01-09T12:52:42Z</time>
      </trkpt>
      <trkpt lat="45.32284" lon="6.20234">
        <ele>2133.78</ele>
        <time>2013-01-09T12:52:53Z</time>
      </trkpt>
      <trkpt lat="45.32284" lon="6.20233">
        <ele>2134.74</ele>
        <time>2013-01-09T12:53:11Z</time>
      </trkpt>
      <trkpt lat="45.32276" lon="6.20236">
        <ele>2136.67</ele>
        <time>2013-01-09T12:54:09Z</time>
      </trkpt>
      <trkpt lat="45.32272" lon="6.20238">
        <ele>2137.15</ele>
        <time>2013-01-09T12:54:18Z</time>
      </trkpt>
      <trkpt lat="45.32268" lon="6.2024">
        <ele>2138.59</ele>
        <time>2013-01-09T12:54:28Z</time>
      </trkpt>
      <trkpt lat="45.32267" lon="6.20241">
        <ele>2139.55</ele>
        <time>2013-01-09T12:54:33Z</time>
      </trkpt>
      <trkpt lat="45.32262" lon="6.20247">
        <ele>2140.99</ele>
        <time>2013-01-09T12:54:43Z</time>
      </trkpt>
      <trkpt lat="45.32256" lon="6.20257">
        <ele>2142.92</ele>
        <time>2013-01-09T12:54:53Z</time>
      </trkpt>
      <trkpt lat="45.32251" lon="6.20267">
        <ele>2143.88</ele>
        <time>2013-01-09T12:55:04Z</time>
      </trkpt>
      <trkpt lat="45.32244" lon="6.20274">
        <ele>2145.8</ele>
        <time>2013-01-09T12:55:17Z</time>
      </trkpt>
      <trkpt lat="45.32241" lon="6.20281">
        <ele>2147.24</ele>
        <time>2013-01-09T12:55:28Z</time>
      </trkpt>
      <trkpt lat="45.32237" lon="6.20286">
        <ele>2147.72</ele>
        <time>2013-01-09T12:55:37Z</time>
      </trkpt>
      <trkpt lat="45.32233" lon="6.20291">
        <ele>2149.16</ele>
        <time>2013-01-09T12:55:47Z</time>
      </trkpt>
      <trkpt lat="45.32231" lon="6.20292">
        <ele>2150.13</ele>
        <time>2013-01-09T12:55:57Z</time>
      </trkpt>
      <trkpt lat="45.32231" lon="6.20284">
        <ele>2151.57</ele>
        <time>2013-01-09T12:56:15Z</time>
      </trkpt>
      <trkpt lat="45.32232" lon="6.20277">
        <ele>2153.01</ele>
        <time>2013-01-09T12:56:28Z</time>
      </trkpt>
      <trkpt lat="45.32233" lon="6.20275">
        <ele>2153.97</ele>
        <time>2013-01-09T12:56:42Z</time>
      </trkpt>
      <trkpt lat="45.32233" lon="6.20273">
        <ele>2153.49</ele>
        <time>2013-01-09T12:57:00Z</time>
      </trkpt>
      <trkpt lat="45.32233" lon="6.20269">
        <ele>2154.93</ele>
        <time>2013-01-09T12:57:16Z</time>
      </trkpt>
      <trkpt lat="45.32233" lon="6.20262">
        <ele>2156.37</ele>
        <time>2013-01-09T12:57:29Z</time>
      </trkpt>
      <trkpt lat="45.32235" lon="6.20251">
        <ele>2157.82</ele>
        <time>2013-01-09T12:57:41Z</time>
      </trkpt>
      <trkpt lat="45.32236" lon="6.20244">
        <ele>2160.7</ele>
        <time>2013-01-09T12:57:56Z</time>
      </trkpt>
      <trkpt lat="45.32233" lon="6.20246">
        <ele>2161.66</ele>
        <time>2013-01-09T12:58:08Z</time>
      </trkpt>
      <trkpt lat="45.32229" lon="6.20249">
        <ele>2162.62</ele>
        <time>2013-01-09T12:58:19Z</time>
      </trkpt>
      <trkpt lat="45.32224" lon="6.20254">
        <ele>2164.55</ele>
        <time>2013-01-09T12:58:31Z</time>
      </trkpt>
      <trkpt lat="45.3222" lon="6.2026">
        <ele>2165.51</ele>
        <time>2013-01-09T12:58:44Z</time>
      </trkpt>
      <trkpt lat="45.32216" lon="6.20264">
        <ele>2165.99</ele>
        <time>2013-01-09T12:58:56Z</time>
      </trkpt>
      <trkpt lat="45.32212" lon="6.20271">
        <ele>2167.91</ele>
        <time>2013-01-09T12:59:08Z</time>
      </trkpt>
      <trkpt lat="45.32208" lon="6.20277">
        <ele>2168.87</ele>
        <time>2013-01-09T12:59:20Z</time>
      </trkpt>
      <trkpt lat="45.32205" lon="6.20281">
        <ele>2169.83</ele>
        <time>2013-01-09T12:59:31Z</time>
      </trkpt>
      <trkpt lat="45.32201" lon="6.2028">
        <ele>2170.31</ele>
        <time>2013-01-09T13:00:37Z</time>
      </trkpt>
      <trkpt lat="45.32199" lon="6.20284">
        <ele>2170.79</ele>
        <time>2013-01-09T13:00:49Z</time>
      </trkpt>
      <trkpt lat="45.32196" lon="6.20288">
        <ele>2171.27</ele>
        <time>2013-01-09T13:00:54Z</time>
      </trkpt>
      <trkpt lat="45.32194" lon="6.20302">
        <ele>2173.2</ele>
        <time>2013-01-09T13:01:09Z</time>
      </trkpt>
      <trkpt lat="45.32192" lon="6.20299">
        <ele>2174.16</ele>
        <time>2013-01-09T13:01:21Z</time>
      </trkpt>
      <trkpt lat="45.32191" lon="6.20297">
        <ele>2174.64</ele>
        <time>2013-01-09T13:01:25Z</time>
      </trkpt>
      <trkpt lat="45.32186" lon="6.20283">
        <ele>2177.04</ele>
        <time>2013-01-09T13:01:43Z</time>
      </trkpt>
      <trkpt lat="45.32188" lon="6.20272">
        <ele>2178.97</ele>
        <time>2013-01-09T13:02:02Z</time>
      </trkpt>
      <trkpt lat="45.32191" lon="6.20266">
        <ele>2180.41</ele>
        <time>2013-01-09T13:02:15Z</time>
      </trkpt>
      <trkpt lat="45.32194" lon="6.20256">
        <ele>2181.85</ele>
        <time>2013-01-09T13:02:27Z</time>
      </trkpt>
      <trkpt lat="45.32196" lon="6.20246">
        <ele>2183.29</ele>
        <time>2013-01-09T13:02:40Z</time>
      </trkpt>
      <trkpt lat="45.32197" lon="6.20237">
        <ele>2185.21</ele>
        <time>2013-01-09T13:02:53Z</time>
      </trkpt>
      <trkpt lat="45.32196" lon="6.20239">
        <ele>2185.69</ele>
        <time>2013-01-09T13:03:09Z</time>
      </trkpt>
      <trkpt lat="45.32193" lon="6.20243">
        <ele>2187.14</ele>
        <time>2013-01-09T13:03:19Z</time>
      </trkpt>
      <trkpt lat="45.3219" lon="6.20249">
        <ele>2188.1</ele>
        <time>2013-01-09T13:03:30Z</time>
      </trkpt>
      <trkpt lat="45.32185" lon="6.20256">
        <ele>2189.06</ele>
        <time>2013-01-09T13:03:42Z</time>
      </trkpt>
      <trkpt lat="45.32181" lon="6.20264">
        <ele>2190.5</ele>
        <time>2013-01-09T13:03:54Z</time>
      </trkpt>
      <trkpt lat="45.32176" lon="6.2027">
        <ele>2191.46</ele>
        <time>2013-01-09T13:04:07Z</time>
      </trkpt>
      <trkpt lat="45.32168" lon="6.2028">
        <ele>2193.87</ele>
        <time>2013-01-09T13:04:25Z</time>
      </trkpt>
      <trkpt lat="45.32166" lon="6.20286">
        <ele>2194.35</ele>
        <time>2013-01-09T13:04:40Z</time>
      </trkpt>
      <trkpt lat="45.32164" lon="6.20295">
        <ele>2196.27</ele>
        <time>2013-01-09T13:04:51Z</time>
      </trkpt>
      <trkpt lat="45.32163" lon="6.20301">
        <ele>2196.75</ele>
        <time>2013-01-09T13:05:09Z</time>
      </trkpt>
      <trkpt lat="45.32163" lon="6.20308">
        <ele>2197.71</ele>
        <time>2013-01-09T13:05:18Z</time>
      </trkpt>
      <trkpt lat="45.32161" lon="6.20317">
        <ele>2199.15</ele>
        <time>2013-01-09T13:05:29Z</time>
      </trkpt>
      <trkpt lat="45.32161" lon="6.20317">
        <ele>2199.63</ele>
        <time>2013-01-09T13:05:51Z</time>
      </trkpt>
      <trkpt lat="45.3216" lon="6.20316">
        <ele>2200.11</ele>
        <time>2013-01-09T13:06:26Z</time>
      </trkpt>
      <trkpt lat="45.32157" lon="6.20311">
        <ele>2201.56</ele>
        <time>2013-01-09T13:06:47Z</time>
      </trkpt>
      <trkpt lat="45.32153" lon="6.20307">
        <ele>2202.52</ele>
        <time>2013-01-09T13:07:10Z</time>
      </trkpt>
      <trkpt lat="45.32151" lon="6.20301">
        <ele>2204.44</ele>
        <time>2013-01-09T13:07:22Z</time>
      </trkpt>
      <trkpt lat="45.32147" lon="6.20293">
        <ele>2205.88</ele>
        <time>2013-01-09T13:07:36Z</time>
      </trkpt>
      <trkpt lat="45.32148" lon="6.20295">
        <ele>2206.36</ele>
        <time>2013-01-09T13:07:50Z</time>
      </trkpt>
      <trkpt lat="45.32147" lon="6.203">
        <ele>2207.81</ele>
        <time>2013-01-09T13:07:59Z</time>
      </trkpt>
      <trkpt lat="45.32146" lon="6.20308">
        <ele>2209.25</ele>
        <time>2013-01-09T13:08:13Z</time>
      </trkpt>
      <trkpt lat="45.32145" lon="6.20314">
        <ele>2210.69</ele>
        <time>2013-01-09T13:08:23Z</time>
      </trkpt>
      <trkpt lat="45.32144" lon="6.20318">
        <ele>2211.65</ele>
        <time>2013-01-09T13:08:28Z</time>
      </trkpt>
      <trkpt lat="45.32144" lon="6.20319">
        <ele>2212.61</ele>
        <time>2013-01-09T13:08:41Z</time>
      </trkpt>
      <trkpt lat="45.32142" lon="6.20316">
        <ele>2213.09</ele>
        <time>2013-01-09T13:08:54Z</time>
      </trkpt>
      <trkpt lat="45.32136" lon="6.20311">
        <ele>2215.5</ele>
        <time>2013-01-09T13:09:07Z</time>
      </trkpt>
      <trkpt lat="45.32133" lon="6.20303">
        <ele>2217.42</ele>
        <time>2013-01-09T13:09:24Z</time>
      </trkpt>
      <trkpt lat="45.32135" lon="6.20301">
        <ele>2217.42</ele>
        <time>2013-01-09T13:09:36Z</time>
      </trkpt>
      <trkpt lat="45.32136" lon="6.20303">
        <ele>2217.42</ele>
        <time>2013-01-09T13:10:08Z</time>
      </trkpt>
      <trkpt lat="45.32135" lon="6.2031">
        <ele>2218.86</ele>
        <time>2013-01-09T13:10:20Z</time>
      </trkpt>
      <trkpt lat="45.32133" lon="6.20315">
        <ele>2219.82</ele>
        <time>2013-01-09T13:10:30Z</time>
      </trkpt>
      <trkpt lat="45.32134" lon="6.2032">
        <ele>2220.78</ele>
        <time>2013-01-09T13:10:44Z</time>
      </trkpt>
      <trkpt lat="45.32134" lon="6.2032">
        <ele>2221.26</ele>
        <time>2013-01-09T13:11:15Z</time>
      </trkpt>
      <trkpt lat="45.32134" lon="6.2032">
        <ele>2220.78</ele>
        <time>2013-01-09T13:11:48Z</time>
      </trkpt>
      <trkpt lat="45.32134" lon="6.2032">
        <ele>2220.78</ele>
        <time>2013-01-09T13:12:02Z</time>
      </trkpt>
      <trkpt lat="45.32134" lon="6.2032">
        <ele>2220.78</ele>
        <time>2013-01-09T13:12:21Z</time>
      </trkpt>
      <trkpt lat="45.32134" lon="6.2032">
        <ele>2220.78</ele>
        <time>2013-01-09T13:12:49Z</time>
      </trkpt>
      <trkpt lat="45.32133" lon="6.20321">
        <ele>2220.78</ele>
        <time>2013-01-09T13:13:13Z</time>
      </trkpt>
      <trkpt lat="45.32133" lon="6.20321">
        <ele>2220.78</ele>
        <time>2013-01-09T13:13:34Z</time>
      </trkpt>
      <trkpt lat="45.32134" lon="6.20322">
        <ele>2220.78</ele>
        <time>2013-01-09T13:14:02Z</time>
      </trkpt>
      <trkpt lat="45.32134" lon="6.20323">
        <ele>2220.78</ele>
        <time>2013-01-09T13:14:27Z</time>
      </trkpt>
      <trkpt lat="45.32135" lon="6.20323">
        <ele>2220.78</ele>
        <time>2013-01-09T13:15:31Z</time>
      </trkpt>
      <trkpt lat="45.32136" lon="6.20321">
        <ele>2220.3</ele>
        <time>2013-01-09T13:16:07Z</time>
      </trkpt>
      <trkpt lat="45.32136" lon="6.20321">
        <ele>2220.3</ele>
        <time>2013-01-09T13:17:01Z</time>
      </trkpt>
      <trkpt lat="45.32135" lon="6.20323">
        <ele>2220.78</ele>
        <time>2013-01-09T13:17:38Z</time>
      </trkpt>
      <trkpt lat="45.32137" lon="6.2032">
        <ele>2220.78</ele>
        <time>2013-01-09T13:18:07Z</time>
      </trkpt>
      <trkpt lat="45.32132" lon="6.20318">
        <ele>2223.19</ele>
        <time>2013-01-09T13:18:26Z</time>
      </trkpt>
      <trkpt lat="45.32128" lon="6.20316">
        <ele>2225.59</ele>
        <time>2013-01-09T13:18:38Z</time>
      </trkpt>
      <trkpt lat="45.32126" lon="6.20315">
        <ele>2227.03</ele>
        <time>2013-01-09T13:18:49Z</time>
      </trkpt>
      <trkpt lat="45.32124" lon="6.20314">
        <ele>2229.43</ele>
        <time>2013-01-09T13:19:06Z</time>
      </trkpt>
      <trkpt lat="45.32122" lon="6.20314">
        <ele>2231.36</ele>
        <time>2013-01-09T13:19:18Z</time>
      </trkpt>
      <trkpt lat="45.32119" lon="6.20314">
        <ele>2234.24</ele>
        <time>2013-01-09T13:19:34Z</time>
      </trkpt>
      <trkpt lat="45.32116" lon="6.20313">
        <ele>2236.64</ele>
        <time>2013-01-09T13:19:48Z</time>
      </trkpt>
      <trkpt lat="45.32115" lon="6.20313">
        <ele>2238.09</ele>
        <time>2013-01-09T13:20:02Z</time>
      </trkpt>
      <trkpt lat="45.32113" lon="6.20312">
        <ele>2240.01</ele>
        <time>2013-01-09T13:20:18Z</time>
      </trkpt>
      <trkpt lat="45.32111" lon="6.20312">
        <ele>2241.93</ele>
        <time>2013-01-09T13:20:34Z</time>
      </trkpt>
      <trkpt lat="45.32108" lon="6.20311">
        <ele>2244.33</ele>
        <time>2013-01-09T13:20:52Z</time>
      </trkpt>
      <trkpt lat="45.32106" lon="6.20311">
        <ele>2246.74</ele>
        <time>2013-01-09T13:21:08Z</time>
      </trkpt>
      <trkpt lat="45.32103" lon="6.2031">
        <ele>2249.14</ele>
        <time>2013-01-09T13:21:23Z</time>
      </trkpt>
      <trkpt lat="45.321" lon="6.20311">
        <ele>2252.03</ele>
        <time>2013-01-09T13:21:37Z</time>
      </trkpt>
      <trkpt lat="45.32098" lon="6.20311">
        <ele>2253.95</ele>
        <time>2013-01-09T13:21:51Z</time>
      </trkpt>
      <trkpt lat="45.32096" lon="6.20311">
        <ele>2255.87</ele>
        <time>2013-01-09T13:22:03Z</time>
      </trkpt>
      <trkpt lat="45.32093" lon="6.20311">
        <ele>2258.27</ele>
        <time>2013-01-09T13:22:16Z</time>
      </trkpt>
      <trkpt lat="45.3209" lon="6.2031">
        <ele>2260.68</ele>
        <time>2013-01-09T13:22:31Z</time>
      </trkpt>
      <trkpt lat="45.32089" lon="6.2031">
        <ele>2261.64</ele>
        <time>2013-01-09T13:22:36Z</time>
      </trkpt>
      <trkpt lat="45.32087" lon="6.2031">
        <ele>2263.08</ele>
        <time>2013-01-09T13:22:48Z</time>
      </trkpt>
      <trkpt lat="45.32085" lon="6.2031">
        <ele>2265.48</ele>
        <time>2013-01-09T13:23:01Z</time>
      </trkpt>
      <trkpt lat="45.32082" lon="6.20309">
        <ele>2267.89</ele>
        <time>2013-01-09T13:23:14Z</time>
      </trkpt>
      <trkpt lat="45.32079" lon="6.20309">
        <ele>2270.29</ele>
        <time>2013-01-09T13:23:28Z</time>
      </trkpt>
      <trkpt lat="45.32077" lon="6.20308">
        <ele>2272.21</ele>
        <time>2013-01-09T13:23:41Z</time>
      </trkpt>
      <trkpt lat="45.32073" lon="6.20308">
        <ele>2275.58</ele>
        <time>2013-01-09T13:23:57Z</time>
      </trkpt>
      <trkpt lat="45.32071" lon="6.20309">
        <ele>2277.5</ele>
        <time>2013-01-09T13:24:21Z</time>
      </trkpt>
      <trkpt lat="45.32068" lon="6.20309">
        <ele>2279.42</ele>
        <time>2013-01-09T13:24:37Z</time>
      </trkpt>
      <trkpt lat="45.32064" lon="6.20309">
        <ele>2281.83</ele>
        <time>2013-01-09T13:24:52Z</time>
      </trkpt>
      <trkpt lat="45.32059" lon="6.20308">
        <ele>2285.19</ele>
        <time>2013-01-09T13:25:08Z</time>
      </trkpt>
      <trkpt lat="45.32056" lon="6.20307">
        <ele>2287.59</ele>
        <time>2013-01-09T13:25:22Z</time>
      </trkpt>
      <trkpt lat="45.32054" lon="6.20306">
        <ele>2289.04</ele>
        <time>2013-01-09T13:25:34Z</time>
      </trkpt>
      <trkpt lat="45.32052" lon="6.20304">
        <ele>2291.92</ele>
        <time>2013-01-09T13:25:50Z</time>
      </trkpt>
      <trkpt lat="45.32051" lon="6.20304">
        <ele>2292.88</ele>
        <time>2013-01-09T13:26:05Z</time>
      </trkpt>
      <trkpt lat="45.32048" lon="6.20304">
        <ele>2294.8</ele>
        <time>2013-01-09T13:26:47Z</time>
      </trkpt>
      <trkpt lat="45.32045" lon="6.20304">
        <ele>2296.73</ele>
        <time>2013-01-09T13:27:01Z</time>
      </trkpt>
      <trkpt lat="45.32042" lon="6.20302">
        <ele>2299.61</ele>
        <time>2013-01-09T13:27:17Z</time>
      </trkpt>
      <trkpt lat="45.32039" lon="6.20301">
        <ele>2302.01</ele>
        <time>2013-01-09T13:27:32Z</time>
      </trkpt>
      <trkpt lat="45.32035" lon="6.20299">
        <ele>2304.9</ele>
        <time>2013-01-09T13:27:53Z</time>
      </trkpt>
      <trkpt lat="45.32033" lon="6.20297">
        <ele>2307.3</ele>
        <time>2013-01-09T13:28:09Z</time>
      </trkpt>
      <trkpt lat="45.32032" lon="6.20297">
        <ele>2309.22</ele>
        <time>2013-01-09T13:28:26Z</time>
      </trkpt>
      <trkpt lat="45.32031" lon="6.20296">
        <ele>2310.19</ele>
        <time>2013-01-09T13:29:07Z</time>
      </trkpt>
      <trkpt lat="45.32029" lon="6.20296">
        <ele>2312.11</ele>
        <time>2013-01-09T13:29:22Z</time>
      </trkpt>
      <trkpt lat="45.32025" lon="6.20294">
        <ele>2314.99</ele>
        <time>2013-01-09T13:29:48Z</time>
      </trkpt>
      <trkpt lat="45.32023" lon="6.20293">
        <ele>2316.43</ele>
        <time>2013-01-09T13:30:02Z</time>
      </trkpt>
      <trkpt lat="45.32021" lon="6.20291">
        <ele>2319.32</ele>
        <time>2013-01-09T13:30:22Z</time>
      </trkpt>
      <trkpt lat="45.32019" lon="6.20289">
        <ele>2320.76</ele>
        <time>2013-01-09T13:30:36Z</time>
      </trkpt>
      <trkpt lat="45.32018" lon="6.20289">
        <ele>2322.68</ele>
        <time>2013-01-09T13:30:54Z</time>
      </trkpt>
      <trkpt lat="45.32017" lon="6.20287">
        <ele>2324.12</ele>
        <time>2013-01-09T13:31:11Z</time>
      </trkpt>
      <trkpt lat="45.32016" lon="6.20285">
        <ele>2325.09</ele>
        <time>2013-01-09T13:31:32Z</time>
      </trkpt>
      <trkpt lat="45.32014" lon="6.20285">
        <ele>2326.05</ele>
        <time>2013-01-09T13:31:51Z</time>
      </trkpt>
      <trkpt lat="45.32012" lon="6.20284">
        <ele>2327.97</ele>
        <time>2013-01-09T13:32:07Z</time>
      </trkpt>
      <trkpt lat="45.32011" lon="6.20283">
        <ele>2329.41</ele>
        <time>2013-01-09T13:32:30Z</time>
      </trkpt>
      <trkpt lat="45.3201" lon="6.20281">
        <ele>2330.85</ele>
        <time>2013-01-09T13:32:41Z</time>
      </trkpt>
      <trkpt lat="45.32008" lon="6.2028">
        <ele>2332.78</ele>
        <time>2013-01-09T13:32:54Z</time>
      </trkpt>
      <trkpt lat="45.32006" lon="6.20279">
        <ele>2334.22</ele>
        <time>2013-01-09T13:33:05Z</time>
      </trkpt>
      <trkpt lat="45.32005" lon="6.20277">
        <ele>2335.66</ele>
        <time>2013-01-09T13:33:17Z</time>
      </trkpt>
      <trkpt lat="45.32004" lon="6.20276">
        <ele>2337.1</ele>
        <time>2013-01-09T13:33:30Z</time>
      </trkpt>
      <trkpt lat="45.32002" lon="6.20275">
        <ele>2338.54</ele>
        <time>2013-01-09T13:33:57Z</time>
      </trkpt>
      <trkpt lat="45.32002" lon="6.20274">
        <ele>2339.51</ele>
        <time>2013-01-09T13:34:17Z</time>
      </trkpt>
      <trkpt lat="45.32" lon="6.20272">
        <ele>2341.43</ele>
        <time>2013-01-09T13:34:34Z</time>
      </trkpt>
      <trkpt lat="45.31997" lon="6.20271">
        <ele>2344.31</ele>
        <time>2013-01-09T13:34:54Z</time>
      </trkpt>
      <trkpt lat="45.31996" lon="6.20271">
        <ele>2345.27</ele>
        <time>2013-01-09T13:35:11Z</time>
      </trkpt>
      <trkpt lat="45.31993" lon="6.2027">
        <ele>2346.72</ele>
        <time>2013-01-09T13:35:22Z</time>
      </trkpt>
      <trkpt lat="45.31991" lon="6.20267">
        <ele>2348.64</ele>
        <time>2013-01-09T13:35:36Z</time>
      </trkpt>
      <trkpt lat="45.31989" lon="6.20265">
        <ele>2352</ele>
        <time>2013-01-09T13:35:57Z</time>
      </trkpt>
      <trkpt lat="45.31988" lon="6.20263">
        <ele>2353.44</ele>
        <time>2013-01-09T13:36:21Z</time>
      </trkpt>
      <trkpt lat="45.31987" lon="6.20259">
        <ele>2355.85</ele>
        <time>2013-01-09T13:36:36Z</time>
      </trkpt>
      <trkpt lat="45.31985" lon="6.20257">
        <ele>2357.77</ele>
        <time>2013-01-09T13:36:49Z</time>
      </trkpt>
      <trkpt lat="45.31985" lon="6.20256">
        <ele>2359.21</ele>
        <time>2013-01-09T13:37:05Z</time>
      </trkpt>
      <trkpt lat="45.31983" lon="6.20254">
        <ele>2360.65</ele>
        <time>2013-01-09T13:37:22Z</time>
      </trkpt>
      <trkpt lat="45.31982" lon="6.20251">
        <ele>2363.06</ele>
        <time>2013-01-09T13:37:37Z</time>
      </trkpt>
      <trkpt lat="45.31981" lon="6.20249">
        <ele>2363.54</ele>
        <time>2013-01-09T13:37:42Z</time>
      </trkpt>
      <trkpt lat="45.3198" lon="6.20248">
        <ele>2364.98</ele>
        <time>2013-01-09T13:37:55Z</time>
      </trkpt>
      <trkpt lat="45.31979" lon="6.20249">
        <ele>2366.42</ele>
        <time>2013-01-09T13:38:06Z</time>
      </trkpt>
      <trkpt lat="45.31978" lon="6.20249">
        <ele>2365.94</ele>
        <time>2013-01-09T13:38:25Z</time>
      </trkpt>
      <trkpt lat="45.31978" lon="6.20249">
        <ele>2366.42</ele>
        <time>2013-01-09T13:38:51Z</time>
      </trkpt>
      <trkpt lat="45.31976" lon="6.2025">
        <ele>2367.38</ele>
        <time>2013-01-09T13:39:10Z</time>
      </trkpt>
      <trkpt lat="45.31974" lon="6.20249">
        <ele>2369.31</ele>
        <time>2013-01-09T13:39:25Z</time>
      </trkpt>
      <trkpt lat="45.31973" lon="6.20248">
        <ele>2370.27</ele>
        <time>2013-01-09T13:39:35Z</time>
      </trkpt>
      <trkpt lat="45.31971" lon="6.20246">
        <ele>2372.19</ele>
        <time>2013-01-09T13:39:49Z</time>
      </trkpt>
      <trkpt lat="45.3197" lon="6.20244">
        <ele>2374.11</ele>
        <time>2013-01-09T13:40:01Z</time>
      </trkpt>
      <trkpt lat="45.31969" lon="6.20244">
        <ele>2375.07</ele>
        <time>2013-01-09T13:40:16Z</time>
      </trkpt>
      <trkpt lat="45.31967" lon="6.20243">
        <ele>2376.52</ele>
        <time>2013-01-09T13:40:28Z</time>
      </trkpt>
      <trkpt lat="45.31966" lon="6.20241">
        <ele>2377.96</ele>
        <time>2013-01-09T13:40:39Z</time>
      </trkpt>
      <trkpt lat="45.31965" lon="6.2024">
        <ele>2379.88</ele>
        <time>2013-01-09T13:40:54Z</time>
      </trkpt>
      <trkpt lat="45.31964" lon="6.20236">
        <ele>2381.8</ele>
        <time>2013-01-09T13:41:07Z</time>
      </trkpt>
      <trkpt lat="45.31963" lon="6.20233">
        <ele>2384.21</ele>
        <time>2013-01-09T13:41:22Z</time>
      </trkpt>
      <trkpt lat="45.31963" lon="6.20232">
        <ele>2385.17</ele>
        <time>2013-01-09T13:41:37Z</time>
      </trkpt>
      <trkpt lat="45.31963" lon="6.20226">
        <ele>2388.05</ele>
        <time>2013-01-09T13:43:32Z</time>
      </trkpt>
      <trkpt lat="45.31962" lon="6.20222">
        <ele>2389.97</ele>
        <time>2013-01-09T13:43:42Z</time>
      </trkpt>
      <trkpt lat="45.31962" lon="6.20218">
        <ele>2391.9</ele>
        <time>2013-01-09T13:43:55Z</time>
      </trkpt>
      <trkpt lat="45.31961" lon="6.20215">
        <ele>2393.82</ele>
        <time>2013-01-09T13:44:08Z</time>
      </trkpt>
      <trkpt lat="45.31961" lon="6.20212">
        <ele>2395.74</ele>
        <time>2013-01-09T13:44:22Z</time>
      </trkpt>
      <trkpt lat="45.3196" lon="6.20209">
        <ele>2397.67</ele>
        <time>2013-01-09T13:44:37Z</time>
      </trkpt>
      <trkpt lat="45.31959" lon="6.20208">
        <ele>2399.11</ele>
        <time>2013-01-09T13:44:51Z</time>
      </trkpt>
      <trkpt lat="45.31958" lon="6.20207">
        <ele>2400.55</ele>
        <time>2013-01-09T13:45:23Z</time>
      </trkpt>
      <trkpt lat="45.31957" lon="6.20203">
        <ele>2402.47</ele>
        <time>2013-01-09T13:45:40Z</time>
      </trkpt>
      <trkpt lat="45.31955" lon="6.20201">
        <ele>2404.39</ele>
        <time>2013-01-09T13:45:55Z</time>
      </trkpt>
      <trkpt lat="45.31954" lon="6.202">
        <ele>2406.8</ele>
        <time>2013-01-09T13:46:12Z</time>
      </trkpt>
      <trkpt lat="45.31952" lon="6.20198">
        <ele>2407.76</ele>
        <time>2013-01-09T13:46:25Z</time>
      </trkpt>
      <trkpt lat="45.3195" lon="6.20196">
        <ele>2409.68</ele>
        <time>2013-01-09T13:46:40Z</time>
      </trkpt>
      <trkpt lat="45.31949" lon="6.20194">
        <ele>2411.6</ele>
        <time>2013-01-09T13:46:53Z</time>
      </trkpt>
      <trkpt lat="45.31948" lon="6.20192">
        <ele>2413.53</ele>
        <time>2013-01-09T13:47:06Z</time>
      </trkpt>
      <trkpt lat="45.31947" lon="6.20188">
        <ele>2415.93</ele>
        <time>2013-01-09T13:47:22Z</time>
      </trkpt>
      <trkpt lat="45.31947" lon="6.20186">
        <ele>2417.85</ele>
        <time>2013-01-09T13:47:34Z</time>
      </trkpt>
      <trkpt lat="45.31945" lon="6.20183">
        <ele>2419.78</ele>
        <time>2013-01-09T13:47:48Z</time>
      </trkpt>
      <trkpt lat="45.31944" lon="6.20181">
        <ele>2422.18</ele>
        <time>2013-01-09T13:48:01Z</time>
      </trkpt>
      <trkpt lat="45.31944" lon="6.20181">
        <ele>2422.66</ele>
        <time>2013-01-09T13:48:32Z</time>
      </trkpt>
      <trkpt lat="45.31941" lon="6.20178">
        <ele>2424.58</ele>
        <time>2013-01-09T13:48:45Z</time>
      </trkpt>
      <trkpt lat="45.3194" lon="6.20174">
        <ele>2426.5</ele>
        <time>2013-01-09T13:48:58Z</time>
      </trkpt>
      <trkpt lat="45.31938" lon="6.2017">
        <ele>2428.43</ele>
        <time>2013-01-09T13:49:11Z</time>
      </trkpt>
      <trkpt lat="45.31934" lon="6.20164">
        <ele>2431.31</ele>
        <time>2013-01-09T13:49:29Z</time>
      </trkpt>
      <trkpt lat="45.31934" lon="6.20162">
        <ele>2433.71</ele>
        <time>2013-01-09T13:49:46Z</time>
      </trkpt>
      <trkpt lat="45.31934" lon="6.20159">
        <ele>2436.12</ele>
        <time>2013-01-09T13:50:01Z</time>
      </trkpt>
      <trkpt lat="45.31933" lon="6.20157">
        <ele>2438.52</ele>
        <time>2013-01-09T13:50:16Z</time>
      </trkpt>
      <trkpt lat="45.31931" lon="6.20154">
        <ele>2440.92</ele>
        <time>2013-01-09T13:50:33Z</time>
      </trkpt>
      <trkpt lat="45.31931" lon="6.20151">
        <ele>2442.85</ele>
        <time>2013-01-09T13:50:46Z</time>
      </trkpt>
      <trkpt lat="45.31929" lon="6.2015">
        <ele>2444.77</ele>
        <time>2013-01-09T13:50:59Z</time>
      </trkpt>
      <trkpt lat="45.31927" lon="6.20148">
        <ele>2447.17</ele>
        <time>2013-01-09T13:51:16Z</time>
      </trkpt>
      <trkpt lat="45.31926" lon="6.20146">
        <ele>2448.13</ele>
        <time>2013-01-09T13:51:41Z</time>
      </trkpt>
      <trkpt lat="45.31925" lon="6.20143">
        <ele>2450.06</ele>
        <time>2013-01-09T13:51:53Z</time>
      </trkpt>
      <trkpt lat="45.31924" lon="6.2014">
        <ele>2452.46</ele>
        <time>2013-01-09T13:52:10Z</time>
      </trkpt>
      <trkpt lat="45.31922" lon="6.20139">
        <ele>2454.38</ele>
        <time>2013-01-09T13:52:22Z</time>
      </trkpt>
      <trkpt lat="45.31921" lon="6.20136">
        <ele>2456.31</ele>
        <time>2013-01-09T13:52:41Z</time>
      </trkpt>
      <trkpt lat="45.31921" lon="6.20133">
        <ele>2458.23</ele>
        <time>2013-01-09T13:52:57Z</time>
      </trkpt>
      <trkpt lat="45.31919" lon="6.2013">
        <ele>2460.15</ele>
        <time>2013-01-09T13:53:13Z</time>
      </trkpt>
      <trkpt lat="45.31918" lon="6.20128">
        <ele>2462.07</ele>
        <time>2013-01-09T13:53:26Z</time>
      </trkpt>
      <trkpt lat="45.31917" lon="6.20124">
        <ele>2464</ele>
        <time>2013-01-09T13:53:45Z</time>
      </trkpt>
      <trkpt lat="45.31917" lon="6.2012">
        <ele>2465.92</ele>
        <time>2013-01-09T13:54:00Z</time>
      </trkpt>
      <trkpt lat="45.31916" lon="6.20118">
        <ele>2468.32</ele>
        <time>2013-01-09T13:54:16Z</time>
      </trkpt>
      <trkpt lat="45.31915" lon="6.20116">
        <ele>2470.24</ele>
        <time>2013-01-09T13:54:30Z</time>
      </trkpt>
      <trkpt lat="45.31913" lon="6.20115">
        <ele>2471.69</ele>
        <time>2013-01-09T13:54:43Z</time>
      </trkpt>
      <trkpt lat="45.31912" lon="6.20112">
        <ele>2473.61</ele>
        <time>2013-01-09T13:54:56Z</time>
      </trkpt>
      <trkpt lat="45.31911" lon="6.20111">
        <ele>2475.53</ele>
        <time>2013-01-09T13:55:08Z</time>
      </trkpt>
      <trkpt lat="45.31909" lon="6.20109">
        <ele>2476.49</ele>
        <time>2013-01-09T13:55:18Z</time>
      </trkpt>
      <trkpt lat="45.31908" lon="6.20108">
        <ele>2478.42</ele>
        <time>2013-01-09T13:55:31Z</time>
      </trkpt>
      <trkpt lat="45.31908" lon="6.20108">
        <ele>2478.9</ele>
        <time>2013-01-09T13:55:34Z</time>
      </trkpt>
      <trkpt lat="45.31907" lon="6.20107">
        <ele>2480.34</ele>
        <time>2013-01-09T13:55:46Z</time>
      </trkpt>
      <trkpt lat="45.31904" lon="6.20105">
        <ele>2482.74</ele>
        <time>2013-01-09T13:56:00Z</time>
      </trkpt>
      <trkpt lat="45.31905" lon="6.20102">
        <ele>2484.66</ele>
        <time>2013-01-09T13:56:14Z</time>
      </trkpt>
      <trkpt lat="45.31902" lon="6.201">
        <ele>2486.11</ele>
        <time>2013-01-09T13:56:25Z</time>
      </trkpt>
      <trkpt lat="45.31901" lon="6.201">
        <ele>2488.51</ele>
        <time>2013-01-09T13:56:40Z</time>
      </trkpt>
      <trkpt lat="45.31899" lon="6.201">
        <ele>2490.43</ele>
        <time>2013-01-09T13:56:52Z</time>
      </trkpt>
      <trkpt lat="45.31897" lon="6.20098">
        <ele>2492.84</ele>
        <time>2013-01-09T13:57:04Z</time>
      </trkpt>
      <trkpt lat="45.31896" lon="6.20097">
        <ele>2494.76</ele>
        <time>2013-01-09T13:57:16Z</time>
      </trkpt>
      <trkpt lat="45.31894" lon="6.20096">
        <ele>2496.2</ele>
        <time>2013-01-09T13:57:28Z</time>
      </trkpt>
      <trkpt lat="45.31892" lon="6.20095">
        <ele>2498.12</ele>
        <time>2013-01-09T13:57:42Z</time>
      </trkpt>
      <trkpt lat="45.31891" lon="6.20095">
        <ele>2499.08</ele>
        <time>2013-01-09T13:57:58Z</time>
      </trkpt>
      <trkpt lat="45.31888" lon="6.20095">
        <ele>2501.97</ele>
        <time>2013-01-09T13:58:28Z</time>
      </trkpt>
      <trkpt lat="45.31885" lon="6.20095">
        <ele>2503.89</ele>
        <time>2013-01-09T13:58:39Z</time>
      </trkpt>
      <trkpt lat="45.31883" lon="6.20092">
        <ele>2505.33</ele>
        <time>2013-01-09T13:59:09Z</time>
      </trkpt>
      <trkpt lat="45.31878" lon="6.20087">
        <ele>2508.7</ele>
        <time>2013-01-09T13:59:58Z</time>
      </trkpt>
      <trkpt lat="45.31875" lon="6.20086">
        <ele>2511.58</ele>
        <time>2013-01-09T14:00:14Z</time>
      </trkpt>
      <trkpt lat="45.31873" lon="6.20085">
        <ele>2514.47</ele>
        <time>2013-01-09T14:00:30Z</time>
      </trkpt>
      <trkpt lat="45.31872" lon="6.20084">
        <ele>2516.87</ele>
        <time>2013-01-09T14:00:46Z</time>
      </trkpt>
      <trkpt lat="45.31871" lon="6.20083">
        <ele>2518.79</ele>
        <time>2013-01-09T14:01:05Z</time>
      </trkpt>
      <trkpt lat="45.3187" lon="6.20081">
        <ele>2519.27</ele>
        <time>2013-01-09T14:01:28Z</time>
      </trkpt>
      <trkpt lat="45.3187" lon="6.2008">
        <ele>2519.27</ele>
        <time>2013-01-09T14:02:06Z</time>
      </trkpt>
      <trkpt lat="45.3187" lon="6.20079">
        <ele>2519.27</ele>
        <time>2013-01-09T14:02:36Z</time>
      </trkpt>
      <trkpt lat="45.3187" lon="6.20072">
        <ele>2521.68</ele>
        <time>2013-01-09T14:02:49Z</time>
      </trkpt>
      <trkpt lat="45.3187" lon="6.20069">
        <ele>2523.12</ele>
        <time>2013-01-09T14:03:02Z</time>
      </trkpt>
      <trkpt lat="45.31871" lon="6.20065">
        <ele>2524.56</ele>
        <time>2013-01-09T14:03:14Z</time>
      </trkpt>
      <trkpt lat="45.31871" lon="6.20065">
        <ele>2526</ele>
        <time>2013-01-09T14:03:28Z</time>
      </trkpt>
      <trkpt lat="45.31873" lon="6.20062">
        <ele>2528.4</ele>
        <time>2013-01-09T14:03:45Z</time>
      </trkpt>
      <trkpt lat="45.31873" lon="6.20059">
        <ele>2530.33</ele>
        <time>2013-01-09T14:04:04Z</time>
      </trkpt>
      <trkpt lat="45.31873" lon="6.20056">
        <ele>2532.25</ele>
        <time>2013-01-09T14:04:17Z</time>
      </trkpt>
      <trkpt lat="45.31873" lon="6.20052">
        <ele>2534.17</ele>
        <time>2013-01-09T14:04:33Z</time>
      </trkpt>
      <trkpt lat="45.31875" lon="6.20049">
        <ele>2534.65</ele>
        <time>2013-01-09T14:04:45Z</time>
      </trkpt>
      <trkpt lat="45.31875" lon="6.20046">
        <ele>2536.58</ele>
        <time>2013-01-09T14:04:57Z</time>
      </trkpt>
      <trkpt lat="45.31877" lon="6.20044">
        <ele>2537.54</ele>
        <time>2013-01-09T14:05:11Z</time>
      </trkpt>
      <trkpt lat="45.3188" lon="6.2004">
        <ele>2538.5</ele>
        <time>2013-01-09T14:05:27Z</time>
      </trkpt>
      <trkpt lat="45.31881" lon="6.2004">
        <ele>2538.5</ele>
        <time>2013-01-09T14:05:48Z</time>
      </trkpt>
      <trkpt lat="45.3188" lon="6.20041">
        <ele>2539.94</ele>
        <time>2013-01-09T14:06:13Z</time>
      </trkpt>
      <trkpt lat="45.31882" lon="6.2004">
        <ele>2539.94</ele>
        <time>2013-01-09T14:06:54Z</time>
      </trkpt>
      <trkpt lat="45.31882" lon="6.20042">
        <ele>2540.42</ele>
        <time>2013-01-09T14:07:27Z</time>
      </trkpt>
      <trkpt lat="45.31882" lon="6.20042">
        <ele>2540.42</ele>
        <time>2013-01-09T14:08:06Z</time>
      </trkpt>
      <trkpt lat="45.31882" lon="6.20043">
        <ele>2540.42</ele>
        <time>2013-01-09T14:08:21Z</time>
      </trkpt>
      <trkpt lat="45.31881" lon="6.20043">
        <ele>2540.42</ele>
        <time>2013-01-09T14:10:35Z</time>
      </trkpt>
      <trkpt lat="45.31881" lon="6.20043">
        <ele>2540.42</ele>
        <time>2013-01-09T14:11:37Z</time>
      </trkpt>
      <trkpt lat="45.31881" lon="6.20043">
        <ele>2540.42</ele>
        <time>2013-01-09T14:11:58Z</time>
      </trkpt>
      <trkpt lat="45.31881" lon="6.20043">
        <ele>2539.94</ele>
        <time>2013-01-09T14:12:34Z</time>
      </trkpt>
      <trkpt lat="45.3188" lon="6.20043">
        <ele>2539.94</ele>
        <time>2013-01-09T14:13:20Z</time>
      </trkpt>
      <trkpt lat="45.31882" lon="6.20042">
        <ele>2539.94</ele>
        <time>2013-01-09T14:13:52Z</time>
      </trkpt>
      <trkpt lat="45.3188" lon="6.20041">
        <ele>2539.94</ele>
        <time>2013-01-09T14:14:13Z</time>
      </trkpt>
      <trkpt lat="45.3188" lon="6.20041">
        <ele>2539.94</ele>
        <time>2013-01-09T14:15:08Z</time>
      </trkpt>
      <trkpt lat="45.31881" lon="6.2004">
        <ele>2539.94</ele>
        <time>2013-01-09T14:15:47Z</time>
      </trkpt>
      <trkpt lat="45.31881" lon="6.20041">
        <ele>2539.46</ele>
        <time>2013-01-09T14:16:53Z</time>
      </trkpt>
      <trkpt lat="45.31881" lon="6.20041">
        <ele>2539.94</ele>
        <time>2013-01-09T14:17:34Z</time>
      </trkpt>
      <trkpt lat="45.31881" lon="6.20041">
        <ele>2539.94</ele>
        <time>2013-01-09T14:18:22Z</time>
      </trkpt>
      <trkpt lat="45.31881" lon="6.20041">
        <ele>2539.94</ele>
        <time>2013-01-09T14:19:00Z</time>
      </trkpt>
      <trkpt lat="45.3188" lon="6.20041">
        <ele>2539.94</ele>
        <time>2013-01-09T14:19:34Z</time>
      </trkpt>
      <trkpt lat="45.3188" lon="6.20041">
        <ele>2540.42</ele>
        <time>2013-01-09T14:19:59Z</time>
      </trkpt>
      <trkpt lat="45.31882" lon="6.20043">
        <ele>2540.42</ele>
        <time>2013-01-09T14:20:36Z</time>
      </trkpt>
      <trkpt lat="45.31882" lon="6.20043">
        <ele>2540.42</ele>
        <time>2013-01-09T14:20:57Z</time>
      </trkpt>
      <trkpt lat="45.31881" lon="6.20043">
        <ele>2540.42</ele>
        <time>2013-01-09T14:21:38Z</time>
      </trkpt>
      <trkpt lat="45.31881" lon="6.20044">
        <ele>2540.42</ele>
        <time>2013-01-09T14:21:54Z</time>
      </trkpt>
      <trkpt lat="45.3188" lon="6.20044">
        <ele>2540.42</ele>
        <time>2013-01-09T14:22:55Z</time>
      </trkpt>
      <trkpt lat="45.31881" lon="6.20043">
        <ele>2540.42</ele>
        <time>2013-01-09T14:23:32Z</time>
      </trkpt>
      <trkpt lat="45.31884" lon="6.2005">
        <ele>2537.54</ele>
        <time>2013-01-09T14:23:39Z</time>
      </trkpt>
      <trkpt lat="45.31882" lon="6.20051">
        <ele>2535.61</ele>
        <time>2013-01-09T14:23:51Z</time>
      </trkpt>
      <trkpt lat="45.31878" lon="6.20055">
        <ele>2535.13</ele>
        <time>2013-01-09T14:23:56Z</time>
      </trkpt>
      <trkpt lat="45.31881" lon="6.20064">
        <ele>2530.81</ele>
        <time>2013-01-09T14:24:03Z</time>
      </trkpt>
      <trkpt lat="45.31881" lon="6.20069">
        <ele>2526.96</ele>
        <time>2013-01-09T14:24:06Z</time>
      </trkpt>
      <trkpt lat="45.31881" lon="6.20071">
        <ele>2526.48</ele>
        <time>2013-01-09T14:24:08Z</time>
      </trkpt>
      <trkpt lat="45.3188" lon="6.2007">
        <ele>2524.56</ele>
        <time>2013-01-09T14:24:10Z</time>
      </trkpt>
      <trkpt lat="45.31878" lon="6.20072">
        <ele>2524.08</ele>
        <time>2013-01-09T14:24:12Z</time>
      </trkpt>
      <trkpt lat="45.31878" lon="6.20073">
        <ele>2523.12</ele>
        <time>2013-01-09T14:24:14Z</time>
      </trkpt>
      <trkpt lat="45.3188" lon="6.20074">
        <ele>2522.16</ele>
        <time>2013-01-09T14:24:17Z</time>
      </trkpt>
      <trkpt lat="45.31881" lon="6.20074">
        <ele>2520.71</ele>
        <time>2013-01-09T14:24:18Z</time>
      </trkpt>
      <trkpt lat="45.31883" lon="6.2008">
        <ele>2516.87</ele>
        <time>2013-01-09T14:24:22Z</time>
      </trkpt>
      <trkpt lat="45.31888" lon="6.20084">
        <ele>2514.95</ele>
        <time>2013-01-09T14:24:26Z</time>
      </trkpt>
      <trkpt lat="45.31891" lon="6.20088">
        <ele>2511.58</ele>
        <time>2013-01-09T14:24:30Z</time>
      </trkpt>
      <trkpt lat="45.31891" lon="6.20085">
        <ele>2510.14</ele>
        <time>2013-01-09T14:24:33Z</time>
      </trkpt>
      <trkpt lat="45.31895" lon="6.20085">
        <ele>2509.18</ele>
        <time>2013-01-09T14:24:40Z</time>
      </trkpt>
      <trkpt lat="45.31898" lon="6.20085">
        <ele>2507.26</ele>
        <time>2013-01-09T14:24:43Z</time>
      </trkpt>
      <trkpt lat="45.31901" lon="6.20087">
        <ele>2506.77</ele>
        <time>2013-01-09T14:24:45Z</time>
      </trkpt>
      <trkpt lat="45.31902" lon="6.20092">
        <ele>2503.41</ele>
        <time>2013-01-09T14:24:50Z</time>
      </trkpt>
      <trkpt lat="45.319" lon="6.20092">
        <ele>2502.45</ele>
        <time>2013-01-09T14:24:53Z</time>
      </trkpt>
      <trkpt lat="45.31903" lon="6.20091">
        <ele>2501.97</ele>
        <time>2013-01-09T14:24:55Z</time>
      </trkpt>
      <trkpt lat="45.31909" lon="6.20096">
        <ele>2499.08</ele>
        <time>2013-01-09T14:24:59Z</time>
      </trkpt>
      <trkpt lat="45.3191" lon="6.201">
        <ele>2495.72</ele>
        <time>2013-01-09T14:25:01Z</time>
      </trkpt>
      <trkpt lat="45.31913" lon="6.20101">
        <ele>2493.8</ele>
        <time>2013-01-09T14:25:03Z</time>
      </trkpt>
      <trkpt lat="45.31915" lon="6.20099">
        <ele>2492.84</ele>
        <time>2013-01-09T14:25:04Z</time>
      </trkpt>
      <trkpt lat="45.31915" lon="6.20104">
        <ele>2488.51</ele>
        <time>2013-01-09T14:25:10Z</time>
      </trkpt>
      <trkpt lat="45.31915" lon="6.20104">
        <ele>2488.03</ele>
        <time>2013-01-09T14:25:33Z</time>
      </trkpt>
      <trkpt lat="45.31921" lon="6.20115">
        <ele>2484.18</ele>
        <time>2013-01-09T14:26:18Z</time>
      </trkpt>
      <trkpt lat="45.31925" lon="6.20122">
        <ele>2482.74</ele>
        <time>2013-01-09T14:26:20Z</time>
      </trkpt>
      <trkpt lat="45.31927" lon="6.20128">
        <ele>2478.42</ele>
        <time>2013-01-09T14:26:22Z</time>
      </trkpt>
      <trkpt lat="45.3193" lon="6.20133">
        <ele>2474.09</ele>
        <time>2013-01-09T14:26:24Z</time>
      </trkpt>
      <trkpt lat="45.31935" lon="6.20136">
        <ele>2469.76</ele>
        <time>2013-01-09T14:26:26Z</time>
      </trkpt>
      <trkpt lat="45.31938" lon="6.20136">
        <ele>2467.84</ele>
        <time>2013-01-09T14:26:27Z</time>
      </trkpt>
      <trkpt lat="45.31944" lon="6.20135">
        <ele>2464</ele>
        <time>2013-01-09T14:26:30Z</time>
      </trkpt>
      <trkpt lat="45.31946" lon="6.20133">
        <ele>2461.11</ele>
        <time>2013-01-09T14:26:33Z</time>
      </trkpt>
      <trkpt lat="45.31947" lon="6.20133">
        <ele>2461.11</ele>
        <time>2013-01-09T14:26:34Z</time>
      </trkpt>
      <trkpt lat="45.31948" lon="6.20135">
        <ele>2461.11</ele>
        <time>2013-01-09T14:26:35Z</time>
      </trkpt>
      <trkpt lat="45.31951" lon="6.20142">
        <ele>2457.75</ele>
        <time>2013-01-09T14:26:40Z</time>
      </trkpt>
      <trkpt lat="45.31953" lon="6.20146">
        <ele>2454.38</ele>
        <time>2013-01-09T14:26:43Z</time>
      </trkpt>
      <trkpt lat="45.31957" lon="6.20155">
        <ele>2450.06</ele>
        <time>2013-01-09T14:26:46Z</time>
      </trkpt>
      <trkpt lat="45.31961" lon="6.2016">
        <ele>2446.21</ele>
        <time>2013-01-09T14:26:48Z</time>
      </trkpt>
      <trkpt lat="45.31965" lon="6.20164">
        <ele>2444.77</ele>
        <time>2013-01-09T14:26:50Z</time>
      </trkpt>
      <trkpt lat="45.31968" lon="6.20165">
        <ele>2442.85</ele>
        <time>2013-01-09T14:26:51Z</time>
      </trkpt>
      <trkpt lat="45.31971" lon="6.20164">
        <ele>2438.04</ele>
        <time>2013-01-09T14:26:55Z</time>
      </trkpt>
      <trkpt lat="45.31972" lon="6.20163">
        <ele>2436.6</ele>
        <time>2013-01-09T14:27:10Z</time>
      </trkpt>
      <trkpt lat="45.31966" lon="6.20178">
        <ele>2432.75</ele>
        <time>2013-01-09T14:27:15Z</time>
      </trkpt>
      <trkpt lat="45.31963" lon="6.20174">
        <ele>2432.27</ele>
        <time>2013-01-09T14:27:17Z</time>
      </trkpt>
      <trkpt lat="45.31962" lon="6.20174">
        <ele>2432.27</ele>
        <time>2013-01-09T14:27:21Z</time>
      </trkpt>
      <trkpt lat="45.31958" lon="6.2017">
        <ele>2431.79</ele>
        <time>2013-01-09T14:27:40Z</time>
      </trkpt>
      <trkpt lat="45.31958" lon="6.20171">
        <ele>2431.79</ele>
        <time>2013-01-09T14:27:42Z</time>
      </trkpt>
      <trkpt lat="45.31957" lon="6.20173">
        <ele>2431.31</ele>
        <time>2013-01-09T14:27:44Z</time>
      </trkpt>
      <trkpt lat="45.31961" lon="6.20173">
        <ele>2429.87</ele>
        <time>2013-01-09T14:27:46Z</time>
      </trkpt>
      <trkpt lat="45.31973" lon="6.2018">
        <ele>2426.5</ele>
        <time>2013-01-09T14:27:50Z</time>
      </trkpt>
      <trkpt lat="45.31979" lon="6.2019">
        <ele>2421.22</ele>
        <time>2013-01-09T14:27:53Z</time>
      </trkpt>
      <trkpt lat="45.31982" lon="6.20194">
        <ele>2419.3</ele>
        <time>2013-01-09T14:27:54Z</time>
      </trkpt>
      <trkpt lat="45.31987" lon="6.20204">
        <ele>2414.97</ele>
        <time>2013-01-09T14:27:57Z</time>
      </trkpt>
      <trkpt lat="45.3199" lon="6.20203">
        <ele>2410.64</ele>
        <time>2013-01-09T14:27:59Z</time>
      </trkpt>
      <trkpt lat="45.31992" lon="6.20205">
        <ele>2408.72</ele>
        <time>2013-01-09T14:28:00Z</time>
      </trkpt>
      <trkpt lat="45.31995" lon="6.20213">
        <ele>2403.91</ele>
        <time>2013-01-09T14:28:03Z</time>
      </trkpt>
      <trkpt lat="45.31999" lon="6.20218">
        <ele>2400.07</ele>
        <time>2013-01-09T14:28:05Z</time>
      </trkpt>
      <trkpt lat="45.32001" lon="6.2022">
        <ele>2397.67</ele>
        <time>2013-01-09T14:28:07Z</time>
      </trkpt>
      <trkpt lat="45.32003" lon="6.20217">
        <ele>2394.3</ele>
        <time>2013-01-09T14:28:10Z</time>
      </trkpt>
      <trkpt lat="45.31999" lon="6.20216">
        <ele>2393.34</ele>
        <time>2013-01-09T14:28:17Z</time>
      </trkpt>
      <trkpt lat="45.32004" lon="6.20221">
        <ele>2391.42</ele>
        <time>2013-01-09T14:28:22Z</time>
      </trkpt>
      <trkpt lat="45.32011" lon="6.2023">
        <ele>2386.13</ele>
        <time>2013-01-09T14:28:25Z</time>
      </trkpt>
      <trkpt lat="45.32013" lon="6.20239">
        <ele>2381.8</ele>
        <time>2013-01-09T14:28:27Z</time>
      </trkpt>
      <trkpt lat="45.32012" lon="6.20242">
        <ele>2381.8</ele>
        <time>2013-01-09T14:28:28Z</time>
      </trkpt>
      <trkpt lat="45.32012" lon="6.20245">
        <ele>2377.96</ele>
        <time>2013-01-09T14:28:30Z</time>
      </trkpt>
      <trkpt lat="45.32014" lon="6.20252">
        <ele>2374.59</ele>
        <time>2013-01-09T14:28:33Z</time>
      </trkpt>
      <trkpt lat="45.32015" lon="6.20259">
        <ele>2373.15</ele>
        <time>2013-01-09T14:28:35Z</time>
      </trkpt>
      <trkpt lat="45.32015" lon="6.2026">
        <ele>2371.71</ele>
        <time>2013-01-09T14:28:39Z</time>
      </trkpt>
      <trkpt lat="45.32004" lon="6.20258">
        <ele>2371.23</ele>
        <time>2013-01-09T14:28:52Z</time>
      </trkpt>
      <trkpt lat="45.32008" lon="6.20257">
        <ele>2371.71</ele>
        <time>2013-01-09T14:29:53Z</time>
      </trkpt>
      <trkpt lat="45.32016" lon="6.20271">
        <ele>2367.86</ele>
        <time>2013-01-09T14:30:01Z</time>
      </trkpt>
      <trkpt lat="45.32018" lon="6.20272">
        <ele>2366.42</ele>
        <time>2013-01-09T14:30:02Z</time>
      </trkpt>
      <trkpt lat="45.32023" lon="6.20273">
        <ele>2364.98</ele>
        <time>2013-01-09T14:30:04Z</time>
      </trkpt>
      <trkpt lat="45.32027" lon="6.20272">
        <ele>2361.14</ele>
        <time>2013-01-09T14:30:06Z</time>
      </trkpt>
      <trkpt lat="45.32029" lon="6.20272">
        <ele>2358.25</ele>
        <time>2013-01-09T14:30:08Z</time>
      </trkpt>
      <trkpt lat="45.32032" lon="6.20276">
        <ele>2354.89</ele>
        <time>2013-01-09T14:30:10Z</time>
      </trkpt>
      <trkpt lat="45.32035" lon="6.20271">
        <ele>2350.08</ele>
        <time>2013-01-09T14:30:13Z</time>
      </trkpt>
      <trkpt lat="45.32036" lon="6.20269">
        <ele>2350.08</ele>
        <time>2013-01-09T14:30:14Z</time>
      </trkpt>
      <trkpt lat="45.32041" lon="6.20268">
        <ele>2347.68</ele>
        <time>2013-01-09T14:30:18Z</time>
      </trkpt>
      <trkpt lat="45.32048" lon="6.20268">
        <ele>2343.35</ele>
        <time>2013-01-09T14:30:23Z</time>
      </trkpt>
      <trkpt lat="45.3205" lon="6.20269">
        <ele>2342.39</ele>
        <time>2013-01-09T14:30:25Z</time>
      </trkpt>
      <trkpt lat="45.32053" lon="6.20268">
        <ele>2340.47</ele>
        <time>2013-01-09T14:30:27Z</time>
      </trkpt>
      <trkpt lat="45.32061" lon="6.20267">
        <ele>2334.7</ele>
        <time>2013-01-09T14:30:31Z</time>
      </trkpt>
      <trkpt lat="45.32069" lon="6.20261">
        <ele>2331.81</ele>
        <time>2013-01-09T14:30:35Z</time>
      </trkpt>
      <trkpt lat="45.32076" lon="6.20267">
        <ele>2328.93</ele>
        <time>2013-01-09T14:30:40Z</time>
      </trkpt>
      <trkpt lat="45.32083" lon="6.20269">
        <ele>2327.01</ele>
        <time>2013-01-09T14:30:42Z</time>
      </trkpt>
      <trkpt lat="45.32091" lon="6.20271">
        <ele>2322.2</ele>
        <time>2013-01-09T14:30:45Z</time>
      </trkpt>
      <trkpt lat="45.32091" lon="6.20273">
        <ele>2320.76</ele>
        <time>2013-01-09T14:30:46Z</time>
      </trkpt>
      <trkpt lat="45.32092" lon="6.20273">
        <ele>2319.32</ele>
        <time>2013-01-09T14:30:50Z</time>
      </trkpt>
      <trkpt lat="45.32095" lon="6.20275">
        <ele>2319.8</ele>
        <time>2013-01-09T14:31:05Z</time>
      </trkpt>
      <trkpt lat="45.32098" lon="6.20275">
        <ele>2319.8</ele>
        <time>2013-01-09T14:31:18Z</time>
      </trkpt>
      <trkpt lat="45.32101" lon="6.20272">
        <ele>2319.32</ele>
        <time>2013-01-09T14:31:20Z</time>
      </trkpt>
      <trkpt lat="45.32114" lon="6.20276">
        <ele>2313.55</ele>
        <time>2013-01-09T14:31:24Z</time>
      </trkpt>
      <trkpt lat="45.32122" lon="6.20274">
        <ele>2308.26</ele>
        <time>2013-01-09T14:31:27Z</time>
      </trkpt>
      <trkpt lat="45.32125" lon="6.20276">
        <ele>2306.34</ele>
        <time>2013-01-09T14:31:28Z</time>
      </trkpt>
      <trkpt lat="45.32131" lon="6.20276">
        <ele>2305.38</ele>
        <time>2013-01-09T14:31:30Z</time>
      </trkpt>
      <trkpt lat="45.32137" lon="6.20274">
        <ele>2302.49</ele>
        <time>2013-01-09T14:31:32Z</time>
      </trkpt>
      <trkpt lat="45.32143" lon="6.20275">
        <ele>2298.65</ele>
        <time>2013-01-09T14:31:34Z</time>
      </trkpt>
      <trkpt lat="45.32149" lon="6.20272">
        <ele>2294.8</ele>
        <time>2013-01-09T14:31:36Z</time>
      </trkpt>
      <trkpt lat="45.3215" lon="6.20271">
        <ele>2292.88</ele>
        <time>2013-01-09T14:31:37Z</time>
      </trkpt>
      <trkpt lat="45.32162" lon="6.20267">
        <ele>2288.56</ele>
        <time>2013-01-09T14:31:41Z</time>
      </trkpt>
      <trkpt lat="45.32165" lon="6.20268">
        <ele>2286.63</ele>
        <time>2013-01-09T14:31:42Z</time>
      </trkpt>
      <trkpt lat="45.32169" lon="6.20264">
        <ele>2283.27</ele>
        <time>2013-01-09T14:31:44Z</time>
      </trkpt>
      <trkpt lat="45.32175" lon="6.20266">
        <ele>2279.9</ele>
        <time>2013-01-09T14:31:46Z</time>
      </trkpt>
      <trkpt lat="45.32181" lon="6.20266">
        <ele>2274.62</ele>
        <time>2013-01-09T14:31:49Z</time>
      </trkpt>
      <trkpt lat="45.32189" lon="6.20267">
        <ele>2270.77</ele>
        <time>2013-01-09T14:31:51Z</time>
      </trkpt>
      <trkpt lat="45.32192" lon="6.20267">
        <ele>2270.77</ele>
        <time>2013-01-09T14:31:52Z</time>
      </trkpt>
      <trkpt lat="45.32204" lon="6.20271">
        <ele>2264.52</ele>
        <time>2013-01-09T14:31:55Z</time>
      </trkpt>
      <trkpt lat="45.32209" lon="6.20271">
        <ele>2258.75</ele>
        <time>2013-01-09T14:31:58Z</time>
      </trkpt>
      <trkpt lat="45.32212" lon="6.20272">
        <ele>2257.79</ele>
        <time>2013-01-09T14:32:19Z</time>
      </trkpt>
      <trkpt lat="45.32212" lon="6.20272">
        <ele>2258.75</ele>
        <time>2013-01-09T14:32:39Z</time>
      </trkpt>
      <trkpt lat="45.32214" lon="6.20275">
        <ele>2257.79</ele>
        <time>2013-01-09T14:32:41Z</time>
      </trkpt>
      <trkpt lat="45.32215" lon="6.20272">
        <ele>2252.99</ele>
        <time>2013-01-09T14:32:45Z</time>
      </trkpt>
      <trkpt lat="45.32218" lon="6.20275">
        <ele>2247.7</ele>
        <time>2013-01-09T14:32:48Z</time>
      </trkpt>
      <trkpt lat="45.32221" lon="6.20274">
        <ele>2247.7</ele>
        <time>2013-01-09T14:32:49Z</time>
      </trkpt>
      <trkpt lat="45.3223" lon="6.20271">
        <ele>2242.41</ele>
        <time>2013-01-09T14:32:52Z</time>
      </trkpt>
      <trkpt lat="45.32238" lon="6.20272">
        <ele>2237.13</ele>
        <time>2013-01-09T14:32:55Z</time>
      </trkpt>
      <trkpt lat="45.32242" lon="6.20268">
        <ele>2233.76</ele>
        <time>2013-01-09T14:32:57Z</time>
      </trkpt>
      <trkpt lat="45.32246" lon="6.2027">
        <ele>2229.43</ele>
        <time>2013-01-09T14:32:59Z</time>
      </trkpt>
      <trkpt lat="45.3226" lon="6.20273">
        <ele>2225.59</ele>
        <time>2013-01-09T14:33:02Z</time>
      </trkpt>
      <trkpt lat="45.32264" lon="6.20269">
        <ele>2221.26</ele>
        <time>2013-01-09T14:33:04Z</time>
      </trkpt>
      <trkpt lat="45.32275" lon="6.20268">
        <ele>2211.65</ele>
        <time>2013-01-09T14:33:08Z</time>
      </trkpt>
      <trkpt lat="45.3228" lon="6.20263">
        <ele>2209.73</ele>
        <time>2013-01-09T14:33:10Z</time>
      </trkpt>
      <trkpt lat="45.32279" lon="6.20238">
        <ele>2203.96</ele>
        <time>2013-01-09T14:33:14Z</time>
      </trkpt>
      <trkpt lat="45.32284" lon="6.20218">
        <ele>2200.59</ele>
        <time>2013-01-09T14:33:19Z</time>
      </trkpt>
      <trkpt lat="45.32286" lon="6.20211">
        <ele>2200.11</ele>
        <time>2013-01-09T14:33:21Z</time>
      </trkpt>
      <trkpt lat="45.32297" lon="6.20195">
        <ele>2198.19</ele>
        <time>2013-01-09T14:33:26Z</time>
      </trkpt>
      <trkpt lat="45.32296" lon="6.20195">
        <ele>2197.71</ele>
        <time>2013-01-09T14:33:34Z</time>
      </trkpt>
      <trkpt lat="45.32256" lon="6.20217">
        <ele>2196.27</ele>
        <time>2013-01-09T14:33:41Z</time>
      </trkpt>
      <trkpt lat="45.32256" lon="6.20232">
        <ele>2191.46</ele>
        <time>2013-01-09T14:33:46Z</time>
      </trkpt>
      <trkpt lat="45.32257" lon="6.20236">
        <ele>2189.54</ele>
        <time>2013-01-09T14:33:47Z</time>
      </trkpt>
      <trkpt lat="45.32264" lon="6.20245">
        <ele>2181.37</ele>
        <time>2013-01-09T14:33:50Z</time>
      </trkpt>
      <trkpt lat="45.32272" lon="6.20255">
        <ele>2176.08</ele>
        <time>2013-01-09T14:33:53Z</time>
      </trkpt>
      <trkpt lat="45.32266" lon="6.20266">
        <ele>2170.31</ele>
        <time>2013-01-09T14:33:55Z</time>
      </trkpt>
      <trkpt lat="45.32263" lon="6.20269">
        <ele>2168.39</ele>
        <time>2013-01-09T14:33:56Z</time>
      </trkpt>
      <trkpt lat="45.3226" lon="6.20283">
        <ele>2163.58</ele>
        <time>2013-01-09T14:34:03Z</time>
      </trkpt>
      <trkpt lat="45.32261" lon="6.20282">
        <ele>2163.1</ele>
        <time>2013-01-09T14:34:11Z</time>
      </trkpt>
      <trkpt lat="45.32271" lon="6.2029">
        <ele>2160.7</ele>
        <time>2013-01-09T14:34:15Z</time>
      </trkpt>
      <trkpt lat="45.32277" lon="6.20292">
        <ele>2157.82</ele>
        <time>2013-01-09T14:34:17Z</time>
      </trkpt>
      <trkpt lat="45.32289" lon="6.20305">
        <ele>2148.2</ele>
        <time>2013-01-09T14:34:21Z</time>
      </trkpt>
      <trkpt lat="45.32297" lon="6.20309">
        <ele>2142.92</ele>
        <time>2013-01-09T14:34:23Z</time>
      </trkpt>
      <trkpt lat="45.32304" lon="6.20314">
        <ele>2140.03</ele>
        <time>2013-01-09T14:34:25Z</time>
      </trkpt>
      <trkpt lat="45.32307" lon="6.20317">
        <ele>2135.71</ele>
        <time>2013-01-09T14:34:27Z</time>
      </trkpt>
      <trkpt lat="45.32313" lon="6.20325">
        <ele>2129.46</ele>
        <time>2013-01-09T14:34:30Z</time>
      </trkpt>
      <trkpt lat="45.32317" lon="6.20331">
        <ele>2124.65</ele>
        <time>2013-01-09T14:34:32Z</time>
      </trkpt>
      <trkpt lat="45.32328" lon="6.20337">
        <ele>2116.48</ele>
        <time>2013-01-09T14:34:35Z</time>
      </trkpt>
      <trkpt lat="45.32337" lon="6.20344">
        <ele>2111.67</ele>
        <time>2013-01-09T14:34:38Z</time>
      </trkpt>
      <trkpt lat="45.32348" lon="6.20351">
        <ele>2103.98</ele>
        <time>2013-01-09T14:34:41Z</time>
      </trkpt>
      <trkpt lat="45.32355" lon="6.20352">
        <ele>2098.7</ele>
        <time>2013-01-09T14:34:43Z</time>
      </trkpt>
      <trkpt lat="45.32362" lon="6.20351">
        <ele>2095.33</ele>
        <time>2013-01-09T14:34:44Z</time>
      </trkpt>
      <trkpt lat="45.32364" lon="6.20357">
        <ele>2092.45</ele>
        <time>2013-01-09T14:34:45Z</time>
      </trkpt>
      <trkpt lat="45.3237" lon="6.20363">
        <ele>2087.16</ele>
        <time>2013-01-09T14:34:47Z</time>
      </trkpt>
      <trkpt lat="45.32373" lon="6.20365">
        <ele>2087.16</ele>
        <time>2013-01-09T14:34:48Z</time>
      </trkpt>
      <trkpt lat="45.32373" lon="6.20378">
        <ele>2081.87</ele>
        <time>2013-01-09T14:34:50Z</time>
      </trkpt>
      <trkpt lat="45.32374" lon="6.20381">
        <ele>2077.55</ele>
        <time>2013-01-09T14:34:52Z</time>
      </trkpt>
      <trkpt lat="45.32375" lon="6.20381">
        <ele>2074.66</ele>
        <time>2013-01-09T14:34:58Z</time>
      </trkpt>
      <trkpt lat="45.32375" lon="6.20381">
        <ele>2074.18</ele>
        <time>2013-01-09T14:35:03Z</time>
      </trkpt>
      <trkpt lat="45.32397" lon="6.20338">
        <ele>2071.3</ele>
        <time>2013-01-09T14:35:15Z</time>
      </trkpt>
      <trkpt lat="45.32402" lon="6.2034">
        <ele>2066.97</ele>
        <time>2013-01-09T14:35:18Z</time>
      </trkpt>
      <trkpt lat="45.32406" lon="6.2034">
        <ele>2064.57</ele>
        <time>2013-01-09T14:35:19Z</time>
      </trkpt>
      <trkpt lat="45.32411" lon="6.20347">
        <ele>2062.17</ele>
        <time>2013-01-09T14:35:21Z</time>
      </trkpt>
      <trkpt lat="45.32428" lon="6.2036">
        <ele>2054.47</ele>
        <time>2013-01-09T14:35:24Z</time>
      </trkpt>
      <trkpt lat="45.32436" lon="6.20372">
        <ele>2048.23</ele>
        <time>2013-01-09T14:35:26Z</time>
      </trkpt>
      <trkpt lat="45.3244" lon="6.20373">
        <ele>2045.34</ele>
        <time>2013-01-09T14:35:27Z</time>
      </trkpt>
      <trkpt lat="45.32448" lon="6.20374">
        <ele>2039.57</ele>
        <time>2013-01-09T14:35:29Z</time>
      </trkpt>
      <trkpt lat="45.32453" lon="6.20375">
        <ele>2037.17</ele>
        <time>2013-01-09T14:35:30Z</time>
      </trkpt>
      <trkpt lat="45.3247" lon="6.20389">
        <ele>2028.52</ele>
        <time>2013-01-09T14:35:34Z</time>
      </trkpt>
      <trkpt lat="45.32474" lon="6.20392">
        <ele>2025.64</ele>
        <time>2013-01-09T14:35:35Z</time>
      </trkpt>
      <trkpt lat="45.32481" lon="6.204">
        <ele>2018.91</ele>
        <time>2013-01-09T14:35:37Z</time>
      </trkpt>
      <trkpt lat="45.32482" lon="6.20403">
        <ele>2015.54</ele>
        <time>2013-01-09T14:35:38Z</time>
      </trkpt>
      <trkpt lat="45.32484" lon="6.20403">
        <ele>2012.66</ele>
        <time>2013-01-09T14:35:39Z</time>
      </trkpt>
      <trkpt lat="45.32486" lon="6.20407">
        <ele>2009.29</ele>
        <time>2013-01-09T14:35:40Z</time>
      </trkpt>
      <trkpt lat="45.32493" lon="6.20416">
        <ele>2006.41</ele>
        <time>2013-01-09T14:35:42Z</time>
      </trkpt>
      <trkpt lat="45.32512" lon="6.20416">
        <ele>1995.83</ele>
        <time>2013-01-09T14:35:46Z</time>
      </trkpt>
      <trkpt lat="45.32515" lon="6.20423">
        <ele>1991.99</ele>
        <time>2013-01-09T14:35:47Z</time>
      </trkpt>
      <trkpt lat="45.32517" lon="6.20433">
        <ele>1989.1</ele>
        <time>2013-01-09T14:35:48Z</time>
      </trkpt>
      <trkpt lat="45.32514" lon="6.20446">
        <ele>1983.34</ele>
        <time>2013-01-09T14:35:51Z</time>
      </trkpt>
      <trkpt lat="45.32517" lon="6.20445">
        <ele>1981.9</ele>
        <time>2013-01-09T14:36:22Z</time>
      </trkpt>
      <trkpt lat="45.32531" lon="6.20448">
        <ele>1979.01</ele>
        <time>2013-01-09T14:36:26Z</time>
      </trkpt>
      <trkpt lat="45.32539" lon="6.20458">
        <ele>1977.09</ele>
        <time>2013-01-09T14:36:28Z</time>
      </trkpt>
      <trkpt lat="45.32547" lon="6.20468">
        <ele>1972.28</ele>
        <time>2013-01-09T14:36:30Z</time>
      </trkpt>
      <trkpt lat="45.32564" lon="6.20488">
        <ele>1961.23</ele>
        <time>2013-01-09T14:36:34Z</time>
      </trkpt>
      <trkpt lat="45.32572" lon="6.20497">
        <ele>1956.42</ele>
        <time>2013-01-09T14:36:36Z</time>
      </trkpt>
      <trkpt lat="45.3258" lon="6.20505">
        <ele>1951.61</ele>
        <time>2013-01-09T14:36:38Z</time>
      </trkpt>
      <trkpt lat="45.32582" lon="6.20514">
        <ele>1951.61</ele>
        <time>2013-01-09T14:36:39Z</time>
      </trkpt>
      <trkpt lat="45.32581" lon="6.20553">
        <ele>1942.48</ele>
        <time>2013-01-09T14:36:43Z</time>
      </trkpt>
      <trkpt lat="45.32572" lon="6.20585">
        <ele>1937.67</ele>
        <time>2013-01-09T14:36:48Z</time>
      </trkpt>
      <trkpt lat="45.3256" lon="6.20624">
        <ele>1934.79</ele>
        <time>2013-01-09T14:36:57Z</time>
      </trkpt>
      <trkpt lat="45.32544" lon="6.20654">
        <ele>1931.91</ele>
        <time>2013-01-09T14:37:02Z</time>
      </trkpt>
      <trkpt lat="45.32534" lon="6.20679">
        <ele>1928.54</ele>
        <time>2013-01-09T14:37:06Z</time>
      </trkpt>
      <trkpt lat="45.32528" lon="6.20694">
        <ele>1926.62</ele>
        <time>2013-01-09T14:37:09Z</time>
      </trkpt>
      <trkpt lat="45.32534" lon="6.20712">
        <ele>1924.22</ele>
        <time>2013-01-09T14:37:12Z</time>
      </trkpt>
      <trkpt lat="45.32536" lon="6.20718">
        <ele>1922.29</ele>
        <time>2013-01-09T14:37:13Z</time>
      </trkpt>
      <trkpt lat="45.32551" lon="6.20755">
        <ele>1912.2</ele>
        <time>2013-01-09T14:37:17Z</time>
      </trkpt>
      <trkpt lat="45.3255" lon="6.20767">
        <ele>1909.8</ele>
        <time>2013-01-09T14:37:18Z</time>
      </trkpt>
      <trkpt lat="45.32544" lon="6.20801">
        <ele>1903.07</ele>
        <time>2013-01-09T14:37:21Z</time>
      </trkpt>
      <trkpt lat="45.32543" lon="6.20835">
        <ele>1899.7</ele>
        <time>2013-01-09T14:37:24Z</time>
      </trkpt>
      <trkpt lat="45.32538" lon="6.20874">
        <ele>1893.93</ele>
        <time>2013-01-09T14:37:28Z</time>
      </trkpt>
      <trkpt lat="45.32541" lon="6.20904">
        <ele>1890.57</ele>
        <time>2013-01-09T14:37:32Z</time>
      </trkpt>
      <trkpt lat="45.32543" lon="6.20926">
        <ele>1889.13</ele>
        <time>2013-01-09T14:37:35Z</time>
      </trkpt>
      <trkpt lat="45.32546" lon="6.20949">
        <ele>1887.21</ele>
        <time>2013-01-09T14:37:38Z</time>
      </trkpt>
      <trkpt lat="45.32556" lon="6.20979">
        <ele>1882.88</ele>
        <time>2013-01-09T14:37:42Z</time>
      </trkpt>
      <trkpt lat="45.32567" lon="6.20993">
        <ele>1880</ele>
        <time>2013-01-09T14:37:44Z</time>
      </trkpt>
      <trkpt lat="45.32579" lon="6.20998">
        <ele>1877.59</ele>
        <time>2013-01-09T14:37:46Z</time>
      </trkpt>
      <trkpt lat="45.32596" lon="6.20998">
        <ele>1875.19</ele>
        <time>2013-01-09T14:37:48Z</time>
      </trkpt>
      <trkpt lat="45.32614" lon="6.21003">
        <ele>1869.9</ele>
        <time>2013-01-09T14:37:51Z</time>
      </trkpt>
      <trkpt lat="45.32625" lon="6.21015">
        <ele>1867.98</ele>
        <time>2013-01-09T14:37:55Z</time>
      </trkpt>
      <trkpt lat="45.32627" lon="6.21038">
        <ele>1868.46</ele>
        <time>2013-01-09T14:38:10Z</time>
      </trkpt>
      <trkpt lat="45.32634" lon="6.21049">
        <ele>1867.98</ele>
        <time>2013-01-09T14:38:17Z</time>
      </trkpt>
      <trkpt lat="45.32637" lon="6.21052">
        <ele>1867.98</ele>
        <time>2013-01-09T14:38:21Z</time>
      </trkpt>
      <trkpt lat="45.32652" lon="6.21076">
        <ele>1867.98</ele>
        <time>2013-01-09T14:38:36Z</time>
      </trkpt>
      <trkpt lat="45.32663" lon="6.21115">
        <ele>1866.54</ele>
        <time>2013-01-09T14:38:49Z</time>
      </trkpt>
      <trkpt lat="45.32663" lon="6.21141">
        <ele>1865.09</ele>
        <time>2013-01-09T14:38:53Z</time>
      </trkpt>
      <trkpt lat="45.32665" lon="6.21177">
        <ele>1863.65</ele>
        <time>2013-01-09T14:38:57Z</time>
      </trkpt>
      <trkpt lat="45.32669" lon="6.21195">
        <ele>1860.29</ele>
        <time>2013-01-09T14:39:04Z</time>
      </trkpt>
      <trkpt lat="45.32669" lon="6.21196">
        <ele>1860.29</ele>
        <time>2013-01-09T14:39:11Z</time>
      </trkpt>
      <trkpt lat="45.32669" lon="6.21257">
        <ele>1856.44</ele>
        <time>2013-01-09T14:39:21Z</time>
      </trkpt>
      <trkpt lat="45.3267" lon="6.21267">
        <ele>1855.48</ele>
        <time>2013-01-09T14:39:22Z</time>
      </trkpt>
      <trkpt lat="45.32672" lon="6.21285">
        <ele>1854.52</ele>
        <time>2013-01-09T14:39:24Z</time>
      </trkpt>
      <trkpt lat="45.32678" lon="6.21324">
        <ele>1851.16</ele>
        <time>2013-01-09T14:39:28Z</time>
      </trkpt>
      <trkpt lat="45.32679" lon="6.21336">
        <ele>1849.71</ele>
        <time>2013-01-09T14:39:29Z</time>
      </trkpt>
      <trkpt lat="45.32676" lon="6.21376">
        <ele>1844.91</ele>
        <time>2013-01-09T14:39:33Z</time>
      </trkpt>
      <trkpt lat="45.32672" lon="6.21385">
        <ele>1843.47</ele>
        <time>2013-01-09T14:39:34Z</time>
      </trkpt>
      <trkpt lat="45.32665" lon="6.21401">
        <ele>1842.5</ele>
        <time>2013-01-09T14:39:36Z</time>
      </trkpt>
      <trkpt lat="45.32654" lon="6.21429">
        <ele>1838.66</ele>
        <time>2013-01-09T14:39:40Z</time>
      </trkpt>
      <trkpt lat="45.32642" lon="6.21467">
        <ele>1835.77</ele>
        <time>2013-01-09T14:39:45Z</time>
      </trkpt>
      <trkpt lat="45.32636" lon="6.21485">
        <ele>1834.33</ele>
        <time>2013-01-09T14:39:48Z</time>
      </trkpt>
      <trkpt lat="45.32634" lon="6.21497">
        <ele>1833.37</ele>
        <time>2013-01-09T14:39:50Z</time>
      </trkpt>
      <trkpt lat="45.32629" lon="6.21535">
        <ele>1830.49</ele>
        <time>2013-01-09T14:39:57Z</time>
      </trkpt>
      <trkpt lat="45.32622" lon="6.21527">
        <ele>1827.12</ele>
        <time>2013-01-09T14:40:01Z</time>
      </trkpt>
      <trkpt lat="45.32621" lon="6.21529">
        <ele>1825.68</ele>
        <time>2013-01-09T14:40:02Z</time>
      </trkpt>
      <trkpt lat="45.32618" lon="6.21542">
        <ele>1823.28</ele>
        <time>2013-01-09T14:40:05Z</time>
      </trkpt>
      <trkpt lat="45.3261" lon="6.21534">
        <ele>1820.87</ele>
        <time>2013-01-09T14:40:08Z</time>
      </trkpt>
      <trkpt lat="45.32607" lon="6.21528">
        <ele>1818.47</ele>
        <time>2013-01-09T14:40:10Z</time>
      </trkpt>
      <trkpt lat="45.32599" lon="6.2155">
        <ele>1813.66</ele>
        <time>2013-01-09T14:40:15Z</time>
      </trkpt>
      <trkpt lat="45.32586" lon="6.21534">
        <ele>1809.82</ele>
        <time>2013-01-09T14:40:19Z</time>
      </trkpt>
      <trkpt lat="45.32583" lon="6.21529">
        <ele>1808.38</ele>
        <time>2013-01-09T14:40:20Z</time>
      </trkpt>
      <trkpt lat="45.3257" lon="6.21548">
        <ele>1803.57</ele>
        <time>2013-01-09T14:40:24Z</time>
      </trkpt>
      <trkpt lat="45.32561" lon="6.21569">
        <ele>1800.69</ele>
        <time>2013-01-09T14:40:26Z</time>
      </trkpt>
      <trkpt lat="45.32559" lon="6.21612">
        <ele>1795.88</ele>
        <time>2013-01-09T14:40:30Z</time>
      </trkpt>
      <trkpt lat="45.32564" lon="6.21667">
        <ele>1793.48</ele>
        <time>2013-01-09T14:40:42Z</time>
      </trkpt>
      <trkpt lat="45.32565" lon="6.21689">
        <ele>1792.52</ele>
        <time>2013-01-09T14:40:46Z</time>
      </trkpt>
      <trkpt lat="45.32562" lon="6.21715">
        <ele>1790.59</ele>
        <time>2013-01-09T14:40:49Z</time>
      </trkpt>
      <trkpt lat="45.32553" lon="6.21748">
        <ele>1789.15</ele>
        <time>2013-01-09T14:40:52Z</time>
      </trkpt>
      <trkpt lat="45.32548" lon="6.21761">
        <ele>1787.71</ele>
        <time>2013-01-09T14:40:53Z</time>
      </trkpt>
      <trkpt lat="45.32538" lon="6.21808">
        <ele>1782.9</ele>
        <time>2013-01-09T14:40:56Z</time>
      </trkpt>
      <trkpt lat="45.32533" lon="6.21839">
        <ele>1779.06</ele>
        <time>2013-01-09T14:40:58Z</time>
      </trkpt>
      <trkpt lat="45.32529" lon="6.21871">
        <ele>1775.69</ele>
        <time>2013-01-09T14:41:00Z</time>
      </trkpt>
      <trkpt lat="45.32526" lon="6.21903">
        <ele>1773.77</ele>
        <time>2013-01-09T14:41:02Z</time>
      </trkpt>
      <trkpt lat="45.32524" lon="6.21918">
        <ele>1772.33</ele>
        <time>2013-01-09T14:41:03Z</time>
      </trkpt>
      <trkpt lat="45.32517" lon="6.21966">
        <ele>1767.04</ele>
        <time>2013-01-09T14:41:07Z</time>
      </trkpt>
      <trkpt lat="45.32513" lon="6.21997">
        <ele>1765.12</ele>
        <time>2013-01-09T14:41:11Z</time>
      </trkpt>
      <trkpt lat="45.32511" lon="6.22019">
        <ele>1764.64</ele>
        <time>2013-01-09T14:41:14Z</time>
      </trkpt>
      <trkpt lat="45.32507" lon="6.22051">
        <ele>1763.2</ele>
        <time>2013-01-09T14:41:21Z</time>
      </trkpt>
      <trkpt lat="45.325" lon="6.22075">
        <ele>1763.2</ele>
        <time>2013-01-09T14:41:29Z</time>
      </trkpt>
      <trkpt lat="45.32503" lon="6.22084">
        <ele>1763.2</ele>
        <time>2013-01-09T14:41:44Z</time>
      </trkpt>
      <trkpt lat="45.32495" lon="6.22116">
        <ele>1760.79</ele>
        <time>2013-01-09T14:41:52Z</time>
      </trkpt>
      <trkpt lat="45.32488" lon="6.22141">
        <ele>1756.47</ele>
        <time>2013-01-09T14:41:55Z</time>
      </trkpt>
      <trkpt lat="45.32486" lon="6.22149">
        <ele>1756.47</ele>
        <time>2013-01-09T14:41:56Z</time>
      </trkpt>
      <trkpt lat="45.32485" lon="6.22158">
        <ele>1755.02</ele>
        <time>2013-01-09T14:41:57Z</time>
      </trkpt>
      <trkpt lat="45.32484" lon="6.22193">
        <ele>1749.74</ele>
        <time>2013-01-09T14:42:01Z</time>
      </trkpt>
      <trkpt lat="45.32489" lon="6.22222">
        <ele>1745.41</ele>
        <time>2013-01-09T14:42:04Z</time>
      </trkpt>
      <trkpt lat="45.3249" lon="6.22242">
        <ele>1743.97</ele>
        <time>2013-01-09T14:42:06Z</time>
      </trkpt>
      <trkpt lat="45.32479" lon="6.22277">
        <ele>1736.76</ele>
        <time>2013-01-09T14:42:11Z</time>
      </trkpt>
      <trkpt lat="45.32476" lon="6.22301">
        <ele>1731.95</ele>
        <time>2013-01-09T14:42:15Z</time>
      </trkpt>
      <trkpt lat="45.32482" lon="6.22315">
        <ele>1730.99</ele>
        <time>2013-01-09T14:42:17Z</time>
      </trkpt>
      <trkpt lat="45.32477" lon="6.22335">
        <ele>1727.15</ele>
        <time>2013-01-09T14:42:20Z</time>
      </trkpt>
      <trkpt lat="45.3247" lon="6.22337">
        <ele>1726.18</ele>
        <time>2013-01-09T14:42:21Z</time>
      </trkpt>
      <trkpt lat="45.32451" lon="6.22356">
        <ele>1721.86</ele>
        <time>2013-01-09T14:42:27Z</time>
      </trkpt>
      <trkpt lat="45.32451" lon="6.2236">
        <ele>1721.86</ele>
        <time>2013-01-09T14:42:28Z</time>
      </trkpt>
      <trkpt lat="45.32445" lon="6.22374">
        <ele>1717.53</ele>
        <time>2013-01-09T14:42:31Z</time>
      </trkpt>
      <trkpt lat="45.32445" lon="6.22386">
        <ele>1714.65</ele>
        <time>2013-01-09T14:42:33Z</time>
      </trkpt>
      <trkpt lat="45.32446" lon="6.22405">
        <ele>1710.8</ele>
        <time>2013-01-09T14:42:36Z</time>
      </trkpt>
      <trkpt lat="45.32437" lon="6.22422">
        <ele>1707.92</ele>
        <time>2013-01-09T14:42:39Z</time>
      </trkpt>
      <trkpt lat="45.32429" lon="6.22429">
        <ele>1704.55</ele>
        <time>2013-01-09T14:42:43Z</time>
      </trkpt>
      <trkpt lat="45.3243" lon="6.2243">
        <ele>1704.07</ele>
        <time>2013-01-09T14:42:45Z</time>
      </trkpt>
      <trkpt lat="45.32437" lon="6.2243">
        <ele>1703.11</ele>
        <time>2013-01-09T14:42:49Z</time>
      </trkpt>
      <trkpt lat="45.32442" lon="6.22437">
        <ele>1702.15</ele>
        <time>2013-01-09T14:42:52Z</time>
      </trkpt>
      <trkpt lat="45.32441" lon="6.22448">
        <ele>1698.31</ele>
        <time>2013-01-09T14:42:57Z</time>
      </trkpt>
      <trkpt lat="45.32444" lon="6.22461">
        <ele>1696.38</ele>
        <time>2013-01-09T14:43:01Z</time>
      </trkpt>
      <trkpt lat="45.32437" lon="6.22479">
        <ele>1692.06</ele>
        <time>2013-01-09T14:43:06Z</time>
      </trkpt>
      <trkpt lat="45.32436" lon="6.22485">
        <ele>1690.62</ele>
        <time>2013-01-09T14:43:07Z</time>
      </trkpt>
      <trkpt lat="45.32436" lon="6.22504">
        <ele>1684.37</ele>
        <time>2013-01-09T14:43:10Z</time>
      </trkpt>
      <trkpt lat="45.32435" lon="6.22507">
        <ele>1682.93</ele>
        <time>2013-01-09T14:43:11Z</time>
      </trkpt>
      <trkpt lat="45.32429" lon="6.22515">
        <ele>1679.56</ele>
        <time>2013-01-09T14:43:15Z</time>
      </trkpt>
      <trkpt lat="45.32432" lon="6.22516">
        <ele>1678.6</ele>
        <time>2013-01-09T14:43:19Z</time>
      </trkpt>
      <trkpt lat="45.32454" lon="6.22519">
        <ele>1676.68</ele>
        <time>2013-01-09T14:43:25Z</time>
      </trkpt>
      <trkpt lat="45.32463" lon="6.22519">
        <ele>1675.72</ele>
        <time>2013-01-09T14:43:27Z</time>
      </trkpt>
      <trkpt lat="45.32461" lon="6.22536">
        <ele>1672.83</ele>
        <time>2013-01-09T14:43:31Z</time>
      </trkpt>
      <trkpt lat="45.32442" lon="6.22552">
        <ele>1670.43</ele>
        <time>2013-01-09T14:43:34Z</time>
      </trkpt>
      <trkpt lat="45.32421" lon="6.22582">
        <ele>1667.06</ele>
        <time>2013-01-09T14:43:38Z</time>
      </trkpt>
      <trkpt lat="45.32401" lon="6.22605">
        <ele>1662.74</ele>
        <time>2013-01-09T14:43:41Z</time>
      </trkpt>
      <trkpt lat="45.3239" lon="6.22622">
        <ele>1659.37</ele>
        <time>2013-01-09T14:43:43Z</time>
      </trkpt>
      <trkpt lat="45.32373" lon="6.22638">
        <ele>1656.49</ele>
        <time>2013-01-09T14:43:46Z</time>
      </trkpt>
      <trkpt lat="45.32361" lon="6.22648">
        <ele>1654.09</ele>
        <time>2013-01-09T14:43:48Z</time>
      </trkpt>
      <trkpt lat="45.32348" lon="6.22692">
        <ele>1648.32</ele>
        <time>2013-01-09T14:43:53Z</time>
      </trkpt>
      <trkpt lat="45.32348" lon="6.22726">
        <ele>1645.43</ele>
        <time>2013-01-09T14:43:56Z</time>
      </trkpt>
      <trkpt lat="45.32354" lon="6.22771">
        <ele>1641.11</ele>
        <time>2013-01-09T14:44:00Z</time>
      </trkpt>
      <trkpt lat="45.3236" lon="6.22797">
        <ele>1636.3</ele>
        <time>2013-01-09T14:44:03Z</time>
      </trkpt>
      <trkpt lat="45.32363" lon="6.22821">
        <ele>1632.46</ele>
        <time>2013-01-09T14:44:06Z</time>
      </trkpt>
      <trkpt lat="45.32364" lon="6.22831">
        <ele>1632.46</ele>
        <time>2013-01-09T14:44:07Z</time>
      </trkpt>
      <trkpt lat="45.3237" lon="6.22873">
        <ele>1628.61</ele>
        <time>2013-01-09T14:44:11Z</time>
      </trkpt>
      <trkpt lat="45.32376" lon="6.22905">
        <ele>1625.25</ele>
        <time>2013-01-09T14:44:14Z</time>
      </trkpt>
      <trkpt lat="45.32378" lon="6.22936">
        <ele>1621.88</ele>
        <time>2013-01-09T14:44:17Z</time>
      </trkpt>
      <trkpt lat="45.32391" lon="6.22936">
        <ele>1618.52</ele>
        <time>2013-01-09T14:44:21Z</time>
      </trkpt>
      <trkpt lat="45.32398" lon="6.22921">
        <ele>1613.71</ele>
        <time>2013-01-09T14:44:24Z</time>
      </trkpt>
      <trkpt lat="45.324" lon="6.22912">
        <ele>1611.31</ele>
        <time>2013-01-09T14:44:34Z</time>
      </trkpt>
      <trkpt lat="45.32402" lon="6.22898">
        <ele>1608.9</ele>
        <time>2013-01-09T14:44:37Z</time>
      </trkpt>
      <trkpt lat="45.32411" lon="6.22899">
        <ele>1606.5</ele>
        <time>2013-01-09T14:44:40Z</time>
      </trkpt>
      <trkpt lat="45.32416" lon="6.22901">
        <ele>1602.17</ele>
        <time>2013-01-09T14:44:42Z</time>
      </trkpt>
      <trkpt lat="45.32421" lon="6.22901">
        <ele>1596.41</ele>
        <time>2013-01-09T14:44:45Z</time>
      </trkpt>
      <trkpt lat="45.32424" lon="6.22905">
        <ele>1594.96</ele>
        <time>2013-01-09T14:44:46Z</time>
      </trkpt>
      <trkpt lat="45.32429" lon="6.22912">
        <ele>1590.16</ele>
        <time>2013-01-09T14:44:49Z</time>
      </trkpt>
      <trkpt lat="45.32431" lon="6.22912">
        <ele>1587.75</ele>
        <time>2013-01-09T14:44:52Z</time>
      </trkpt>
      <trkpt lat="45.32432" lon="6.22913">
        <ele>1585.83</ele>
        <time>2013-01-09T14:44:55Z</time>
      </trkpt>
      <trkpt lat="45.32438" lon="6.22904">
        <ele>1584.39</ele>
        <time>2013-01-09T14:44:58Z</time>
      </trkpt>
      <trkpt lat="45.32442" lon="6.22913">
        <ele>1581.51</ele>
        <time>2013-01-09T14:45:01Z</time>
      </trkpt>
      <trkpt lat="45.32447" lon="6.22914">
        <ele>1579.58</ele>
        <time>2013-01-09T14:45:04Z</time>
      </trkpt>
      <trkpt lat="45.32449" lon="6.22916">
        <ele>1579.1</ele>
        <time>2013-01-09T14:45:05Z</time>
      </trkpt>
      <trkpt lat="45.32456" lon="6.22943">
        <ele>1573.82</ele>
        <time>2013-01-09T14:45:09Z</time>
      </trkpt>
      <trkpt lat="45.32457" lon="6.22951">
        <ele>1572.37</ele>
        <time>2013-01-09T14:45:10Z</time>
      </trkpt>
      <trkpt lat="45.32463" lon="6.23012">
        <ele>1566.61</ele>
        <time>2013-01-09T14:45:18Z</time>
      </trkpt>
      <trkpt lat="45.32464" lon="6.23036">
        <ele>1563.24</ele>
        <time>2013-01-09T14:45:23Z</time>
      </trkpt>
      <trkpt lat="45.32466" lon="6.23048">
        <ele>1562.28</ele>
        <time>2013-01-09T14:45:25Z</time>
      </trkpt>
      <trkpt lat="45.3247" lon="6.23031">
        <ele>1560.36</ele>
        <time>2013-01-09T14:45:29Z</time>
      </trkpt>
      <trkpt lat="45.3247" lon="6.23019">
        <ele>1558.92</ele>
        <time>2013-01-09T14:45:31Z</time>
      </trkpt>
      <trkpt lat="45.32487" lon="6.23014">
        <ele>1557.47</ele>
        <time>2013-01-09T14:45:36Z</time>
      </trkpt>
      <trkpt lat="45.32516" lon="6.23045">
        <ele>1554.59</ele>
        <time>2013-01-09T14:45:43Z</time>
      </trkpt>
      <trkpt lat="45.32522" lon="6.23077">
        <ele>1551.22</ele>
        <time>2013-01-09T14:45:47Z</time>
      </trkpt>
      <trkpt lat="45.32527" lon="6.23105">
        <ele>1547.38</ele>
        <time>2013-01-09T14:45:51Z</time>
      </trkpt>
      <trkpt lat="45.32533" lon="6.23119">
        <ele>1545.94</ele>
        <time>2013-01-09T14:45:53Z</time>
      </trkpt>
      <trkpt lat="45.32547" lon="6.23161">
        <ele>1542.09</ele>
        <time>2013-01-09T14:45:59Z</time>
      </trkpt>
      <trkpt lat="45.32532" lon="6.2317">
        <ele>1537.77</ele>
        <time>2013-01-09T14:46:03Z</time>
      </trkpt>
      <trkpt lat="45.3253" lon="6.23171">
        <ele>1537.77</ele>
        <time>2013-01-09T14:46:04Z</time>
      </trkpt>
      <trkpt lat="45.32526" lon="6.23176">
        <ele>1534.88</ele>
        <time>2013-01-09T14:46:08Z</time>
      </trkpt>
      <trkpt lat="45.3253" lon="6.2318">
        <ele>1533.44</ele>
        <time>2013-01-09T14:46:18Z</time>
      </trkpt>
      <trkpt lat="45.32544" lon="6.23212">
        <ele>1530.56</ele>
        <time>2013-01-09T14:46:27Z</time>
      </trkpt>
      <trkpt lat="45.32551" lon="6.23222">
        <ele>1529.59</ele>
        <time>2013-01-09T14:46:29Z</time>
      </trkpt>
      <trkpt lat="45.32564" lon="6.23259">
        <ele>1525.27</ele>
        <time>2013-01-09T14:46:35Z</time>
      </trkpt>
      <trkpt lat="45.32567" lon="6.23265">
        <ele>1524.79</ele>
        <time>2013-01-09T14:46:36Z</time>
      </trkpt>
      <trkpt lat="45.32563" lon="6.233">
        <ele>1520.94</ele>
        <time>2013-01-09T14:46:42Z</time>
      </trkpt>
      <trkpt lat="45.32561" lon="6.23309">
        <ele>1517.58</ele>
        <time>2013-01-09T14:46:45Z</time>
      </trkpt>
      <trkpt lat="45.32561" lon="6.23312">
        <ele>1514.69</ele>
        <time>2013-01-09T14:46:52Z</time>
      </trkpt>
      <trkpt lat="45.32553" lon="6.2333">
        <ele>1511.33</ele>
        <time>2013-01-09T14:47:02Z</time>
      </trkpt>
      <trkpt lat="45.32548" lon="6.23347">
        <ele>1507.48</ele>
        <time>2013-01-09T14:47:06Z</time>
      </trkpt>
      <trkpt lat="45.32547" lon="6.23362">
        <ele>1504.12</ele>
        <time>2013-01-09T14:47:09Z</time>
      </trkpt>
      <trkpt lat="45.32546" lon="6.23378">
        <ele>1501.72</ele>
        <time>2013-01-09T14:47:12Z</time>
      </trkpt>
      <trkpt lat="45.32544" lon="6.23385">
        <ele>1500.76</ele>
        <time>2013-01-09T14:47:13Z</time>
      </trkpt>
      <trkpt lat="45.32548" lon="6.2341">
        <ele>1495.95</ele>
        <time>2013-01-09T14:47:16Z</time>
      </trkpt>
      <trkpt lat="45.32544" lon="6.23425">
        <ele>1492.1</ele>
        <time>2013-01-09T14:47:19Z</time>
      </trkpt>
      <trkpt lat="45.32544" lon="6.23445">
        <ele>1488.74</ele>
        <time>2013-01-09T14:47:22Z</time>
      </trkpt>
      <trkpt lat="45.32545" lon="6.2345">
        <ele>1488.74</ele>
        <time>2013-01-09T14:47:23Z</time>
      </trkpt>
      <trkpt lat="45.32545" lon="6.2347">
        <ele>1484.41</ele>
        <time>2013-01-09T14:47:26Z</time>
      </trkpt>
      <trkpt lat="45.32543" lon="6.23476">
        <ele>1483.45</ele>
        <time>2013-01-09T14:47:27Z</time>
      </trkpt>
      <trkpt lat="45.32531" lon="6.23471">
        <ele>1479.13</ele>
        <time>2013-01-09T14:47:30Z</time>
      </trkpt>
      <trkpt lat="45.3252" lon="6.23479">
        <ele>1474.8</ele>
        <time>2013-01-09T14:47:33Z</time>
      </trkpt>
      <trkpt lat="45.32517" lon="6.23485">
        <ele>1474.8</ele>
        <time>2013-01-09T14:47:34Z</time>
      </trkpt>
      <trkpt lat="45.32516" lon="6.23511">
        <ele>1467.11</ele>
        <time>2013-01-09T14:47:38Z</time>
      </trkpt>
      <trkpt lat="45.32516" lon="6.23525">
        <ele>1463.74</ele>
        <time>2013-01-09T14:47:41Z</time>
      </trkpt>
      <trkpt lat="45.32512" lon="6.23541">
        <ele>1459.42</ele>
        <time>2013-01-09T14:47:45Z</time>
      </trkpt>
      <trkpt lat="45.32506" lon="6.23563">
        <ele>1456.05</ele>
        <time>2013-01-09T14:47:49Z</time>
      </trkpt>
      <trkpt lat="45.32502" lon="6.23576">
        <ele>1452.69</ele>
        <time>2013-01-09T14:47:51Z</time>
      </trkpt>
      <trkpt lat="45.32499" lon="6.23587">
        <ele>1449.32</ele>
        <time>2013-01-09T14:47:53Z</time>
      </trkpt>
      <trkpt lat="45.32499" lon="6.23591">
        <ele>1445.48</ele>
        <time>2013-01-09T14:47:56Z</time>
      </trkpt>
      <trkpt lat="45.32499" lon="6.23592">
        <ele>1445.48</ele>
        <time>2013-01-09T14:47:57Z</time>
      </trkpt>
      <trkpt lat="45.32487" lon="6.23621">
        <ele>1442.6</ele>
        <time>2013-01-09T14:48:02Z</time>
      </trkpt>
      <trkpt lat="45.32482" lon="6.23647">
        <ele>1438.75</ele>
        <time>2013-01-09T14:48:06Z</time>
      </trkpt>
      <trkpt lat="45.32479" lon="6.23661">
        <ele>1436.83</ele>
        <time>2013-01-09T14:48:09Z</time>
      </trkpt>
      <trkpt lat="45.32472" lon="6.23667">
        <ele>1434.91</ele>
        <time>2013-01-09T14:48:11Z</time>
      </trkpt>
      <trkpt lat="45.3247" lon="6.2366">
        <ele>1430.58</ele>
        <time>2013-01-09T14:48:15Z</time>
      </trkpt>
      <trkpt lat="45.3247" lon="6.23661">
        <ele>1430.58</ele>
        <time>2013-01-09T14:48:16Z</time>
      </trkpt>
      <trkpt lat="45.3247" lon="6.23659">
        <ele>1430.1</ele>
        <time>2013-01-09T14:48:19Z</time>
      </trkpt>
      <trkpt lat="45.32458" lon="6.23673">
        <ele>1426.25</ele>
        <time>2013-01-09T14:48:25Z</time>
      </trkpt>
      <trkpt lat="45.32452" lon="6.23677">
        <ele>1423.85</ele>
        <time>2013-01-09T14:48:28Z</time>
      </trkpt>
      <trkpt lat="45.3244" lon="6.23653">
        <ele>1420.49</ele>
        <time>2013-01-09T14:48:32Z</time>
      </trkpt>
      <trkpt lat="45.32435" lon="6.23643">
        <ele>1416.16</ele>
        <time>2013-01-09T14:48:35Z</time>
      </trkpt>
      <trkpt lat="45.32433" lon="6.23651">
        <ele>1414.24</ele>
        <time>2013-01-09T14:48:38Z</time>
      </trkpt>
      <trkpt lat="45.32431" lon="6.23655">
        <ele>1413.28</ele>
        <time>2013-01-09T14:48:39Z</time>
      </trkpt>
      <trkpt lat="45.32424" lon="6.23672">
        <ele>1409.43</ele>
        <time>2013-01-09T14:48:43Z</time>
      </trkpt>
      <trkpt lat="45.32421" lon="6.23675">
        <ele>1409.43</ele>
        <time>2013-01-09T14:48:44Z</time>
      </trkpt>
      <trkpt lat="45.32411" lon="6.23693">
        <ele>1404.62</ele>
        <time>2013-01-09T14:48:48Z</time>
      </trkpt>
      <trkpt lat="45.32404" lon="6.23707">
        <ele>1400.3</ele>
        <time>2013-01-09T14:48:51Z</time>
      </trkpt>
      <trkpt lat="45.32399" lon="6.2372">
        <ele>1396.45</ele>
        <time>2013-01-09T14:48:54Z</time>
      </trkpt>
      <trkpt lat="45.32396" lon="6.23724">
        <ele>1396.45</ele>
        <time>2013-01-09T14:48:55Z</time>
      </trkpt>
      <trkpt lat="45.32383" lon="6.23739">
        <ele>1391.17</ele>
        <time>2013-01-09T14:48:59Z</time>
      </trkpt>
      <trkpt lat="45.32377" lon="6.23753">
        <ele>1388.28</ele>
        <time>2013-01-09T14:49:01Z</time>
      </trkpt>
      <trkpt lat="45.3236" lon="6.23756">
        <ele>1382.51</ele>
        <time>2013-01-09T14:49:05Z</time>
      </trkpt>
      <trkpt lat="45.32361" lon="6.23756">
        <ele>1382.03</ele>
        <time>2013-01-09T14:49:06Z</time>
      </trkpt>
      <trkpt lat="45.32359" lon="6.23756">
        <ele>1381.55</ele>
        <time>2013-01-09T14:49:21Z</time>
      </trkpt>
      <trkpt lat="45.32358" lon="6.23759">
        <ele>1381.55</ele>
        <time>2013-01-09T14:49:23Z</time>
      </trkpt>
      <trkpt lat="45.32355" lon="6.23778">
        <ele>1379.15</ele>
        <time>2013-01-09T14:49:26Z</time>
      </trkpt>
      <trkpt lat="45.32346" lon="6.23794">
        <ele>1374.34</ele>
        <time>2013-01-09T14:49:29Z</time>
      </trkpt>
      <trkpt lat="45.32334" lon="6.23816">
        <ele>1371.46</ele>
        <time>2013-01-09T14:49:32Z</time>
      </trkpt>
      <trkpt lat="45.32323" lon="6.2383">
        <ele>1368.09</ele>
        <time>2013-01-09T14:49:34Z</time>
      </trkpt>
      <trkpt lat="45.32304" lon="6.23853">
        <ele>1363.29</ele>
        <time>2013-01-09T14:49:37Z</time>
      </trkpt>
      <trkpt lat="45.3229" lon="6.23863">
        <ele>1359.92</ele>
        <time>2013-01-09T14:49:39Z</time>
      </trkpt>
      <trkpt lat="45.32275" lon="6.23873">
        <ele>1358.48</ele>
        <time>2013-01-09T14:49:41Z</time>
      </trkpt>
      <trkpt lat="45.32262" lon="6.23884">
        <ele>1355.12</ele>
        <time>2013-01-09T14:49:43Z</time>
      </trkpt>
      <trkpt lat="45.32248" lon="6.23892">
        <ele>1351.75</ele>
        <time>2013-01-09T14:49:45Z</time>
      </trkpt>
      <trkpt lat="45.32236" lon="6.23899">
        <ele>1348.39</ele>
        <time>2013-01-09T14:49:47Z</time>
      </trkpt>
      <trkpt lat="45.32229" lon="6.23909">
        <ele>1345.02</ele>
        <time>2013-01-09T14:49:49Z</time>
      </trkpt>
      <trkpt lat="45.32219" lon="6.23917">
        <ele>1341.66</ele>
        <time>2013-01-09T14:49:51Z</time>
      </trkpt>
      <trkpt lat="45.32203" lon="6.23933">
        <ele>1337.33</ele>
        <time>2013-01-09T14:49:54Z</time>
      </trkpt>
      <trkpt lat="45.32198" lon="6.23935">
        <ele>1332.52</ele>
        <time>2013-01-09T14:49:56Z</time>
      </trkpt>
      <trkpt lat="45.32191" lon="6.23946">
        <ele>1328.68</ele>
        <time>2013-01-09T14:49:59Z</time>
      </trkpt>
      <trkpt lat="45.32181" lon="6.23957">
        <ele>1323.87</ele>
        <time>2013-01-09T14:50:02Z</time>
      </trkpt>
      <trkpt lat="45.32172" lon="6.2397">
        <ele>1318.1</ele>
        <time>2013-01-09T14:50:05Z</time>
      </trkpt>
      <trkpt lat="45.3217" lon="6.23973">
        <ele>1318.1</ele>
        <time>2013-01-09T14:50:06Z</time>
      </trkpt>
      <trkpt lat="45.32172" lon="6.23974">
        <ele>1314.74</ele>
        <time>2013-01-09T14:50:08Z</time>
      </trkpt>
      <trkpt lat="45.32168" lon="6.23976">
        <ele>1312.82</ele>
        <time>2013-01-09T14:50:11Z</time>
      </trkpt>
      <trkpt lat="45.32149" lon="6.23989">
        <ele>1308.01</ele>
        <time>2013-01-09T14:50:15Z</time>
      </trkpt>
      <trkpt lat="45.32144" lon="6.23992">
        <ele>1306.57</ele>
        <time>2013-01-09T14:50:16Z</time>
      </trkpt>
      <trkpt lat="45.32136" lon="6.24002">
        <ele>1304.65</ele>
        <time>2013-01-09T14:50:18Z</time>
      </trkpt>
      <trkpt lat="45.32127" lon="6.24017">
        <ele>1299.36</ele>
        <time>2013-01-09T14:50:21Z</time>
      </trkpt>
      <trkpt lat="45.32126" lon="6.24018">
        <ele>1297.92</ele>
        <time>2013-01-09T14:50:22Z</time>
      </trkpt>
      <trkpt lat="45.32128" lon="6.24011">
        <ele>1294.55</ele>
        <time>2013-01-09T14:50:32Z</time>
      </trkpt>
      <trkpt lat="45.3212" lon="6.24029">
        <ele>1293.11</ele>
        <time>2013-01-09T14:50:36Z</time>
      </trkpt>
      <trkpt lat="45.32111" lon="6.24052">
        <ele>1290.71</ele>
        <time>2013-01-09T14:50:39Z</time>
      </trkpt>
      <trkpt lat="45.32102" lon="6.24068">
        <ele>1286.86</ele>
        <time>2013-01-09T14:50:41Z</time>
      </trkpt>
      <trkpt lat="45.32097" lon="6.24076">
        <ele>1285.42</ele>
        <time>2013-01-09T14:50:42Z</time>
      </trkpt>
      <trkpt lat="45.32084" lon="6.24093">
        <ele>1280.61</ele>
        <time>2013-01-09T14:50:45Z</time>
      </trkpt>
      <trkpt lat="45.32081" lon="6.24097">
        <ele>1279.17</ele>
        <time>2013-01-09T14:50:46Z</time>
      </trkpt>
      <trkpt lat="45.32065" lon="6.24123">
        <ele>1273.4</ele>
        <time>2013-01-09T14:50:50Z</time>
      </trkpt>
      <trkpt lat="45.32052" lon="6.24143">
        <ele>1270.04</ele>
        <time>2013-01-09T14:50:53Z</time>
      </trkpt>
      <trkpt lat="45.32043" lon="6.24162">
        <ele>1266.67</ele>
        <time>2013-01-09T14:50:55Z</time>
      </trkpt>
      <trkpt lat="45.32035" lon="6.24179">
        <ele>1262.35</ele>
        <time>2013-01-09T14:50:57Z</time>
      </trkpt>
      <trkpt lat="45.32025" lon="6.24199">
        <ele>1257.54</ele>
        <time>2013-01-09T14:50:59Z</time>
      </trkpt>
      <trkpt lat="45.32014" lon="6.24222">
        <ele>1252.74</ele>
        <time>2013-01-09T14:51:01Z</time>
      </trkpt>
      <trkpt lat="45.31997" lon="6.24242">
        <ele>1250.33</ele>
        <time>2013-01-09T14:51:03Z</time>
      </trkpt>
      <trkpt lat="45.3199" lon="6.24248">
        <ele>1246.97</ele>
        <time>2013-01-09T14:51:04Z</time>
      </trkpt>
      <trkpt lat="45.31982" lon="6.24258">
        <ele>1243.12</ele>
        <time>2013-01-09T14:51:06Z</time>
      </trkpt>
      <trkpt lat="45.3198" lon="6.24261">
        <ele>1240.72</ele>
        <time>2013-01-09T14:51:09Z</time>
      </trkpt>
      <trkpt lat="45.31963" lon="6.24277">
        <ele>1237.83</ele>
        <time>2013-01-09T14:51:21Z</time>
      </trkpt>
      <trkpt lat="45.31957" lon="6.24291">
        <ele>1235.43</ele>
        <time>2013-01-09T14:51:23Z</time>
      </trkpt>
      <trkpt lat="45.31951" lon="6.24307">
        <ele>1233.03</ele>
        <time>2013-01-09T14:51:26Z</time>
      </trkpt>
      <trkpt lat="45.31942" lon="6.24323">
        <ele>1229.66</ele>
        <time>2013-01-09T14:51:29Z</time>
      </trkpt>
      <trkpt lat="45.31936" lon="6.24337">
        <ele>1227.26</ele>
        <time>2013-01-09T14:51:31Z</time>
      </trkpt>
      <trkpt lat="45.31927" lon="6.24362">
        <ele>1222.45</ele>
        <time>2013-01-09T14:51:35Z</time>
      </trkpt>
      <trkpt lat="45.31925" lon="6.24369">
        <ele>1221.97</ele>
        <time>2013-01-09T14:51:36Z</time>
      </trkpt>
      <trkpt lat="45.31921" lon="6.24381">
        <ele>1220.53</ele>
        <time>2013-01-09T14:51:38Z</time>
      </trkpt>
      <trkpt lat="45.31917" lon="6.24392">
        <ele>1218.13</ele>
        <time>2013-01-09T14:51:40Z</time>
      </trkpt>
      <trkpt lat="45.31911" lon="6.24404">
        <ele>1215.24</ele>
        <time>2013-01-09T14:51:42Z</time>
      </trkpt>
      <trkpt lat="45.31898" lon="6.24415">
        <ele>1210.44</ele>
        <time>2013-01-09T14:51:45Z</time>
      </trkpt>
      <trkpt lat="45.31882" lon="6.24432">
        <ele>1205.15</ele>
        <time>2013-01-09T14:51:48Z</time>
      </trkpt>
      <trkpt lat="45.31872" lon="6.24442">
        <ele>1201.79</ele>
        <time>2013-01-09T14:51:51Z</time>
      </trkpt>
      <trkpt lat="45.31863" lon="6.24456">
        <ele>1197.94</ele>
        <time>2013-01-09T14:51:54Z</time>
      </trkpt>
      <trkpt lat="45.3185" lon="6.24476">
        <ele>1192.65</ele>
        <time>2013-01-09T14:51:58Z</time>
      </trkpt>
      <trkpt lat="45.31844" lon="6.24484">
        <ele>1190.73</ele>
        <time>2013-01-09T14:52:00Z</time>
      </trkpt>
      <trkpt lat="45.31836" lon="6.24504">
        <ele>1186.4</ele>
        <time>2013-01-09T14:52:03Z</time>
      </trkpt>
      <trkpt lat="45.31834" lon="6.24511">
        <ele>1184.96</ele>
        <time>2013-01-09T14:52:04Z</time>
      </trkpt>
      <trkpt lat="45.31825" lon="6.24543">
        <ele>1179.67</ele>
        <time>2013-01-09T14:52:08Z</time>
      </trkpt>
      <trkpt lat="45.31816" lon="6.24565">
        <ele>1174.87</ele>
        <time>2013-01-09T14:52:11Z</time>
      </trkpt>
      <trkpt lat="45.31814" lon="6.24572">
        <ele>1174.87</ele>
        <time>2013-01-09T14:52:12Z</time>
      </trkpt>
      <trkpt lat="45.31808" lon="6.24594">
        <ele>1171.02</ele>
        <time>2013-01-09T14:52:15Z</time>
      </trkpt>
      <trkpt lat="45.31803" lon="6.24614">
        <ele>1167.18</ele>
        <time>2013-01-09T14:52:18Z</time>
      </trkpt>
      <trkpt lat="45.31799" lon="6.24626">
        <ele>1163.81</ele>
        <time>2013-01-09T14:52:20Z</time>
      </trkpt>
      <trkpt lat="45.3179" lon="6.24643">
        <ele>1160.93</ele>
        <time>2013-01-09T14:52:23Z</time>
      </trkpt>
      <trkpt lat="45.31775" lon="6.24657">
        <ele>1156.12</ele>
        <time>2013-01-09T14:52:27Z</time>
      </trkpt>
      <trkpt lat="45.31762" lon="6.24674">
        <ele>1152.28</ele>
        <time>2013-01-09T14:52:30Z</time>
      </trkpt>
      <trkpt lat="45.31757" lon="6.2468">
        <ele>1150.84</ele>
        <time>2013-01-09T14:52:31Z</time>
      </trkpt>
      <trkpt lat="45.3175" lon="6.24692">
        <ele>1148.43</ele>
        <time>2013-01-09T14:52:33Z</time>
      </trkpt>
      <trkpt lat="45.31744" lon="6.24705">
        <ele>1146.51</ele>
        <time>2013-01-09T14:52:35Z</time>
      </trkpt>
      <trkpt lat="45.31738" lon="6.24726">
        <ele>1141.7</ele>
        <time>2013-01-09T14:52:39Z</time>
      </trkpt>
      <trkpt lat="45.31734" lon="6.24732">
        <ele>1138.34</ele>
        <time>2013-01-09T14:52:43Z</time>
      </trkpt>
      <trkpt lat="45.31733" lon="6.24734">
        <ele>1138.34</ele>
        <time>2013-01-09T14:52:44Z</time>
      </trkpt>
      <trkpt lat="45.31724" lon="6.24758">
        <ele>1134.49</ele>
        <time>2013-01-09T14:52:52Z</time>
      </trkpt>
      <trkpt lat="45.31724" lon="6.2476">
        <ele>1133.05</ele>
        <time>2013-01-09T14:52:55Z</time>
      </trkpt>
      <trkpt lat="45.31722" lon="6.24764">
        <ele>1129.69</ele>
        <time>2013-01-09T14:54:33Z</time>
      </trkpt>
      <trkpt lat="45.31709" lon="6.24794">
        <ele>1125.84</ele>
        <time>2013-01-09T14:54:40Z</time>
      </trkpt>
      <trkpt lat="45.31706" lon="6.24808">
        <ele>1122.96</ele>
        <time>2013-01-09T14:54:44Z</time>
      </trkpt>
      <trkpt lat="45.31704" lon="6.24829">
        <ele>1120.07</ele>
        <time>2013-01-09T14:54:48Z</time>
      </trkpt>
      <trkpt lat="45.31698" lon="6.24862">
        <ele>1116.23</ele>
        <time>2013-01-09T14:54:52Z</time>
      </trkpt>
      <trkpt lat="45.31693" lon="6.24889">
        <ele>1112.38</ele>
        <time>2013-01-09T14:54:55Z</time>
      </trkpt>
      <trkpt lat="45.31691" lon="6.24927">
        <ele>1107.58</ele>
        <time>2013-01-09T14:54:59Z</time>
      </trkpt>
      <trkpt lat="45.31689" lon="6.24935">
        <ele>1107.58</ele>
        <time>2013-01-09T14:55:00Z</time>
      </trkpt>
      <trkpt lat="45.31682" lon="6.24956">
        <ele>1104.21</ele>
        <time>2013-01-09T14:55:03Z</time>
      </trkpt>
      <trkpt lat="45.31678" lon="6.24978">
        <ele>1101.33</ele>
        <time>2013-01-09T14:55:06Z</time>
      </trkpt>
      <trkpt lat="45.31669" lon="6.25012">
        <ele>1097.48</ele>
        <time>2013-01-09T14:55:11Z</time>
      </trkpt>
      <trkpt lat="45.31665" lon="6.25028">
        <ele>1095.08</ele>
        <time>2013-01-09T14:55:13Z</time>
      </trkpt>
      <trkpt lat="45.31659" lon="6.25042">
        <ele>1092.2</ele>
        <time>2013-01-09T14:55:15Z</time>
      </trkpt>
      <trkpt lat="45.31654" lon="6.25069">
        <ele>1088.35</ele>
        <time>2013-01-09T14:55:19Z</time>
      </trkpt>
      <trkpt lat="45.31644" lon="6.25087">
        <ele>1085.47</ele>
        <time>2013-01-09T14:55:23Z</time>
      </trkpt>
      <trkpt lat="45.31639" lon="6.25104">
        <ele>1082.1</ele>
        <time>2013-01-09T14:55:28Z</time>
      </trkpt>
      <trkpt lat="45.31638" lon="6.25111">
        <ele>1079.7</ele>
        <time>2013-01-09T14:55:32Z</time>
      </trkpt>
      <trkpt lat="45.31636" lon="6.25121">
        <ele>1079.22</ele>
        <time>2013-01-09T14:55:34Z</time>
      </trkpt>
      <trkpt lat="45.31631" lon="6.2511">
        <ele>1075.37</ele>
        <time>2013-01-09T14:55:42Z</time>
      </trkpt>
      <trkpt lat="45.31631" lon="6.25106">
        <ele>1075.37</ele>
        <time>2013-01-09T14:56:10Z</time>
      </trkpt>
      <trkpt lat="45.31618" lon="6.25067">
        <ele>1077.29</ele>
        <time>2013-01-09T14:56:36Z</time>
      </trkpt>
      <trkpt lat="45.31606" lon="6.25052">
        <ele>1078.26</ele>
        <time>2013-01-09T14:56:57Z</time>
      </trkpt>
      <trkpt lat="45.31607" lon="6.25048">
        <ele>1077.78</ele>
        <time>2013-01-09T14:57:09Z</time>
      </trkpt>
      <trkpt lat="45.31606" lon="6.25048">
        <ele>1077.78</ele>
        <time>2013-01-09T14:57:31Z</time>
      </trkpt>
      <trkpt lat="45.31605" lon="6.25045">
        <ele>1077.78</ele>
        <time>2013-01-09T14:57:56Z</time>
      </trkpt>
      <trkpt lat="45.31605" lon="6.25045">
        <ele>1076.81</ele>
        <time>2013-01-09T14:58:02Z</time>
      </trkpt>
    </trkseg>
  </trk>
</gpx>